GFSGL_prec_radar_003.txt.gz
Reflectivity
-20 -20 -20 -20 -20 -20 -20 -20 -20 -20 -20 -20 -20 -20 -20 -20 -20 -20 -20 -20 -20 -20 -20 -20 -20 -20 -20 -20 -20 -20 -20 -20 -20 -20 -20 -20 -20 -20 -20 -20 -7 3 -19
-20 -20 -20 -20 -20 -20 -20 -20 -20 -20 -20 -20 -20 -20 -20 -20 -20 -20 -20 -20 -20 -20 -20 -20 -20 -20 -20 -20 -20 -20 -20 -20 -4 2 -20 -20 -20 -20 -20 -20 -19 -20 -20
-20 -20 -20 -20 -20 -20 -20 -20 -20 -20 -20 -20 -20 -20 -20 -20 -20 -20 -20 -20 -20 -20 -20 -20 -20 -20 -20 -20 -20 -20 -20 -1 -12 -20 -20 -20 -20 -20 -19 -9 -20 -20 -20
-20 -20 -20 -20 -20 -20 -20 -20 -20 -20 -20 -20 -20 -20 -20 -20 -20 -20 -20 -20 -20 -20 -20 -20 -20 -20 -20 -20 -20 -14 -1 -20 -20 -20 6 4 -20 -9 -19 -20 -20 -20 -20
-20 -20 -20 -20 -20 -20 -20 -20 -20 -20 -20 -20 -20 -20 -20 -20 -20 -20 -20 -20 -20 -20 -20 -20 -20 -20 -20 -20 -5 -12 -8 -5 -12 14 -20 4 -17 -20 -20 -20 -20 -20 -10
-20 -20 -20 -20 -20 -20 -20 -20 -20 -20 -20 -20 -20 -20 -20 -20 -20 -20 -20 -20 -20 -20 -20 -20 -20 -20 -20 -20 -20 -20 8 9 8 10 14 -20 -20 -20 -20 -2 5 5 -20
-20 -20 -20 -20 -20 -20 -20 -20 -20 -20 -20 -20 -20 -20 -20 -20 -20 -20 -20 -20 -20 -20 -20 -20 -20 -20 -20 -20 -20 -15 17 22 -3 -5 -20 -20 -20 2 11 -9 -20 -1 2
-20 -20 -20 -20 -20 -20 -20 -20 -20 -20 -20 -20 -20 -20 -20 -20 -20 -20 -20 -20 -20 -20 -20 -20 -20 -20 -20 0 17 -1 -20 -20 -20 -20 -14 -3 5 -11 -15 -16 -10 -4 -11
-20 -20 -20 -20 -20 -20 -20 -20 -20 -20 -20 -20 -20 -20 -20 -20 -20 -20 -20 -20 -20 -20 -20 -20 -20 1 -20 13 -2 -20 -20 -20 -20 -20 9 -6 -20 -20 -2 10 -8 -20 -20
-20 -20 -20 -20 -20 -20 -20 -20 -20 -20 -20 -20 -20 -20 -20 -20 -20 -20 -20 -20 -20 -20 -20 -20 -20 6 3 13 -0 -20 -20 -20 4 -19 -20 -20 -20 -20 -20 -20 3 11 -16
-20 -20 -20 -20 -20 -20 -20 -20 -20 -20 -20 -20 -20 -20 -20 -20 -20 -20 -20 -20 -20 -7 -20 -20 -20 5 3 -20 -4 -20 -15 6 -18 -20 -20 -20 -20 -20 -20 -20 -20 8 12
-20 -20 -20 -20 -20 -20 -20 -20 -20 -20 -20 -20 -20 -20 -20 -20 -20 -20 -20 -20 -6 -20 -6 -20 -4 7 -11 -20 -20 -0 4 -7 -20 -20 -20 -20 -20 -20 -20 -20 -20 -20 -7
-20 -20 -20 -20 -20 -20 -20 -20 -20 -20 -20 -20 -20 -20 -20 -20 -20 -20 -20 -6 -19 8 -16 1 -18 -20 -20 -20 -20 -18 -18 -20 -20 -0 -4 -20 -20 -20 -20 -20 -20 -20 -6
-20 -20 -20 -20 -20 -20 -20 -20 -20 -20 -20 -20 -20 -20 -20 -20 -20 -20 -18 -19 -5 -10 -18 -20 -20 -20 -20 -20 -20 -20 -20 -19 -17 -20 -20 -20 -20 -20 -20 -20 -20 -20 -20
-20 -20 -20 -20 -20 -20 -20 -20 -20 -20 -20 -20 -20 -20 -20 -20 -20 1 2 6 1 -6 2 -20 -20 -20 -20 -20 -20 -20 -20 -20 -20 -20 -20 -20 -20 -20 -20 -20 -20 -20 -20
-20 -20 -20 -20 -20 -20 -20 -20 -20 -20 -20 -20 -20 -20 -20 -20 -20 -18 8 -20 3 -1 -20 -20 -20 -20 -20 -20 -20 -20 -20 -20 -20 -20 -20 -20 -20 -20 -20 -20 -20 -20 -6
-20 -20 -20 -20 -20 -20 -20 -20 -20 -20 -20 -20 -20 -20 -20 -20 -20 1 -16 -0 -20 -20 -20 -20 -20 -20 -20 -20 -20 -20 -20 -20 -20 -20 -20 -19 -9 -20 -19 -20 -20 -20 -20
-20 -20 -20 -20 -20 -20 -20 -20 -20 -20 -20 -20 -20 -20 -20 -20 -14 1 -6 -20 -20 -20 -20 -20 -20 -20 -20 -20 -20 -20 -20 -20 -20 -20 -13 -17 -20 -20 -20 -20 -20 -20 -19
-20 -20 -20 -20 -20 -20 -20 -20 -20 -20 -20 -20 -20 -20 -20 -20 -2 -20 -20 -20 -20 -20 -20 -20 -20 -20 -20 -20 -20 -20 -20 -20 -16 -20 -20 -20 -20 -20 -20 -20 -20 -20 -1
-20 -20 -20 -20 -20 -20 -20 -20 -20 -20 -20 -20 -20 -20 -20 -20 -20 -20 -20 -20 -20 -20 -20 -20 -20 -20 -20 -20 -20 -20 -20 -20 -20 -20 -20 -20 -20 -20 -17 -20 -20 -20 -20
-20 -20 -20 -20 -20 -20 -20 -20 -20 -20 -20 -20 -20 -20 -20 -6 -20 -20 -20 -20 -20 -20 -20 -20 -20 -20 -20 -20 -20 -20 -20 -20 -20 -20 -20 -20 -20 -8 -20 -20 -20 -20 -20
-20 -20 -20 -20 -20 -20 -20 -20 -20 -20 -20 -20 -20 -20 -20 -20 -20 -20 -20 -20 -20 -20 -20 -20 -20 -20 -20 -20 -18 -20 -20 -20 -20 -20 -20 -20 -20 -20 -20 -20 -20 -20 -20
-20 -20 -20 -20 -20 -20 -20 -20 -20 -20 -20 -20 -20 -20 -20 -20 -20 -20 -20 -20 -20 -20 -20 -20 -20 -20 -20 -20 -15 3 -1 -15 -15 -9 -11 -20 -20 -16 -3 -12 -12 -20 -20
-20 -20 -20 -20 -20 -20 -20 -20 -20 -20 -20 -20 -20 -20 -20 -20 -20 -20 -20 -20 -20 -20 -20 -20 -20 -20 -20 -20 -19 -11 7 9 -8 6 12 13 11 -15 -20 -20 -12 -20 -20
-20 -20 -20 -20 -20 -20 -20 -20 -20 -20 -20 -20 -20 -20 -20 -20 -20 -20 -20 -20 -20 -20 -20 -20 -20 -20 -17 -17 -17 -20 -4 6 1 22 13 -5 -15 -20 -20 -20 -20 -20 -20
-20 -20 -20 -20 -20 -20 -20 -20 -20 -20 -20 -20 -20 -20 -20 -20 -20 -20 -20 -20 -20 -20 -20 -20 -20 -20 -20 -20 -20 -20 0 -9 10 18 -20 -19 -3 -20 -20 -20 -20 -20 -20

GFSGL_prec_radar_006.txt.gz
Reflectivity
-20 -20 -20 -20 -20 -20 -20 -20 -20 -20 -20 -20 -20 -20 -20 -20 -20 -20 -20 -20 -20 -20 -20 -20 -20 -20 -20 -20 -20 -20 -20 -20 -20 -20 -20 -20 -20 -20 -20 -20 -20 -20 -5
-20 -20 -20 -20 -20 -20 -20 -20 -20 -20 -20 -20 -20 -20 -20 -20 -20 -20 -20 -20 -20 -20 -20 -20 -20 -20 -20 -20 -20 -20 -20 -20 -20 -20 -20 -20 -20 -20 -20 -20 -20 -20 -20
-20 -20 -20 -20 -20 -20 -20 -20 -20 -20 -20 -20 -20 -20 -20 -20 -20 -20 -20 -20 -20 -20 -20 -20 -20 -20 -20 -20 -20 -20 -20 -20 -6 -17 -20 -20 -20 -20 -20 -20 -20 -20 -20
-20 -20 -20 -20 -20 -20 -20 -20 -20 -20 -20 -20 -20 -20 -20 -20 -20 -20 -20 -20 -20 -20 -20 -20 -20 -20 -20 -20 -20 -20 -20 -20 -20 -20 -20 -14 -4 -20 -20 -20 -20 -20 -20
-20 -20 -20 -20 -20 -20 -20 -20 -20 -20 -20 -20 -20 -20 -20 -20 -20 -20 -20 -20 -20 -20 -20 -20 -20 -20 -20 -20 -20 -20 -20 -20 -10 14 13 -14 -20 -20 -20 -20 -20 -20 -20
-20 -20 -20 -20 -20 -20 -20 -20 -20 -20 -20 -20 -20 -20 -20 -20 -20 -20 -20 -20 -20 -20 -20 -20 -20 -20 -20 -20 -20 -20 5 20 -19 -20 -20 -20 -20 -20 -20 -19 4 -20 -20
-20 -20 -20 -20 -20 -20 -20 -20 -20 -20 -20 -20 -20 -20 -20 -20 -20 -20 -20 -20 -20 -20 -20 -20 -20 -20 -20 -20 -20 -15 17 -20 -20 -20 -20 -20 -20 -14 4 -20 -20 -14 -20
-20 -20 -20 -20 -20 -20 -20 -20 -20 -20 -20 -20 -20 -20 -20 -20 -20 -20 -20 -20 -20 -20 -20 -20 -20 -20 -20 1 1 0 -20 -20 -20 -20 -20 -13 3 -19 -20 -17 -19 -2 -20
-20 -20 -20 -20 -20 -20 -20 -20 -20 -20 -20 -20 -20 -20 -20 -20 -20 -20 -20 -20 -20 -20 -20 -20 -20 -5 -3 10 10 -19 -20 -20 -20 -20 10 -8 -20 -20 -14 5 -11 -20 -20
-20 -20 -20 -20 -20 -20 -20 -20 -20 -20 -20 -20 -20 -20 -20 -20 -20 -20 -20 -20 -20 -20 -20 -20 -20 3 7 15 3 -20 -20 -20 -3 -18 -20 -20 -20 -20 -20 -20 -20 6 -18
-20 -20 -20 -20 -20 -20 -20 -20 -20 -20 -20 -20 -20 -20 -20 -20 -20 -20 -20 -20 -20 -8 -20 -20 -20 -2 7 -19 -9 -20 -18 5 -17 -20 -20 -20 -20 -20 -20 -20 -20 -0 11
-20 -20 -20 -20 -20 -20 -20 -20 -20 -20 -20 -20 -20 -20 -20 -20 -20 -20 -20 -5 -12 -7 0 -20 -5 6 0 -20 -20 -8 4 -3 -20 -20 -20 -20 -20 -20 -20 -20 -20 -20 -15
-20 -20 -20 -20 -20 -20 -20 -20 -20 -20 -20 -20 -20 -20 -20 -20 -20 -20 -20 -17 -19 9 -8 3 -19 -20 -20 -20 -20 -18 -18 -20 -20 -20 -20 -20 -20 -20 -20 -20 -20 -20 -17
-20 -20 -20 -20 -20 -20 -20 -20 -20 -20 -20 -20 -20 -20 -20 -20 -20 -20 -20 -19 -12 -20 -20 -20 -20 -20 -20 -20 -20 -20 -20 -20 -19 -20 -20 -20 -20 -20 -20 -20 -20 -20 -20
-20 -20 -20 -20 -20 -20 -20 -20 -20 -20 -20 -20 -20 -20 -20 -20 -20 -1 1 10 -1 -11 -8 -20 -20 -20 -20 -20 -20 -20 -20 -20 -20 -20 -20 -20 -20 -20 -20 -20 -20 -20 -20
-20 -20 -20 -20 -20 -20 -20 -20 -20 -20 -20 -20 -20 -20 -20 -20 -20 -3 7 -18 1 -15 -20 -20 -20 -20 -20 -20 -20 -20 -20 -20 -20 -20 -20 -20 -20 -20 -20 -20 -20 -20 -20
-20 -20 -20 -20 -20 -20 -20 -20 -20 -20 -20 -20 -20 -20 -20 -20 -20 -8 -0 -8 -20 -20 -20 -20 -20 -20 -20 -20 -20 -20 -20 -20 -20 -20 -20 -20 -14 -20 -20 -20 -20 -20 -20
-20 -20 -20 -20 -20 -20 -20 -20 -20 -20 -20 -20 -20 -20 -20 -20 -16 0 -20 -20 -20 -20 -20 -20 -20 -20 -20 -20 -20 -20 -20 -20 -20 -20 -20 -20 -20 -20 -20 -20 -20 -20 -20
-20 -20 -20 -20 -20 -20 -20 -20 -20 -20 -20 -20 -20 -20 -20 -20 -6 -17 -20 -20 -20 -20 -20 -20 -20 -20 -20 -20 -20 -20 -20 -20 -5 -9 -20 -20 -20 -20 -20 -20 -20 -20 -20
-20 -20 -20 -20 -20 -20 -20 -20 -20 -20 -20 -20 -20 -20 -20 -20 -20 -20 -20 -20 -20 -20 -20 -20 -20 -20 -20 -20 -20 -20 -20 -20 -20 -20 -20 -20 -20 -20 -20 -20 -20 -20 -20
-20 -20 -20 -20 -20 -20 -20 -20 -20 -20 -20 -20 -20 -20 -20 -20 -20 -20 -20 -20 -20 -20 -20 -20 -20 -20 -20 -20 -20 -20 -20 -20 -20 -20 -20 -20 -20 -20 -20 -20 -20 -20 -8
-20 -20 -20 -20 -20 -20 -20 -20 -20 -20 -20 -20 -20 -20 -20 -20 -20 -20 -20 -20 -20 -20 -20 -20 -20 -20 -20 -20 -18 -20 -20 -20 -20 -19 -20 -20 -20 -20 -20 -20 -20 -12 -20
-20 -20 -20 -20 -20 -20 -20 -20 -20 -20 -20 -20 -20 -20 -20 -20 -20 -20 -20 -20 -20 -20 -20 -20 -20 -20 -20 -20 -13 7 6 -12 -4 11 -4 -20 -19 -20 -20 -6 -20 -20 -20
-20 -20 -20 -20 -20 -20 -20 -20 -20 -20 -20 -20 -20 -20 -20 -20 -20 -20 -20 -20 -20 -20 -20 -20 -20 -20 -20 -20 -20 -12 8 9 0 4 12 14 7 -4 -19 -20 -20 -20 -20
-20 -20 -20 -20 -20 -20 -20 -20 -20 -20 -20 -20 -20 -20 -20 -20 -20 -20 -20 -20 -20 -20 -20 -20 -20 -20 -19 -18 -20 -10 -13 2 12 20 15 -13 -12 -20 -20 -20 -20 -20 -20
-20 -20 -20 -20 -20 -20 -20 -20 -20 -20 -20 -20 -20 -20 -20 -20 -20 -20 -20 -20 -20 -20 -20 -20 -20 -20 -20 -20 -20 -20 -4 -7 13 16 -20 -20 -20 -20 -20 -20 -20 -20 -20

GFSGL_prec_radar_009.txt.gz
Reflectivity
-10 -20 -20 -20 -20 -20 -20 -20 -20 -20 -20 -20 -20 -20 -20 -20 -20 -20 -20 -20 -20 -20 -20 -20 -20 -20 -20 -20 -20 -20 -20 -20 -20 -20 -20 -20 -20 -20 -20 -20 -20 -20 -16
-20 -20 -20 -20 -20 -20 -20 -20 -20 -20 -20 -20 -20 -20 -20 -20 -20 -20 -20 -20 -20 -20 -20 -20 -20 -20 -20 -20 -20 -20 -20 -20 -20 -20 -20 -20 -20 -20 -20 -11 7 -3 -20
-20 -20 -20 -20 -20 -20 -20 -20 -20 -20 -20 -20 -20 -20 -20 -20 -20 -20 -20 -20 -20 -20 -20 -20 -20 -20 -20 -20 -20 -20 -20 -20 -20 4 -20 -20 -17 6 2 -17 -20 -20 -20
-20 -20 -20 -20 -20 -20 -20 -20 -20 -20 -20 -20 -20 -20 -20 -20 -20 -20 -20 -20 -20 -20 -20 -20 -20 -20 -20 -20 -20 -20 -20 -20 -20 -20 -4 4 -14 -20 -20 -20 -20 -20 -13
-20 -20 -20 -20 -20 -20 -20 -20 -20 -20 -20 -20 -20 -20 -20 -20 -20 -20 -20 -20 -20 -20 -20 -20 -20 -20 -20 -20 -3 -11 -7 4 11 11 8 -20 -20 -20 -20 -20 -4 -1 -0
-20 -20 -20 -20 -20 -20 -20 -20 -20 -20 -20 -20 -20 -20 -20 -20 -20 -20 -20 -20 -20 -20 -20 -20 -20 -20 -20 -16 -20 -3 9 14 12 9 6 -9 -20 -20 -20 7 11 6 -20
-20 -20 -20 -20 -20 -20 -20 -20 -20 -20 -20 -20 -20 -20 -20 -20 -20 -20 -20 -20 -20 -20 -20 -20 -20 -20 -20 -20 -20 2 20 -20 -20 -20 -20 -20 -20 -20 11 7 7 8 7
-20 -20 -20 -20 -20 -20 -20 -20 -20 -20 -20 -20 -20 -20 -20 -20 -20 -20 -20 -20 -20 -20 -20 -20 -20 -20 -20 2 5 17 -20 -20 -20 -20 -20 -7 12 3 3 6 7 10 -3
-20 -20 -20 -20 -20 -20 -20 -20 -20 -20 -20 -20 -20 -20 -20 -20 -20 -20 -20 -20 -20 -20 -20 -20 -20 -7 3 5 10 -19 -20 -20 -20 -20 8 -2 -20 -20 -14 4 3 -20 -20
-20 -20 -20 -20 -20 -20 -20 -20 -20 -20 -20 -20 -20 -20 -20 -20 -20 -20 -20 -20 -20 -20 -20 -20 -20 3 5 11 4 -16 -20 -20 -18 8 -20 -20 -20 -20 -20 -20 -5 1 -20
-20 -20 -20 -20 -20 -20 -20 -20 -20 -20 -20 -20 -20 -20 -20 -20 -20 -20 -20 -20 -14 -3 -19 -9 -13 -4 9 -5 -1 -20 -19 2 -12 -20 -20 -20 -20 -20 -20 -20 -20 7 5
-20 -20 -20 -20 -20 -20 -20 -20 -20 -20 -20 -20 -20 -20 -20 -20 -20 -20 -20 -3 -1 -0 8 -20 -20 6 -1 -20 -20 -10 4 -2 -20 -20 -20 -20 -20 -20 -20 -20 -20 -20 -9
-20 -20 -20 -20 -20 -20 -20 -20 -20 -20 -20 -20 -20 -20 -20 -20 -20 -20 -20 -18 -3 7 -19 -1 -4 -20 -20 -20 -20 -19 -20 -20 -20 -8 -20 -20 -20 -20 -20 -20 -20 -20 -20
-20 -20 -20 -20 -20 -20 -20 -20 -20 -20 -20 -20 -20 -20 -20 -20 -20 -20 -20 -20 -7 -20 -1 -20 -20 -20 -20 -20 -20 -20 -20 -20 -9 -5 -20 -20 -20 -20 -20 -20 -20 -20 -20
-20 -20 -20 -20 -20 -20 -20 -20 -20 -20 -20 -20 -20 -20 -20 -20 -20 -16 -19 7 -1 -7 -1 -20 -20 -20 -20 -20 -20 -20 -20 -20 -20 -20 -20 -20 -20 -20 -20 -20 -20 -20 -20
-20 -20 -20 -20 -20 -20 -20 -20 -20 -20 -20 -20 -20 -20 -20 -20 -20 -6 3 -14 -1 -20 -20 -20 -20 -20 -20 -20 -20 -20 -20 -20 -20 -20 -20 -20 -20 -20 -20 -20 -20 -20 -20
-20 -20 -20 -20 -20 -20 -20 -20 -20 -20 -20 -20 -20 -20 -20 -20 -20 -4 1 -20 -20 -20 -20 -20 -20 -20 -20 -20 -20 -20 -20 -20 -20 -20 -20 -20 -20 -20 -20 -20 -20 -20 -20
-20 -20 -20 -20 -20 -20 -20 -20 -20 -20 -20 -20 -20 -20 -20 -20 -20 -1 -20 -20 -20 -20 -20 -20 -20 -20 -20 -20 -20 -20 -20 -20 -20 -20 -20 -20 -20 -20 -20 -20 -20 -20 -20
-20 -20 -20 -20 -20 -20 -20 -20 -20 -20 -20 -20 -20 -20 -20 -20 -20 -20 -20 -20 -20 -20 -20 -20 -20 -20 -20 -20 -20 -20 -20 -20 -20 -20 -20 -20 -20 -19 -20 -20 -20 -20 -15
-20 -20 -20 -20 -20 -20 -20 -20 -20 -20 -20 -20 -20 -20 -20 -20 -20 -20 -20 -20 -20 -20 -20 -20 -20 -20 -20 -20 -20 -20 -20 -20 -20 -20 -20 -20 -20 -16 -8 -20 -20 -10 -20
-20 -20 -20 -20 -20 -20 -20 -20 -20 -20 -20 -20 -20 -20 -20 -6 -20 -20 -20 -20 -20 -20 -20 -20 -20 -20 -20 -20 -20 -20 -20 -20 -20 -20 -20 -20 -19 -6 -20 -20 -20 -20 -20
-20 -20 -20 -20 -20 -20 -20 -20 -20 -20 -20 -20 -20 -20 -20 -20 -20 -20 -20 -20 -20 -20 -20 -20 -20 -20 -20 -20 -20 -20 -20 -20 -20 -20 -20 -20 2 -10 -20 -20 -20 -20 -20
-20 -20 -20 -20 -20 -20 -20 -20 -20 -20 -20 -20 -20 -20 -20 -20 -20 -20 -20 -20 -20 -20 -20 -20 -20 -20 -20 -20 -19 -5 -8 -20 -20 -11 -16 -20 -19 -20 -14 -0 4 -20 -20
-20 -20 -20 -20 -20 -20 -20 -20 -20 -20 -20 -20 -20 -20 -20 -20 -20 -20 -20 -20 -20 -20 -20 -20 -20 -20 -20 -20 -19 -17 -15 -4 -14 3 10 17 15 -5 7 -2 -20 -20 -20
-20 -20 -20 -20 -20 -20 -20 -20 -20 -20 -20 -20 -20 -20 -20 -20 -20 -20 -20 -20 -20 -20 -20 -20 -20 -20 -19 -19 -19 -20 -20 -20 4 2 15 -11 -4 -13 9 -5 -20 -20 -20
-20 -20 -20 -20 -20 -20 -20 -20 -20 -20 -20 -20 -20 -20 -20 -20 -20 -20 -20 -20 -20 -20 -20 -20 -20 -20 -18 -20 -20 -20 -20 -20 -9 17 -8 -20 -20 -20 -12 -13 -20 -20 -20

GFSGL_prec_radar_012.txt.gz
Reflectivity
-20 -20 6 4 -20 -20 -20 -20 -20 -20 -20 -20 -20 -20 -20 -20 -20 -20 -20 -20 -20 -20 -20 -20 -20 -20 -20 -20 -20 -20 -20 -20 -20 -20 -20 -20 -20 -20 -20 -20 -20 -20 -20
-20 -15 5 7 2 -14 -20 -20 -20 -20 -20 -20 -20 -20 -20 -20 -20 -20 -20 -20 -20 -20 -20 -20 -20 -20 -20 -20 -20 -20 -20 -20 -20 -20 -20 -20 -20 -20 -20 -20 -20 -20 -20
-16 11 4 -20 -20 -20 -20 -20 -20 -20 -20 -20 -20 -20 -20 -20 -20 -20 -20 -20 -20 -20 -20 -20 -20 -20 -20 -20 -20 -20 -20 -20 -20 -20 -20 -20 1 -15 -5 -20 -20 -20 -20
11 22 -20 -20 -20 -20 -20 -20 -20 -20 -20 -20 -20 -20 -20 -20 -20 -20 -20 -20 -20 -20 -20 -20 -20 -20 -20 -20 -20 -20 -20 -20 -20 -10 -3 10 4 -20 -20 -20 -20 -20 -20
15 -20 -20 -20 -20 -20 -20 -20 -20 -20 -20 -14 -20 -20 -20 -20 -20 -20 -20 -20 -20 -20 -20 -20 -20 -20 -20 -20 -20 -20 -19 -10 8 12 17 8 -3 -20 -20 -20 -9 1 -11
8 5 -20 9 -20 -20 -20 -20 -20 -20 -0 -20 -20 -20 -20 -20 -20 -20 -20 -20 -20 -20 -20 -20 -20 -20 -20 -20 -20 -20 2 5 16 17 11 6 -20 -20 -20 -0 10 9 0
-20 -14 16 -19 -20 -20 -20 -20 -20 -20 -20 -20 -20 -20 -20 -20 -20 -20 -20 -20 -20 -20 -20 -20 -20 -20 -20 -20 -20 1 10 16 14 6 4 -20 -19 -12 -9 14 8 10 7
10 -9 -20 -20 -20 -20 -20 -20 -20 -20 -20 -20 -20 -20 -20 -20 -20 -20 -20 -20 -20 -20 -20 -20 -20 -20 -20 1 6 15 10 -13 -20 -20 -20 -20 2 9 6 3 8 5 -2
-20 -20 -20 -20 -20 -20 -20 -20 -20 -20 -20 -20 -20 -20 -20 -20 -20 -20 -20 -20 -20 -20 -20 -20 -20 -8 -20 6 14 8 -3 -20 -20 -20 1 7 -7 -17 -4 -0 7 9 -20
-20 -20 -20 -20 -20 -20 -20 -20 -20 -20 -20 -20 -20 -20 -20 -20 -20 -20 -20 -20 -20 -20 -20 -20 -20 -1 4 13 2 -4 -7 -20 -18 6 -20 -20 -20 -20 -20 -20 1 8 5
-20 -19 -20 -20 -20 -20 -20 -20 -20 -20 -20 -20 -20 -20 -20 -20 -20 -20 -20 -20 -20 -20 -20 -16 -20 -20 7 -8 -0 -20 -20 2 2 -18 -20 -20 -20 -20 -20 -20 -15 7 8
-20 -20 -20 -20 -20 -20 -20 -20 -20 -20 -20 -20 -20 -20 -20 -20 -20 -20 -20 -20 -20 -5 3 -15 -20 1 -13 -16 -20 -20 2 2 -20 -20 -20 -20 -20 -9 -20 -9 -9 0 3
-20 -20 -20 -20 -20 -20 -20 -20 -20 -20 -20 -20 -20 -20 -20 -20 -20 -20 -20 -20 -4 -11 -17 -8 -2 -19 -20 -20 -20 -20 -20 -20 -20 -20 -20 -3 -3 -19 -16 -0 -2 -2 -1
-20 -20 -20 -20 -20 -20 -20 -20 -20 -20 -20 -20 -20 -20 -20 -20 -20 -20 -20 -20 -10 -20 -20 -20 -20 -20 -20 -20 -20 -20 -20 -20 -20 -20 -18 -20 -20 -20 -20 -12 3 -20 -16
-20 -20 -20 -20 -20 -20 -20 -20 -20 -20 -20 -20 -20 -20 -20 -20 -20 -17 -4 -2 1 -16 -11 -20 -20 -20 -20 -20 -20 -20 -20 -20 -20 -15 -14 -12 -20 -20 -20 -20 0 2 -20
-20 -20 -20 -20 -20 -20 -20 -20 -20 -20 -20 -20 -20 -20 -20 -20 -20 -4 -2 -2 -1 -20 -20 -20 -20 -20 -20 -20 -20 -20 -20 -15 -20 -20 -4 -5 -20 -20 -17 -9 -14 -20 -20
-20 -20 -20 -20 -20 -20 -20 -20 -20 -20 -20 -20 -20 -20 -20 -20 -20 -10 0 -20 -20 -20 -20 -20 -20 -20 -20 -20 -20 -16 -20 -20 -9 -5 -17 -20 2 3 -4 -20 -20 -20 -20
-20 -20 -20 -20 -20 -20 -20 -20 -20 -20 -20 -20 -20 -20 -20 -20 -20 -4 -20 -20 -20 -20 -20 -20 -20 -20 -20 -20 -20 -20 -20 -20 -20 -16 -15 -1 -15 -5 -20 -20 -20 -20 -20
-20 -20 -20 -20 -20 -20 -20 -20 -20 -20 -20 -20 -20 -20 -20 -20 -20 -20 -20 -20 -20 -20 -20 -20 -20 -20 -20 -18 -20 -2 -19 -20 -9 -1 -20 -20 -20 -1 -16 -20 -20 -12 -2
-20 -20 -20 -20 -20 -20 -20 -20 -20 -20 -20 -20 -20 -20 -20 -20 -20 -20 -20 -20 -20 -20 -20 -20 -20 -20 -20 -18 -14 -20 -20 -20 -20 -20 -20 -20 -20 -7 3 -20 -20 -20 -20
-20 -20 -20 -20 -20 -20 -20 -20 -20 -20 -20 -20 -20 -20 -20 -20 -20 -20 -20 -20 -20 -20 -20 -20 -20 -20 -20 -20 -20 -16 -20 -20 -20 -20 -20 -20 -2 7 -20 -20 -20 -20 -1
-20 -20 -20 -20 -20 -20 -20 -20 -20 -20 -20 -20 -20 -20 -20 -20 -20 -20 -20 -20 -20 -20 -20 -20 -20 -20 -20 -20 -20 -20 -20 -20 -20 -17 -20 3 7 -11 -20 -20 -20 -6 9
-20 -20 -20 -20 -20 -20 -20 -20 -20 -20 -20 -20 -20 -20 -20 -20 -20 -20 -20 -20 -20 -20 -20 -20 -20 -20 -20 -18 -14 -1 -7 -20 -20 -13 -11 -19 -19 -16 -8 8 12 6 -18
-20 -20 -20 -20 -20 -20 -20 -20 -20 -20 -20 -20 -20 -20 -20 -20 -20 -20 -20 -20 -20 -20 -20 -20 -20 -20 -20 -20 -20 -20 -5 -1 -5 -10 10 19 17 11 -0 5 10 -17 -20
-20 -20 -20 -20 -20 -20 -20 -20 -20 -20 -20 -20 -20 -20 -20 -20 -20 -20 -20 -20 -20 -20 -20 -20 -20 -20 -20 -20 -17 -15 -16 -19 7 11 17 20 -3 -18 5 11 -15 -20 -20
-20 -20 -20 -20 -20 -20 -20 -20 -20 -20 -20 -20 -20 -20 -20 -20 -20 -20 -20 -20 -20 -20 -20 -20 -20 -19 -18 -19 -20 -20 -18 -3 12 11 -20 -7 -20 0 -8 -15 -20 -20 -20

GFSGL_prec_radar_015.txt.gz
Reflectivity
-20 -20 -20 -20 19 -20 10 2 -18 -18 -20 -20 -20 -20 -20 -20 -20 -20 -20 -20 -20 -20 -20 -20 -20 -20 -20 -20 -20 -20 -20 -20 -20 -20 -20 -20 -20 -20 -20 -20 -20 -20 -20
-20 -20 -20 -6 -3 -18 -7 -20 -20 -20 -20 -20 -20 -20 -20 -20 -20 -20 -20 -20 -20 -20 -20 -20 -20 -20 -20 -20 -20 -20 -20 -20 -20 -20 -20 -20 -20 -20 -20 -20 -20 -20 -20
-20 -20 -15 -18 -16 1 -20 -20 -20 -20 -20 -20 -20 -20 -20 -20 -20 -20 -20 -20 -20 -20 -20 -20 -20 -20 -20 -20 -20 -20 -20 -20 -20 -20 -20 -20 -20 -20 -12 -20 -20 -20 -20
-20 -19 -17 -8 16 -2 -10 -20 -20 -20 -20 -20 -20 -20 -20 -20 -20 -20 -20 -20 -20 -20 -20 -20 -20 -20 -20 -20 -20 -20 -20 -20 -20 -20 -20 -20 1 8 -20 -20 -20 -20 -20
-9 -12 -1 13 -9 12 -16 -19 -20 -18 -20 -20 -20 -20 -20 -3 -20 -20 -20 -20 -20 -20 -20 -20 -20 -20 -20 -20 -20 -20 -19 -20 -7 -14 -2 11 -4 -20 -20 -20 -20 -20 -20
-20 -3 32 5 -12 -20 -20 -20 19 13 -20 -20 -20 -20 -20 -20 -20 -20 -20 -20 -20 -20 -20 -20 -20 -20 -20 -20 -20 -20 -2 2 7 11 12 -5 -20 -20 -20 -16 -20 -4 -19
17 23 25 -10 -20 -20 -19 20 6 -16 -20 -20 -20 -19 -20 -20 -20 -20 -20 -20 -20 -20 -20 -20 -20 -20 -20 -20 -20 -19 -7 8 14 5 2 -6 -20 -20 -20 -20 4 3 -20
17 31 6 22 -13 10 15 10 -11 -20 -20 -20 -16 -5 -20 -20 -20 -20 -20 -20 -20 -20 -20 -20 -20 -20 -20 -20 -20 -8 5 -13 -13 -20 -20 -20 -20 -17 13 11 -11 -20 -20
34 23 -6 19 20 8 -20 -20 -20 -20 -19 3 -16 -20 -20 -20 -20 -20 -20 -20 -20 -20 -20 -20 -20 -20 -20 -20 1 2 -20 -20 -20 -20 -20 -13 0 -15 -17 -20 -20 1 -20
26 31 14 -20 -20 -20 -20 -20 -20 -2 -18 -20 -20 -20 -20 -20 -20 -20 -20 -20 -20 -20 -20 -20 -20 -20 -0 -20 -4 -20 -20 -20 -20 -19 -20 -20 -20 -20 -20 -20 -13 1 -20
-20 -20 -20 -19 -20 -20 -20 -20 -17 -20 -20 -20 -20 -20 -20 -20 -20 -20 -20 -20 -20 -20 -20 -20 -20 -20 -20 4 -2 -19 -20 -15 -10 -19 -20 -20 -20 -20 -20 -20 -20 -0 9
-15 -20 -19 -20 -20 -20 -20 -20 -20 -20 -20 -20 -20 -20 -20 -20 -20 -20 -20 -20 -20 -20 -20 -20 -20 -20 -3 -20 -20 -20 -0 -2 -20 -20 -20 -20 -20 -20 -20 -16 -20 -20 -16
-20 -20 -20 -20 -20 -20 -20 -20 -20 -20 -20 -20 -20 -20 -20 -20 -20 -20 -20 -20 -20 -20 -20 -20 -19 -20 -20 -20 -20 -20 -18 -20 -20 -20 -20 -20 -20 -20 -20 -20 -5 -1 -6
-20 -20 -20 -20 -20 -20 -20 -20 -20 -20 -20 -20 -20 -20 -20 -20 -20 -20 -20 -20 -20 -8 -20 -20 -20 -20 -20 -20 -20 -20 -20 -20 -20 -20 -20 -20 -20 -20 -20 -20 -16 -20 -20
-20 -20 -20 -20 -20 -20 -20 -20 -20 -20 -20 -20 -20 -20 -20 -20 -20 -20 -20 -20 0 -10 -9 -20 -20 -20 -20 -20 -20 -20 -20 -20 -18 -6 -13 -20 -20 -20 -20 -20 -20 -20 -11
-20 -20 -20 -20 -20 -20 -20 -20 -20 -20 -20 -20 -20 -20 -20 -20 -20 -20 -20 -7 -3 -4 -20 -20 -20 -20 -20 -20 -20 -20 -20 -20 -15 -14 -20 -20 -20 -20 -20 -20 -20 -20 -20
-20 -20 -20 -20 -20 -20 -20 -20 -20 -20 -20 -20 -20 -20 -20 -20 -20 -20 -20 -6 -20 -20 -20 -20 -20 -20 -20 -20 -20 -5 -20 -20 -14 -20 -20 -20 -20 -20 -20 -20 -20 -20 -20
-20 -20 -20 -20 -20 -20 -20 -20 -20 -20 -20 -20 -20 -20 -20 -20 -20 -15 -5 -20 -20 -20 -20 -20 -20 -20 -20 -18 -5 -20 -20 -20 -20 -20 -20 -20 -20 -20 -20 -20 -20 -20 -17
-20 -20 -20 -20 -20 -20 -20 -20 -20 -20 -20 -20 -20 -20 -20 -20 -20 -20 -20 -20 -20 -20 -20 -20 -20 -20 -20 -10 -20 -20 -20 -20 -20 -20 -20 -20 -20 -3 -15 -20 -20 -20 -18
-20 -20 -20 -20 -20 -20 -20 -20 -20 -20 -20 -20 -20 -20 -20 -20 -20 -20 -20 -20 -20 -20 -20 -20 -20 -20 -20 -20 -20 -20 -20 -20 -20 -20 -20 -19 -20 -15 5 1 -19 -4 -20
-20 -20 -20 -20 -20 -20 -20 -20 -20 -20 -20 -20 -20 -20 -20 -20 -20 -20 -20 -20 -20 -20 -20 -20 -20 -20 -20 -20 -20 -20 -20 -20 -20 -20 -20 -20 -3 7 -2 -18 -20 -20 -17
-20 -20 -20 -20 -20 -20 -20 -20 -20 -20 -20 -20 -20 -20 -20 -20 -20 -20 -20 -20 -20 -20 -20 -20 -20 -20 -20 -20 -19 -20 -20 -20 -20 -20 -20 -14 0 -20 -20 -20 -20 5 9
-20 -20 -20 -20 -20 -20 -20 -20 -20 -20 -20 -20 -20 -20 -20 -20 -20 -20 -20 -20 -20 -20 -20 -20 -20 -20 -20 -19 -13 -3 -12 -20 -15 -0 4 -20 -20 -16 8 12 8 -1 -20
-20 -20 -20 -20 -20 -20 -20 -20 -20 -20 -20 -20 -20 -20 -20 -20 -20 -20 -20 -20 -20 -20 -20 -20 -20 -20 -17 -18 -17 -20 -20 -1 10 -2 6 16 16 9 -18 3 -12 -20 -20
-20 -20 -20 -20 -20 -20 -20 -20 -20 -20 -20 -20 -20 -20 -20 -20 -20 -20 -20 -20 -20 -20 -20 -20 -20 -20 -20 -17 -17 -20 -20 -2 8 5 3 -20 -20 -18 6 -20 -20 -20 -20
-20 -20 -20 -20 -20 -20 -20 -20 -20 -20 -20 -20 -20 -20 -20 -20 -20 -20 -20 -20 -20 -20 -20 -20 -20 -19 -18 -16 -20 -20 -20 -20 15 -8 -20 -20 -20 -14 -15 -20 -20 -20 -20

GFSGL_prec_radar_018.txt.gz
Reflectivity
-20 -17 -20 -20 -20 -20 -20 -3 -17 -5 9 -16 -20 -20 -20 -20 -20 -20 -20 -20 -20 -20 -20 -20 -20 -20 -20 -20 -20 -20 -20 -20 -20 -20 -20 -20 -20 -20 -20 -20 -20 -20 -20
-17 -20 -5 -5 -20 6 -18 -20 -4 -6 9 12 -18 -20 -20 -20 -20 -20 -20 -20 -20 -20 -20 -20 -20 -20 -20 -20 -20 -20 -20 -20 -20 -20 -20 -20 -20 -20 -20 -20 -20 -20 -20
-20 -20 -6 -14 -19 -16 -5 -11 -17 6 10 9 -20 -20 -20 -20 -20 -20 -20 -20 -20 -20 -20 -20 -20 -20 -20 -20 -20 -20 -20 -20 -20 -20 -20 -20 -20 -20 -20 -20 -20 -20 -20
-20 -20 -12 13 -19 -8 11 -8 -14 2 6 -7 -20 -20 -20 -20 -8 -17 -20 -20 -20 -20 -20 -20 -20 -20 -20 -20 -20 -20 -20 -20 -20 -20 -20 -20 -20 -20 -7 -20 -20 -20 -20
-20 -20 12 -20 15 20 -15 5 20 13 -1 -20 -20 -20 -4 -3 -20 -7 -20 -20 -20 -20 -20 -20 -20 -20 -20 -20 -20 -20 -20 -20 -20 -20 -6 -17 1 -20 -20 -20 -20 -20 -20
19 -13 -20 -20 23 -18 16 4 -4 5 -7 -20 -15 17 5 -14 -16 -18 -17 -20 -20 -20 -20 -20 -20 -20 -20 -20 -20 -20 -20 -0 -2 -2 7 -14 -20 -20 -20 -20 -20 -20 -20
-19 -20 -8 16 4 39 22 19 19 -20 -17 14 17 -8 -18 -15 8 -4 -20 -20 -20 -20 -20 -20 -20 -20 -20 -20 -20 -20 -20 -16 4 5 -20 -10 -20 -20 -20 -20 -20 -7 -9
-9 2 34 28 42 38 27 13 -1 4 -13 -20 -20 -17 -2 3 -20 -20 -20 -20 -20 -20 -20 -20 -20 -20 -20 -20 -20 -20 -20 -20 -20 -20 -13 -20 -20 -16 6 10 -7 -20 -20
21 25 43 22 32 35 28 16 -5 -1 -20 -12 12 13 -16 -20 -20 -20 -20 -20 -20 -20 -20 -20 -20 -20 -20 -20 -15 -20 -20 -20 -20 -20 -20 -12 2 -15 -20 -20 -20 -20 -20
38 36 31 32 28 -2 -2 -3 -17 -18 17 8 -20 -20 -20 -20 -20 -20 -20 -20 -20 -20 -20 -20 -20 -20 -20 -10 2 -14 -20 -20 -20 -19 -20 -20 -20 -20 -20 -20 -20 -20 -20
41 35 22 14 -8 1 -18 -3 21 -2 -20 -20 -20 -20 -20 -20 -20 -20 -20 -20 -20 -20 -20 -20 -20 -20 -14 3 -1 -20 -20 -15 -20 -20 -20 -20 -20 -20 -20 -20 -20 -20 -0
-11 -2 -19 -19 -2 12 -9 -20 -20 -20 -20 -20 -20 -20 -20 -20 -20 -20 -20 -20 -20 -20 -20 -20 -20 -12 -13 -17 -13 -20 -19 -6 -20 -20 -20 -20 -20 -20 -20 -20 -20 -20 -20
-20 -17 -19 -19 -20 -20 -20 -20 -20 -20 -20 -20 -20 -20 -20 -20 -20 -20 -20 -20 -20 -20 -20 -20 -20 -20 -20 -20 -20 -20 -20 -20 -20 -20 -20 -20 -20 -20 -20 -20 -20 -20 -20
-20 -20 -20 -20 -20 -20 -20 -20 -20 -20 -20 -20 -20 -20 -20 -20 -20 -20 -20 -20 -20 -20 -20 -20 -20 -20 -20 -20 -20 -20 -20 -20 -20 -20 -20 -20 -20 -20 -20 -20 -20 -20 -20
-20 -20 -20 -20 -20 -20 -20 -20 -20 -20 -20 -20 -20 -20 -20 -20 -20 -20 -20 -20 -20 -6 -7 -20 -20 -20 -20 -20 -20 -20 -20 -20 -20 -20 -20 -20 -20 -20 -20 -20 -20 -20 -20
-20 -20 -20 -20 -20 -20 -20 -20 -20 -20 -20 -20 -20 -20 -20 -20 -20 -20 -20 -20 -1 -3 -20 -20 -20 -20 -20 -20 -20 -20 -20 -20 -20 -20 -20 -20 -20 -20 -20 -20 -20 -20 -20
-20 -20 -20 -20 -20 -20 -20 -20 -20 -20 -20 -20 -20 -20 -20 -20 -20 -20 -20 -5 -20 -20 -20 -20 -20 -20 -20 -20 -20 -20 -20 -20 -20 -20 -20 -20 -20 -20 -20 -20 -20 -20 -20
-20 -20 -20 -20 -20 -20 -20 -20 -20 -20 -20 -20 -20 -20 -20 -20 -20 -20 -13 -20 -20 -20 -20 -20 -20 -20 -20 -20 -20 -20 -20 -20 -20 -20 -20 -20 -19 -20 -20 -20 -20 -20 -15
-20 -20 -20 -20 -20 -20 -20 -20 -20 -20 -20 -20 -20 -20 -20 -20 -20 -20 -20 -20 -20 -20 -20 -20 -20 -20 -20 -20 -20 -20 -20 -20 -20 -20 -20 -20 -20 -13 -20 -20 -20 -20 -16
-20 -20 -20 -20 -20 -20 -20 -20 -20 -20 -20 -20 -20 -20 -20 -20 -20 -20 -20 -20 -20 -20 -20 -20 -20 -20 -20 -20 -20 -20 -20 -20 -20 -20 -20 -20 -20 -20 2 -1 -19 -18 -20
-20 -20 -20 -20 -20 -20 -20 -20 -20 -20 -20 -20 -20 -20 -20 -20 -20 -20 -20 -20 -20 -20 -20 -20 -20 -20 -20 -20 -20 -20 -20 -20 -20 -20 -20 -20 -20 -3 -20 -20 -20 -20 -20
-20 -20 -20 -20 -20 -20 -20 -20 -20 -20 -20 -20 -20 -20 -20 -20 -20 -20 -20 -20 -20 -20 -20 -20 -20 -20 -20 -19 -18 -20 -20 -20 -20 -18 -19 -20 -20 -20 -18 -20 -19 -6 -3
-20 -20 -20 -20 -20 -20 -20 -20 -20 -20 -20 -20 -20 -20 -20 -20 -20 -20 -20 -20 -20 -20 -20 -20 -20 -20 -20 -18 -16 -8 -20 -20 -7 -10 -15 -18 -19 -14 -5 3 -8 -20 -20
-20 -20 -20 -20 -20 -20 -20 -20 -20 -20 -20 -20 -20 -20 -20 -20 -20 -20 -20 -20 -20 -20 -20 -20 -20 -20 -18 -18 -19 -20 -20 1 -2 5 11 7 -19 -20 -18 -12 -20 -20 -20
-20 -20 -20 -20 -20 -20 -20 -20 -20 -20 -20 -20 -20 -20 -20 -20 -20 -20 -20 -20 -20 -20 -20 -20 -20 -20 -20 -18 -19 -20 -20 -15 3 14 -7 -20 -20 -20 -20 -20 -20 -20 -20
-20 -20 -20 -20 -20 -20 -20 -20 -20 -20 -20 -20 -20 -20 -20 -20 -20 -20 -20 -20 -20 -20 -20 -20 -20 -20 -19 -19 -20 -20 -19 4 1 12 -20 -20 -20 -20 -20 -20 -20 -20 -20

GFSGL_prec_radar_021.txt.gz
Reflectivity
26 -20 -20 21 5 -20 -13 -20 4 18 8 -20 25 -9 24 -19 8 -20 -20 -20 -20 -20 -20 -20 -20 -20 -20 -20 -20 -20 -20 -20 -20 -20 -20 -20 -20 -20 -20 -20 -20 -20 -20
-17 -20 -20 25 -20 -6 3 -20 -16 -9 -10 -15 20 6 -20 12 -20 -20 -20 -20 -20 -20 -20 -20 -20 -20 -20 -20 -20 -20 -20 -20 -20 -20 -20 -20 -20 -20 -20 -20 -20 -20 -20
-18 11 17 -20 -0 13 -15 11 -7 -2 17 18 6 1 15 -19 -20 -20 -20 -20 -20 -20 -20 -20 -20 -20 -20 -20 -20 -20 -20 -20 -20 -20 -20 -20 -20 -20 -20 -20 -20 -20 -20
-17 21 3 1 18 -11 8 -19 -3 5 13 3 21 2 11 -20 -20 -20 -20 -5 15 -20 -20 -20 -20 -20 -20 -20 -20 -20 -20 -20 -20 -20 -20 -20 -20 -20 -20 -20 -20 -20 -20
16 22 16 2 12 -1 16 15 -16 8 23 11 22 -4 -10 -20 -20 -20 0 -7 -20 -20 -20 -20 -20 -20 -20 -20 -20 -20 -20 -20 -20 -20 -20 -20 3 -20 -20 -20 -20 -20 -20
30 28 -17 -15 8 17 -10 14 25 25 -3 15 19 -8 -20 -19 1 -7 -14 -8 -13 -15 -20 -20 -20 -20 -20 -20 -20 -20 -20 -20 -20 -2 4 -11 -20 -20 -20 -20 -20 -20 -20
9 10 -12 9 1 35 -8 22 26 28 28 16 20 1 20 -20 -18 -20 -20 -17 -20 -20 -20 -20 -20 -20 -20 -20 -20 -20 -20 -20 -3 5 -20 -20 -20 -20 -20 -20 -15 2 -7
-10 -17 2 6 33 15 23 31 32 38 30 31 32 0 4 -15 -20 -15 -20 -20 -20 -20 -20 -20 -20 -20 -20 -20 -20 -20 -20 -20 -20 -20 -20 -20 -20 -15 5 -7 -20 -20 -20
29 -13 15 21 23 30 40 41 36 29 29 20 4 -20 -20 -20 -20 -20 -20 -20 -20 -20 -20 -20 -20 -20 -20 -20 -11 -20 -20 -20 -20 -20 -20 -6 3 -15 -20 -20 -20 -20 -20
21 33 37 40 37 36 31 18 13 14 6 -19 -9 -13 -20 -20 -20 -20 -20 -20 -20 -20 -20 -20 -20 -20 -20 -14 2 -20 -20 -20 -20 -19 -20 -20 -20 -20 -20 -20 -20 -20 -20
32 32 29 30 15 13 17 7 -4 -3 -2 -20 -20 -20 -20 -20 -20 -20 -20 -20 -20 -20 -20 -20 -20 -20 -1 1 -4 -17 -20 -16 -20 -20 -20 -20 -20 -20 -20 -20 -20 -20 -20
31 28 32 20 18 1 -17 -18 -20 -20 -20 -20 -20 -20 -20 -20 -20 -20 -20 -20 -20 -20 -20 -20 -20 -8 -2 -20 -15 -20 -10 -20 -20 -20 -20 -20 -20 -20 -20 -20 -20 -20 -20
-20 -20 -20 -20 -20 -20 -20 -20 -20 -20 -20 -20 -20 -20 -20 -20 -20 -20 -20 -20 -20 -20 -20 -20 1 -18 -20 -20 -20 -20 -20 -20 -20 -20 -20 -20 -20 -20 -20 -20 -20 -20 -20
-20 -20 -20 -20 -20 -20 -20 -20 -20 -20 -20 -20 -20 -20 -20 -20 -20 -20 -20 -20 -20 -20 -20 -20 -20 -20 -20 -20 -20 -20 -20 -20 -20 -20 -20 -20 -20 -20 -20 -20 -20 -20 -20
-20 -20 -20 -20 -20 -20 -20 -20 -20 -20 -20 -20 -20 -20 -20 -20 -20 -20 -20 -20 -20 -14 -7 -20 -20 -20 -20 -20 -20 -20 -20 -20 -20 -20 -20 -20 -20 -20 -20 -20 -20 -20 -20
-20 -20 -20 -20 -20 -20 -20 -20 -20 -20 -20 -20 -20 -20 -20 -20 -20 -20 -20 -20 1 -11 -20 -20 -20 -20 -20 -20 -20 -20 -20 -20 -20 -20 -20 -20 -20 -20 -20 -20 -20 -20 -20
-20 -20 -20 -20 -20 -20 -20 -20 -20 -20 -20 -20 -20 -20 -20 -20 -20 -20 -20 -20 -20 -20 -20 -20 -20 -20 -20 -20 -20 -20 -20 -20 -20 -20 -20 -20 -20 -20 -19 -20 -20 -20 -20
-20 -20 -20 -20 -20 -20 -20 -20 -20 -20 -20 -20 -20 -20 -20 -20 -20 -20 -20 -20 -20 -20 -20 -20 -20 -20 -20 -20 -20 -20 -20 -20 -20 -20 -20 -20 -20 -20 -20 -20 -20 -20 -13
-20 -20 -20 -20 -20 -20 -20 -20 -20 -20 -20 -20 -20 -20 -20 -20 -20 -20 -20 -20 -20 -20 -20 -20 -20 -20 -20 -20 -20 -20 -20 -20 -20 -20 -20 -20 -20 -18 -20 -20 -20 -20 -8
-20 -20 -20 -20 -20 -20 -20 -20 -20 -20 -20 -20 -20 -20 -20 -20 -20 -20 -20 -20 -20 -20 -20 -20 -20 -20 -20 -20 -20 -20 -20 -20 -20 -20 -20 -18 -20 -20 -20 -20 -20 -10 -20
-20 -20 -20 -20 -20 -20 -20 -20 -20 -20 -20 -20 -20 -20 -20 -20 -20 -20 -20 -20 -20 -20 -20 -20 -20 -20 -20 -20 -20 -20 -20 -20 -20 -17 -20 -20 -20 -20 -20 -20 -17 -20 -19
-20 -20 -20 -20 -20 -20 -20 -20 -20 -20 -20 -20 -20 -20 -20 -20 -20 -20 -20 -20 -20 -20 -20 -20 -20 -20 -20 -20 -20 -20 -20 -20 -20 -20 -20 -20 -20 -20 -20 -20 -5 1 -16
-20 -20 -20 -20 -20 -20 -20 -20 -20 -20 -20 -20 -20 -20 -20 -20 -20 -20 -20 -20 -20 -20 -20 -20 -20 -20 -20 -20 -18 -16 -19 -19 -18 -20 -18 -20 -20 -12 2 -8 -17 1 -20
-20 -20 -20 -20 -20 -20 -20 -20 -20 -20 -20 -20 -20 -20 -20 -20 -20 -20 -20 -20 -20 -20 -20 -20 -20 -20 -20 -20 -20 -20 -17 -15 -17 -6 8 16 10 -20 -7 -7 -6 -4 -20
-20 -20 -20 -20 -20 -20 -20 -20 -20 -20 -20 -20 -20 -20 -20 -20 -20 -20 -20 -20 -20 -20 -20 -20 -20 -20 -20 -20 -20 -20 -20 0 2 -14 16 7 -19 -20 -20 -19 -17 -18 -20
-20 -20 -20 -20 -20 -20 -20 -20 -20 -20 -20 -20 -20 -20 -20 -20 -20 -20 -20 -20 -20 -20 -20 -20 -20 -20 -20 -20 -20 -8 -5 1 6 11 5 -18 -20 -20 -16 -4 -16 -20 -19

GFSGL_prec_radar_024.txt.gz
Reflectivity
-20 -20 -20 -20 -20 5 19 18 14 2 -4 -20 16 11 14 18 8 -12 -3 14 -1 -17 -20 -20 -20 -20 -20 -20 -20 -20 -20 -20 -20 -20 -20 -20 -20 -20 -20 -20 -20 -20 -20
-20 -20 -20 -20 -20 14 16 16 10 -20 -20 -20 -10 13 13 -1 34 22 34 -19 -12 -18 -20 -20 -20 -20 6 -20 -20 -20 -20 -20 -20 -20 -20 -20 -20 -20 -20 -20 -20 -20 -20
-20 -20 -20 -20 11 -5 24 21 -1 -12 -19 13 -4 11 -4 1 8 8 11 -8 -15 -20 -20 -20 4 9 -20 -20 -20 -20 -20 -20 -20 -20 -20 -20 -20 -20 -20 -20 -20 -20 -20
-20 -20 -20 19 26 6 15 17 -20 13 12 22 12 22 36 23 23 13 7 -13 -20 -20 -20 -2 -19 -20 -20 -20 -20 -20 -20 -20 -20 -20 -20 -20 -20 -20 -20 -20 -20 -20 -20
-20 -3 -19 25 24 -14 7 14 10 -6 13 10 18 38 25 30 24 26 10 -6 -20 7 -10 -3 -19 -20 -20 -20 -20 -20 -20 -20 -20 -20 -20 -20 -20 -20 -20 -20 -20 -20 -20
-19 23 24 -14 16 15 13 7 -20 19 19 21 35 21 20 9 13 24 0 -18 12 -18 -20 -20 -20 -20 -20 -20 -20 -20 -20 -20 -20 -20 -20 -20 -20 -20 -20 -20 -20 -20 -20
-20 -19 -1 2 -4 24 1 -5 24 21 34 26 21 36 20 -2 -3 17 13 -4 -9 -20 -20 -20 -20 -20 -20 -20 -20 -20 -20 -20 -11 1 -20 -20 -20 -20 -20 -20 -20 -13 -20
6 28 37 33 30 -16 5 30 37 28 11 22 36 38 34 32 28 15 5 -2 -20 -20 -20 -20 -20 -20 -20 -20 -20 -20 -20 -20 -20 -20 -20 -20 -20 -19 2 -7 -20 -20 -20
40 37 30 23 21 16 32 34 37 30 38 38 29 24 19 17 15 -11 -20 -20 -20 -20 -20 -20 -20 -20 -20 -20 -20 -20 -20 -20 -20 -20 -20 -8 -5 -15 -20 -20 -20 -20 -20
23 25 15 29 22 33 40 24 25 34 32 26 17 14 8 -20 -20 -20 -20 -20 -20 -20 -20 -20 -20 -20 -20 -20 -1 -20 -20 -20 -20 -20 -20 -20 -20 -20 -20 -20 -20 -20 -20
27 38 35 32 29 31 33 31 17 10 1 -13 -16 -14 -20 -20 -20 -20 -20 -20 -20 -20 -20 -20 -20 -20 -1 -1 -2 -20 -20 -20 -20 -20 -20 -20 -20 -20 -20 -20 -20 -20 -20
25 30 25 23 15 7 8 -20 -18 -15 -15 -20 -20 -20 -20 -20 -20 -20 -20 -20 -20 -20 -20 -20 -20 -9 -1 -20 -20 -20 -20 -20 -20 -20 -20 -20 -20 -20 -20 -20 -20 -20 -20
-10 -19 -20 -20 -20 -20 -20 -20 -20 -20 -20 -20 -20 -20 -20 -20 -20 -20 -20 -20 -20 -20 -20 -20 3 -18 -20 -20 -20 -20 -20 -20 -20 -20 -20 -20 -20 -20 -20 -20 -20 -20 -20
-20 -20 -20 -20 -20 -20 -20 -20 -20 -20 -20 -20 -20 -20 -20 -20 -20 -20 -20 -20 -20 -20 -20 -20 -20 -20 -20 -20 -20 -20 -20 -20 -20 -20 -20 -20 -20 -20 -20 -20 -20 -20 -20
-20 -20 -20 -20 -20 -20 -20 -20 -20 -20 -20 -20 -20 -20 -20 -20 -20 -20 -20 -20 -20 -14 -9 -20 -20 -20 -20 -20 -20 -20 -20 -20 -20 -20 -20 -20 -20 -20 -20 -20 -20 -20 -20
-20 -20 -20 -20 -20 -20 -20 -20 -20 -20 -20 -20 -20 -20 -20 -20 -20 -20 -20 -19 -7 -20 -20 -20 -20 -20 -20 -20 -20 -20 -20 -20 -20 -20 -20 -20 -20 -20 -20 -20 -20 -20 -20
-20 -20 -20 -20 -20 -20 -20 -20 -20 -20 -20 -20 -20 -20 -20 -20 -20 -20 -20 -20 -20 -20 -20 -20 -20 -20 -20 -20 -20 -20 -20 -20 -20 -20 -20 -20 -20 -20 -19 -20 -20 -20 -20
-20 -20 -20 -20 -20 -20 -20 -20 -20 -20 -20 -20 -20 -20 -20 -20 -20 -20 -20 -20 -20 -20 -20 -20 -20 -20 -20 -20 -20 -20 -20 -20 -20 -20 -20 -20 -20 -20 -20 -20 -20 -20 -20
-20 -20 -20 -20 -20 -20 -20 -20 -20 -20 -20 -20 -20 -20 -20 -20 -20 -20 -20 -20 -20 -20 -20 -20 -20 -20 -20 -20 -20 -20 -20 -20 -20 -20 -20 -20 -20 -20 -20 -20 -20 -20 -20
-20 -20 -20 -20 -20 -20 -20 -20 -20 -20 -20 -20 -20 -20 -20 -20 -20 -20 -20 -20 -20 -20 -20 -20 -20 -20 -20 -20 -20 -20 -20 -20 -20 -20 -20 -20 -20 -20 -17 -20 -20 -20 -20
-20 -20 -20 -20 -20 -20 -20 -20 -20 -20 -20 -20 -20 -20 -20 -20 -20 -20 -20 -20 -20 -20 -20 -20 -20 -20 -20 -20 -20 -20 -20 -20 -20 -20 -20 -20 -20 -20 -20 -20 -20 -20 -20
-20 -20 -20 -20 -20 -20 -20 -20 -20 -20 -20 -20 -20 -20 -20 -20 -20 -20 -20 -20 -20 -20 -20 -20 -20 -20 -20 -20 -20 -20 -20 -20 -20 -20 -20 -20 -20 -20 -20 -20 -20 -20 -19
-20 -20 -20 -20 -20 -20 -20 -20 -20 -20 -20 -20 -20 -20 -20 -20 -20 -20 -20 -20 -20 -20 -20 -20 -20 -20 -20 -20 -20 -20 -19 -20 -20 -20 -20 -20 -20 -8 0 -2 -20 -19 -18
-20 -20 -20 -20 -20 -20 -20 -20 -20 -20 -20 -20 -20 -20 -20 -20 -20 -20 -20 -20 -20 -20 -20 -20 -20 -20 -20 -20 -20 -20 -20 -18 -19 -20 -2 11 15 2 -20 -18 -20 -18 -11
-20 -20 -20 -20 -20 -20 -20 -20 -20 -20 -20 -20 -20 -20 -20 -20 -20 -20 -20 -20 -20 -20 -20 -20 -20 -20 -20 -20 -20 -20 1 -19 -9 -6 3 23 8 -17 -20 -19 -15 -0 -16
-20 -20 -20 -20 -20 -20 -20 -20 -20 -20 -20 -20 -20 -20 -20 -20 -20 -20 -20 -20 -20 -20 -20 -20 -20 -20 -20 -20 -20 1 -2 -20 -4 10 11 5 -5 -16 -16 -12 -18 -20 -19

GFSGL_prec_radar_027.txt.gz
Reflectivity
-20 -20 -20 -20 -20 -20 -20 -20 -20 -7 8 14 12 13 11 -7 -2 -20 -11 16 0 32 23 -1 -20 -19 -20 -20 -20 -20 -20 -20 -20 -20 -20 -20 -20 -20 -20 -20 -20 -20 -20
-20 -20 -20 -20 -20 -2 -20 -20 -20 -7 13 18 21 5 10 5 -14 12 23 0 18 29 3 32 17 -18 -19 -20 -20 -20 -20 -20 -20 -20 -20 -20 -20 -20 -20 -20 -20 -20 -20
-18 -20 -20 -20 -20 -16 -20 -20 2 7 20 23 7 3 9 16 16 10 21 31 17 16 15 -5 -18 -16 -20 -20 -20 -20 -20 -20 -20 -20 -20 -20 -20 -20 -20 -20 -20 -20 -20
-20 -20 -20 -20 -1 -2 -20 -19 8 12 17 20 -18 6 13 3 12 18 32 28 15 29 -1 -11 -17 -20 -20 -19 -20 -20 -20 -20 -20 -20 -20 -20 -20 -20 -20 -20 -20 -20 -20
-20 -20 -20 -20 -11 1 -20 -20 14 16 19 22 -20 21 -17 14 17 12 14 11 18 14 13 4 -7 -17 -20 -20 -20 -20 -20 -20 -20 -20 -20 -20 -20 -20 -20 -20 -20 -20 -20
-20 -20 -20 -20 -20 -20 -20 -20 19 3 -14 22 8 19 12 23 32 28 34 28 6 -4 10 12 -6 -20 -20 -20 -20 -20 -20 -20 -20 -20 -20 -20 -20 -20 -20 -20 -20 -20 -20
-20 -20 -20 -20 -20 -20 -20 -18 -4 -16 2 -8 26 8 28 21 23 25 23 24 17 7 2 8 -6 -20 -20 -20 -20 -20 -20 -20 -20 -20 -20 -20 -20 -20 -20 -20 -20 -19 -20
-20 -19 -5 -9 -18 24 17 30 14 8 32 9 16 28 34 43 39 36 31 19 18 13 0 -20 -20 -20 -20 -20 -20 -20 -20 -20 -20 -20 -20 -20 -20 -20 -12 0 -13 -20 -20
13 18 21 24 27 31 36 42 26 15 16 29 33 34 32 28 31 28 18 10 8 -16 -20 -20 -20 -20 -20 -20 -20 -20 -20 -20 -20 -20 -20 -20 -12 -15 -20 -20 -20 -20 -20
34 37 40 36 33 39 32 27 7 21 39 32 29 26 30 27 16 9 8 -17 -12 -20 -20 -20 -20 -20 -20 -20 -20 -20 -20 -20 -20 -20 -20 -20 -20 -20 -20 -20 -20 -20 -20
24 29 25 32 27 30 34 33 34 23 18 18 8 -3 -15 -15 -15 -16 -20 -20 -20 -20 -20 -20 -20 -20 -20 -2 -20 -20 -20 -20 -20 -20 -20 -20 -20 -20 -20 -20 -20 -20 -20
32 32 29 32 31 27 23 10 2 1 1 -13 -20 -20 -20 -20 -20 -20 -20 -20 -20 -20 -20 -20 -20 -20 -3 -20 -20 -20 -20 -20 -20 -20 -20 -20 -20 -20 -20 -20 -20 -20 -20
4 -1 -7 -17 -18 -19 -19 -20 -20 -20 -20 -20 -20 -20 -20 -20 -20 -20 -20 -20 -20 -20 -20 -20 -6 -19 -20 -20 -20 -20 -20 -20 -20 -20 -20 -20 -20 -20 -20 -20 -20 -20 -20
-20 -20 -20 -20 -20 -20 -20 -20 -20 -20 -20 -20 -20 -20 -20 -20 -20 -20 -20 -20 -20 -20 -20 -20 -20 -20 -20 -20 -20 -20 -20 -20 -20 -20 -20 -20 -20 -20 -20 -20 -20 -20 -20
-20 -20 -20 -20 -20 -20 -20 -20 -20 -20 -20 -20 -20 -20 -20 -20 -20 -20 -20 -20 -20 -16 -19 -20 -20 -20 -20 -20 -20 -20 -20 -20 -20 -20 -20 -20 -20 -20 -20 -20 -20 -20 -20
-20 -20 -20 -20 -20 -20 -20 -20 -20 -20 -20 -20 -20 -20 -20 -20 -20 -20 -20 -20 -20 -20 -20 -20 -20 -20 -20 -20 -20 -20 -20 -20 -20 -20 -20 -20 -20 -20 -20 -20 -20 -20 -20
-20 -20 -20 -20 -20 -20 -20 -20 -20 -20 -20 -20 -20 -20 -20 -20 -20 -20 -20 -20 -20 -20 -20 -20 -20 -20 -20 -20 -20 -20 -20 -20 -20 -20 -20 -20 -20 -20 -20 -20 -20 -20 -20
-20 -20 -20 -20 -20 -20 -20 -20 -20 -20 -20 -20 -20 -20 -20 -20 -20 -20 -20 -20 -20 -20 -20 -20 -20 -20 -20 -20 -20 -20 -20 -20 -20 -20 -20 -20 -20 -20 -20 -20 -20 -20 -20
-20 -20 -20 -20 -20 -20 -20 -20 -20 -20 -20 -20 -20 -20 -20 -20 -20 -20 -20 -20 -20 -20 -20 -20 -20 -20 -20 -20 -20 -20 -20 -20 -20 -20 -20 -20 -20 -20 -20 -20 -20 -20 -20
-20 -20 -20 -20 -20 -20 -20 -20 -20 -20 -20 -20 -20 -20 -20 -20 -20 -20 -20 -20 -20 -20 -20 -20 -20 -20 -20 -20 -20 -20 -20 -20 -20 -20 -20 -20 -20 -20 -20 -20 -20 -19 -20
-20 -20 -20 -20 -20 -20 -20 -20 -20 -20 -20 -20 -20 -20 -20 -20 -20 -20 -20 -20 -20 -20 -20 -20 -20 -20 -20 -20 -20 -20 -20 -20 -20 -20 -20 -20 -20 -20 -20 -20 -20 -20 -20
-20 -20 -20 -20 -20 -20 -20 -20 -20 -20 -20 -20 -20 -20 -20 -20 -20 -20 -20 -20 -20 -20 -20 -20 -20 -20 -20 -20 -20 -20 -20 -20 -20 -20 -20 -20 -20 -20 -20 -19 -19 -7 -10
-20 -20 -20 -20 -20 -20 -20 -20 -20 -20 -20 -20 -20 -20 -20 -20 -20 -20 -20 -20 -20 -20 -20 -20 -20 -20 -20 -20 -20 -20 -20 -20 -20 -19 -17 -20 -20 -20 -4 11 -7 -16 -20
-20 -20 -20 -20 -20 -20 -20 -20 -20 -20 -20 -20 -20 -20 -20 -20 -20 -20 -20 -20 -20 -20 -20 -20 -20 -20 -20 -20 -20 -20 -20 -20 -17 -20 -18 -3 2 6 5 -15 -20 -19 -18
-20 -20 -20 -20 -20 -20 -20 -20 -20 -20 -20 -20 -20 -20 -20 -20 -20 -20 -20 -20 -20 -20 -20 -20 -20 -20 -20 -20 -20 -20 -3 5 -3 -14 -6 -3 3 2 -20 -18 -18 -16 -20
-20 -20 -20 -20 -20 -20 -20 -20 -20 -20 -20 -20 -20 -20 -20 -20 -20 -20 -20 -20 -20 -20 -20 -20 -20 -20 -20 -20 -20 -20 3 4 2 -12 -6 3 -4 0 -17 -17 -14 -17 -20

GFSGL_prec_radar_030.txt.gz
Reflectivity
-20 -20 -20 -20 -20 -20 -20 -20 -20 -20 -20 -20 4 8 12 22 18 -1 -20 -10 -7 24 -10 19 4 15 7 25 5 -20 -17 -20 -20 -20 -20 -20 -20 -20 -20 -20 -20 -20 -20
-20 -20 -20 -20 -20 -20 -20 -20 -20 -20 -20 -20 -20 -5 3 13 -3 -20 -5 -2 -8 34 -18 20 31 25 10 -15 -5 24 2 -20 -20 -20 -20 -20 -20 -20 -20 -20 -20 -20 -20
-20 -20 -20 -16 -2 -16 -20 -20 -12 -20 -20 -20 -10 5 13 11 -16 -20 -6 11 22 -12 30 4 34 21 15 -11 -0 -19 -20 -20 -20 -20 -20 -20 -20 -20 -20 -20 -20 -20 -20
-20 -20 -17 4 -6 -18 9 -3 -20 -20 -20 12 16 9 10 10 -2 -17 -10 -12 27 18 23 22 33 31 15 28 22 8 -3 -20 -20 -20 -20 -20 -20 -20 -20 -20 -20 -20 -20
-15 16 28 17 9 -20 2 -7 -20 -20 -20 -12 18 9 4 8 17 -16 23 32 7 11 24 35 28 16 18 12 -5 -20 -20 -20 -20 -20 -20 -20 -20 -20 -20 -20 -20 -20 -20
-20 -20 -20 7 -20 -20 -13 -12 -17 4 -18 20 17 11 21 11 23 15 30 1 12 19 28 29 32 26 13 10 12 -15 -20 -20 -20 -20 -20 -20 -20 -20 -20 -20 -20 -20 -20
-10 -20 -20 -20 -20 -20 -1 19 19 -12 9 7 26 22 -11 9 18 24 29 13 26 30 26 36 25 22 18 15 -19 -20 -20 -20 -20 -20 -20 -20 -20 -20 -20 -20 -20 -20 -20
7 -18 -3 8 1 -17 -5 -2 4 10 30 20 22 26 11 10 36 29 27 28 29 28 25 21 21 17 2 -20 -20 -20 -20 -20 -20 -20 -20 -20 -20 -20 -20 -19 -20 -20 -20
18 21 2 -14 6 16 -4 -6 5 35 28 35 30 24 30 30 28 26 24 20 16 12 3 -3 -7 -10 -10 0 -20 -20 -20 -20 -20 -20 -20 -20 -16 -18 -20 -20 -20 -20 -20
9 14 13 3 17 25 35 37 31 30 34 38 35 29 31 29 30 28 22 -1 -6 -11 -19 -20 -20 -20 -20 -20 -14 -20 -20 -20 -20 -20 -20 -20 -20 -20 -20 -20 -20 -20 -20
17 30 33 31 25 33 35 20 15 7 16 20 26 25 22 18 7 -9 -18 -20 -20 -20 -20 -20 -20 -20 -14 -0 -1 -20 -20 -20 -20 -20 -20 -20 -20 -20 -20 -20 -20 -20 -20
5 5 13 22 24 21 16 21 23 19 14 -1 -7 -20 -20 -20 -20 -20 -20 -20 -20 -20 -20 -20 -20 -20 -12 -20 -20 -20 -20 -20 -20 -20 -20 -20 -20 -20 -20 -20 -20 -20 -20
-19 -18 -16 -19 -19 -20 -20 -20 -20 -20 -20 -20 -20 -20 -20 -20 -20 -20 -20 -20 -20 -20 -20 -20 -18 -19 -20 -20 -20 -20 -20 -20 -20 -20 -20 -20 -20 -20 -20 -20 -20 -20 -20
-20 -20 -20 -20 -20 -20 -20 -20 -20 -20 -20 -20 -20 -20 -20 -20 -20 -20 -20 -20 -20 -20 -20 -20 -20 -20 -20 -20 -20 -20 -20 -20 -20 -20 -20 -20 -20 -20 -20 -20 -20 -20 -20
-20 -20 -20 -20 -20 -20 -20 -20 -20 -20 -20 -20 -20 -20 -20 -20 -20 -20 -20 -20 -20 -20 -20 -20 -20 -20 -20 -20 -20 -20 -20 -20 -20 -20 -20 -20 -20 -20 -20 -20 -20 -20 -20
-20 -20 -20 -20 -20 -20 -20 -20 -20 -20 -20 -20 -20 -20 -20 -20 -20 -20 -20 -20 -20 -20 -20 -20 -20 -20 -20 -20 -20 -20 -20 -20 -20 -20 -20 -20 -20 -20 -20 -20 -20 -20 -20
-20 -20 -20 -20 -20 -20 -20 -20 -20 -20 -20 -20 -20 -20 -20 -20 -20 -20 -20 -20 -20 -20 -20 -20 -20 -20 -20 -20 -20 -20 -20 -20 -20 -20 -20 -20 -20 -20 -20 -20 -20 -20 -20
-20 -20 -20 -20 -20 -20 -20 -20 -20 -20 -20 -20 -20 -20 -20 -20 -20 -20 -20 -20 -20 -20 -20 -20 -20 -20 -20 -20 -20 -20 -20 -20 -20 -20 -20 -20 -20 -20 -20 -20 -20 -20 -20
-20 -20 -20 -20 -20 -20 -20 -20 -20 -20 -20 -20 -20 -20 -20 -20 -20 -20 -20 -20 -20 -20 -20 -20 -20 -20 -20 -20 -20 -20 -20 -20 -20 -20 -20 -20 -20 -20 -20 -20 -20 -20 -20
-20 -20 -20 -20 -20 -20 -20 -20 -20 -20 -20 -20 -20 -20 -20 -20 -20 -20 -20 -20 -20 -20 -20 -20 -20 -20 -20 -20 -20 -20 -20 -20 -20 -20 -20 -20 -20 -20 -20 -20 -20 -20 -20
-20 -20 -20 -20 -20 -20 -20 -20 -20 -20 -20 -20 -20 -20 -20 -20 -20 -20 -20 -20 -20 -20 -20 -20 -20 -20 -20 -20 -20 -20 -20 -20 -20 -20 -20 -20 -20 -20 -20 -20 -20 -20 -19
-20 -20 -20 -20 -20 -20 -20 -20 -20 -20 -20 -20 -20 -20 -20 -20 -20 -20 -20 -20 -20 -20 -20 -20 -20 -20 -20 -20 -20 -20 -20 -20 -20 -20 -20 -20 -20 -20 -20 -20 -20 -17 -11
-20 -20 -20 -20 -20 -20 -20 -20 -20 -20 -20 -20 -20 -20 -20 -20 -20 -20 -20 -20 -20 -20 -20 -20 -20 -20 -20 -20 -20 -20 -20 -20 -20 -20 -18 -20 -20 -20 -20 -18 -6 -16 -18
-20 -20 -20 -20 -20 -20 -20 -20 -20 -20 -20 -20 -20 -20 -20 -20 -20 -20 -20 -20 -20 -20 -20 -20 -20 -20 -20 -20 -20 -20 -20 -20 -20 -20 -20 -19 -17 -19 -16 -15 -17 -18 -17
-20 -20 -20 -20 -20 -20 -20 -20 -20 -20 -20 -20 -20 -20 -20 -20 -20 -20 -20 -20 -20 -20 -20 -20 -20 -20 -20 -20 -20 -20 -20 -12 -19 1 4 -17 -17 -18 -17 -20 -15 -16 -20
-20 -20 -20 -20 -20 -20 -20 -20 -20 -20 -20 -20 -20 -20 -20 -20 -20 -20 -20 -20 -20 -20 -20 -20 -20 -20 -20 -20 -20 -20 -20 -11 -15 -9 -2 3 -16 -18 -18 -17 -2 -12 -11

GFSGL_prec_radar_033.txt.gz
Reflectivity
-20 -20 -20 -20 -20 -20 -9 -1 -20 -20 -20 -20 -12 -15 -20 -20 -3 17 22 22 22 17 6 -15 -20 12 9 26 7 24 10 13 20 -7 22 26 15 -20 -20 -20 -20 -20 -20
-20 -20 -20 -20 -20 -20 -19 -19 -13 -7 -20 -20 -17 -7 -20 -20 -20 7 -18 20 16 26 -19 -20 4 36 7 27 34 27 16 24 24 15 16 14 -0 -19 -9 -20 -20 -20 -20
-20 -20 -20 -20 -20 -20 -20 -20 -8 -20 -20 -20 -20 -20 -20 -16 -16 -20 -18 14 24 -17 -20 -1 29 15 12 21 39 30 22 29 26 21 11 -6 2 5 -20 -20 -20 -20 -20
-20 -20 -20 -20 -20 -19 -19 -17 -12 16 19 2 -20 -20 -20 7 -5 -3 8 14 -20 -6 7 12 17 25 33 22 19 31 26 24 19 15 11 5 -14 -20 -20 -20 -20 -20 -20
-20 -20 -20 -20 -20 -15 -19 19 25 15 -3 20 -14 -20 -20 -13 18 18 13 -5 -1 20 25 18 23 26 35 20 19 20 27 21 19 19 6 -20 -20 -20 -20 -20 -20 -20 -20
-14 -16 -20 -20 -20 -20 -19 12 9 12 -7 23 3 -14 -19 17 19 15 18 24 22 20 25 22 24 29 24 22 27 20 16 25 14 7 -15 -20 -20 -20 -20 -20 -20 -20 -20
-20 -20 -20 -20 -18 -14 6 10 14 6 3 14 -1 20 4 7 23 17 31 27 28 27 20 25 23 21 22 18 24 20 16 -3 -10 -18 -7 -10 -18 -20 -20 -20 -20 3 -20
-4 -9 -20 -20 -4 0 7 8 -4 1 -1 -2 24 21 23 29 34 26 28 6 12 18 20 22 16 14 14 11 8 5 5 -20 -20 -20 -20 -20 -20 -20 -13 -13 0 -10 -20
5 1 -11 -20 0 3 8 11 9 6 -8 27 36 28 30 25 31 12 5 13 14 18 15 12 2 -11 -19 -20 -20 -20 -18 -20 -20 -20 -20 -20 -17 -17 -20 -20 -20 -20 -20
-11 -2 -16 -6 13 18 20 19 -1 5 18 9 28 36 40 35 22 7 14 18 15 -1 -20 -20 -20 -20 -20 -20 -3 -20 -20 -20 -20 -20 -20 -20 -20 -20 -20 -20 -20 -20 -4
-19 -15 -5 13 23 26 31 30 35 22 22 22 20 19 15 16 14 10 5 -5 -12 -12 -20 -20 -20 -20 -5 5 -5 -20 -20 -20 -20 -20 -20 -20 -20 -20 -20 -20 -20 -20 -12
-20 -14 -6 -5 -7 3 -2 7 12 10 -13 -15 -5 -20 -20 -20 -20 -20 -20 -18 -20 -20 -20 -20 -20 -20 -10 -20 -20 -20 -20 -20 -20 -20 -20 -20 -20 -20 -20 -20 -20 -20 -20
-20 -20 -20 -20 -20 -20 -20 -20 -20 -20 -20 -20 -20 -20 -20 -20 -20 -20 -20 -20 -20 -20 -20 -20 -18 -20 -20 -20 -20 -20 -20 -20 -20 -20 -20 -20 -20 -20 -20 -20 -20 -20 -20
-20 -20 -20 -20 -20 -20 -20 -20 -20 -20 -20 -20 -20 -20 -20 -20 -20 -20 -20 -20 -20 -20 -20 -20 -20 -20 -20 -20 -20 -20 -20 -20 -20 -20 -20 -20 -20 -20 -20 -20 -20 -20 -20
-20 -20 -20 -20 -20 -20 -20 -20 -20 -20 -20 -20 -20 -20 -20 -20 -20 -20 -20 -20 -20 -20 -20 -20 -20 -20 -20 -20 -20 -20 -20 -20 -20 -20 -20 -20 -20 -20 -20 -20 -20 -20 -20
-20 -20 -20 -20 -20 -20 -20 -20 -20 -20 -20 -20 -20 -20 -20 -20 -20 -20 -20 -20 -20 -20 -20 -20 -20 -20 -20 -20 -20 -20 -20 -20 -20 -20 -20 -20 -20 -20 -20 -20 -20 -20 -20
-20 -20 -20 -20 -20 -20 -20 -20 -20 -20 -20 -20 -20 -20 -20 -20 -20 -20 -20 -20 -20 -20 -20 -20 -20 -20 -20 -20 -20 -20 -20 -20 -20 -20 -20 -20 -20 -20 -20 -20 -20 -20 -20
-20 -20 -20 -20 -20 -20 -20 -20 -20 -20 -20 -20 -20 -20 -20 -20 -20 -20 -20 -20 -20 -20 -20 -20 -20 -20 -20 -20 -20 -20 -20 -20 -20 -20 -20 -20 -20 -20 -20 -20 -20 -20 -20
-20 -20 -20 -20 -20 -20 -20 -20 -20 -20 -20 -20 -20 -20 -20 -20 -20 -20 -20 -20 -20 -20 -20 -20 -20 -20 -20 -20 -20 -20 -20 -20 -20 -20 -20 -20 -20 -20 -20 -20 -20 -20 -8
-20 -20 -20 -20 -20 -20 -20 -20 -20 -20 -20 -20 -20 -20 -20 -20 -20 -20 -20 -20 -20 -20 -20 -20 -20 -20 -20 -20 -20 -20 -20 -20 -20 -20 -20 -20 -20 -20 -20 -20 -20 -20 -20
-20 -20 -20 -20 -20 -20 -20 -20 -20 -20 -20 -20 -20 -20 -20 -20 -20 -20 -20 -20 -20 -20 -20 -20 -20 -20 -20 -20 -20 -20 -20 -20 -20 -20 -20 -20 -20 -20 -20 -20 -20 -20 -20
-20 -20 -20 -20 -20 -20 -20 -20 -20 -20 -20 -20 -20 -20 -20 -20 -20 -20 -20 -20 -20 -20 -20 -20 -20 -20 -20 -20 -20 -20 -20 -20 -20 -20 -20 -20 -20 -20 -20 -20 -20 -20 -20
-20 -20 -20 -20 -20 -20 -20 -20 -20 -20 -20 -20 -20 -20 -20 -20 -20 -20 -20 -20 -20 -20 -20 -20 -20 -20 -20 -20 -20 -20 -20 -20 -20 -19 -19 -20 -20 -20 -20 -20 -20 -18 -2
-20 -20 -20 -20 -20 -20 -20 -20 -20 -20 -20 -20 -20 -20 -20 -20 -20 -20 -20 -20 -20 -20 -20 -20 -20 -20 -20 -20 -20 -20 -20 -20 -20 -20 -20 -20 -20 -20 -18 -15 -17 -17 2
-20 -20 -20 -20 -20 -20 -20 -20 -20 -20 -20 -20 -20 -20 -20 -20 -20 -20 -20 -20 -20 -20 -20 -20 -20 -20 -20 -20 -20 -20 -20 -20 -20 -19 1 -3 -11 -20 -20 -16 -18 -3 -19
-20 -20 -20 -20 -20 -20 -20 -20 -20 -20 -20 -20 -20 -20 -20 -20 -20 -20 -20 -20 -20 -20 -20 -20 -20 -20 -20 -20 -20 -20 -20 -17 -13 -8 3 2 -7 -2 -19 -15 -18 -17 0

GFSGL_prec_radar_036.txt.gz
Reflectivity
-20 -20 -20 -20 -20 -20 -20 -20 -20 -20 -19 1 2 -20 -20 -20 -20 7 17 17 1 17 19 19 38 32 41 -0 11 3 6 5 18 22 36 21 14 1 23 15 -8 -20 -20
-20 -20 -20 -20 -20 -20 -20 -20 -20 -20 -20 -20 -18 4 21 -13 -20 -2 17 19 22 -18 17 16 14 -20 -20 5 -0 3 8 18 25 26 33 33 29 27 27 18 11 10 -11
-20 -20 -20 -20 -20 -20 -20 -20 -20 -18 -12 -18 -15 -20 15 -18 5 9 18 23 12 -6 -17 17 13 -20 13 36 25 18 30 35 28 30 30 17 17 22 29 24 19 17 6
-20 -20 -20 -20 -20 -20 -20 -20 -20 -18 -0 -7 0 -20 -20 -20 -8 -9 10 18 -20 15 14 10 23 25 17 20 19 21 28 32 28 8 5 -16 -1 10 24 18 5 -13 -7
-20 -20 -20 -20 -20 -20 -20 -20 -20 -20 -20 -20 -20 -19 3 12 12 -20 -6 -19 4 24 13 -4 30 23 26 28 31 24 34 27 32 19 -5 8 21 15 -1 -15 -17 -20 -20
-20 -20 -20 -20 -20 -20 -20 -20 -20 -20 -20 -20 4 4 15 18 17 16 17 20 13 13 4 -4 21 30 26 27 13 6 -4 16 14 10 9 -7 -14 -20 -20 -20 -20 -20 -20
-20 -20 -19 -20 -20 -20 -20 -20 -20 -20 -19 1 -8 -13 -7 0 18 10 26 10 6 16 18 21 24 19 31 23 15 11 22 25 4 -15 -20 -20 -20 -20 -20 -20 -17 -6 -10
-15 -12 -20 -20 -20 -20 -20 -20 -1 6 11 6 1 -13 7 21 27 16 23 25 15 21 16 -13 -14 6 7 -2 -8 1 4 -2 -16 -20 -20 -20 -20 -20 -19 -14 4 -8 -20
-5 -8 -16 -20 -20 -20 -20 -4 6 9 15 10 17 10 17 21 36 30 34 27 19 -2 -20 -20 -20 -14 -18 -20 -20 -20 -20 -20 -20 -20 -20 -20 -20 -20 -20 -20 -20 -3 -7
-4 -3 -5 -6 -7 -6 2 13 -3 -5 -3 2 24 31 34 31 32 25 14 -14 -6 -20 -20 -19 -19 -20 -20 -20 -20 -10 -20 -20 -20 -20 -20 -20 -20 -20 -20 -20 -20 -3 -4
-4 -4 -12 -20 -20 -20 -14 -9 -9 -6 20 22 25 29 24 20 13 9 5 -7 -20 -14 -13 -18 -20 -20 -20 -3 -15 -20 -20 -20 -20 -20 -20 -20 -20 -20 -20 -20 -20 -20 -6
-20 -20 -20 -20 -20 -20 -20 -16 -13 -14 -20 -19 -18 -20 -20 -20 -20 -20 -20 -20 -20 -20 -20 -20 -20 -20 -20 -20 -20 -20 -20 -20 -20 -20 -20 -20 -20 -20 -20 -20 -20 -20 -20
-20 -20 -20 -20 -20 -20 -20 -20 -20 -20 -20 -20 -20 -20 -20 -20 -20 -20 -20 -20 -20 -20 -20 -20 -20 -20 -20 -20 -20 -20 -20 -20 -20 -20 -20 -20 -20 -20 -20 -20 -20 -20 -20
-20 -20 -20 -20 -20 -20 -20 -20 -20 -20 -20 -20 -20 -20 -20 -20 -20 -20 -20 -20 -20 -20 -20 -20 -20 -20 -20 -20 -20 -20 -20 -20 -20 -20 -20 -20 -20 -20 -20 -20 -20 -20 -20
-20 -20 -20 -20 -20 -20 -20 -20 -20 -20 -20 -20 -20 -20 -20 -20 -20 -20 -20 -20 -20 -20 -20 -20 -20 -20 -20 -20 -20 -20 -20 -20 -20 -20 -20 -20 -20 -20 -20 -20 -20 -13 -2
-20 -20 -20 -20 -20 -20 -20 -20 -20 -20 -20 -20 -20 -20 -20 -20 -20 -20 -20 -20 -20 -20 -20 -20 -20 -20 -20 -20 -20 -20 -20 -20 -20 -20 -20 -20 -9 -20 -20 -20 -9 -5 -6
-20 -20 -20 -20 -20 -20 -20 -20 -20 -20 -20 -20 -20 -20 -20 -20 -20 -20 -20 -20 -20 -20 -20 -20 -20 -20 -20 -20 -20 -20 -20 -20 -20 -20 -18 -5 -6 -5 -3 -20 -4 -4 -3
-20 -20 -20 -20 -20 -20 -20 -20 -20 -20 -20 -20 -20 -20 -20 -20 -20 -20 -20 -20 -20 -20 -20 -20 -20 -20 -20 -20 -20 -20 -20 -20 -20 -20 -19 -15 -20 -8 -14 -14 -15 -20 -20
-20 -20 -20 -20 -20 -20 -20 -20 -20 -20 -20 -20 -20 -20 -20 -20 -20 -20 -20 -20 -20 -20 -20 -20 -20 -20 -20 -20 -20 -20 -20 -20 -20 -13 -19 -20 -20 -14 -20 -16 -17 -3 -7
-20 -20 -20 -20 -20 -20 -20 -20 -20 -20 -20 -20 -20 -20 -20 -20 -20 -20 -20 -20 -20 -20 -20 -20 -20 -20 -20 -20 -20 -20 -20 -20 -20 -20 -20 -18 -18 -20 -20 -12 -17 -20 -20
-20 -20 -20 -20 -20 -20 -20 -20 -20 -20 -20 -20 -20 -20 -20 -20 -20 -20 -20 -20 -20 -20 -20 -20 -20 -20 -20 -20 -20 -20 -20 -20 -20 -20 -20 -20 -1 -20 -20 -20 -20 -20 -20
-20 -20 -20 -20 -20 -20 -20 -20 -20 -20 -20 -20 -20 -20 -20 -20 -20 -20 -20 -20 -20 -20 -20 -20 -20 -20 -20 -20 -20 -20 -20 -20 -20 -20 -20 -20 -20 -20 -20 -20 -20 -20 -20
-20 -20 -20 -20 -20 -20 -20 -20 -20 -20 -20 -20 -20 -20 -20 -20 -20 -20 -20 -20 -20 -20 -20 -20 -20 -20 -20 -20 -20 -20 -20 -20 -20 -20 -20 -20 -20 -20 -20 -20 -20 -20 -20
-20 -20 -20 -20 -20 -20 -20 -20 -20 -20 -20 -20 -20 -20 -20 -20 -20 -20 -20 -20 -20 -20 -20 -20 -20 -20 -20 -20 -20 -20 -20 -20 -20 -20 -11 -16 -20 -20 -20 -20 -20 -20 -20
-20 -20 -20 -20 -20 -20 -20 -20 -20 -20 -20 -20 -20 -20 -20 -20 -20 -20 -20 -20 -20 -20 -20 -20 -20 -20 -20 -20 -20 -20 -20 -20 -15 -14 -5 -7 -12 -12 0 -6 -20 -20 -18
-20 -20 -20 -20 -20 -20 -20 -20 -20 -20 -20 -20 -20 -20 -20 -20 -20 -20 -20 -20 -20 -20 -20 -20 -20 -20 -20 -20 -20 -20 -20 -13 -2 2 8 6 -17 -15 -13 -4 -8 5 7

GFSGL_prec_radar_039.txt.gz
Reflectivity
-20 -20 -20 -20 -20 -20 -20 -20 -20 -20 -20 -20 -18 10 17 -18 14 18 20 19 23 24 18 18 18 21 19 28 41 30 41 41 34 16 33 14 2 15 23 23 16 11 9
-20 -20 -20 -20 -20 -20 -20 -20 -20 -20 -20 -20 -20 -20 -20 -20 8 14 -4 10 14 19 21 24 17 19 -15 -14 4 36 26 37 -19 16 12 29 22 34 34 19 7 7 -19
-20 -20 -20 -20 -20 -20 -20 -20 -20 -20 -20 -20 -20 -20 7 -5 10 10 13 3 15 15 12 18 9 1 21 13 6 20 17 20 28 32 22 26 19 18 -0 -18 -17 -17 -20
-20 -20 -20 -20 -20 -20 -20 -20 -20 -20 -20 -20 -20 -20 -18 23 11 11 11 15 -15 -3 12 11 12 7 19 7 -4 13 19 33 24 30 18 27 15 3 8 15 -0 -19 -19
-20 -20 -20 -20 -20 -20 -20 -20 -20 -20 -20 -20 -20 -20 -20 -20 -20 -20 -8 -14 -20 -5 15 15 19 19 19 14 29 4 5 1 -11 -3 26 11 1 -20 -20 -20 -20 -20 -18
-20 -20 -20 -20 -20 -20 -20 -20 -20 -20 -20 -20 -20 -20 -20 -20 -14 -20 -20 11 5 1 11 20 21 21 42 30 4 6 3 22 8 1 -5 0 -15 -20 -20 -20 -20 -20 -20
-20 -20 -20 -20 -20 -20 -20 -20 -18 -10 -20 -10 -8 -17 -0 -0 11 6 8 -17 12 -3 17 12 12 26 22 1 14 26 16 7 2 -15 -20 -20 -20 -20 -20 -20 -20 -20 -20
-20 -20 -20 -20 -20 -20 -20 -20 -20 -20 -20 -10 -2 -15 -16 11 11 3 19 18 7 14 13 5 9 21 27 20 2 -20 -20 -20 -20 -20 -20 -20 -20 -20 -20 -20 -20 -20 -20
-5 -20 -20 -20 -20 -19 -20 -20 -20 -20 -20 -20 -20 -20 -12 2 10 3 9 4 19 16 18 17 9 10 -20 -20 -20 -20 -20 -20 -20 -20 -20 -20 -20 -20 -20 -20 -20 -20 -20
-19 -2 -3 -20 -20 -20 -20 -9 -6 -20 -20 -20 -20 -20 -7 -10 7 15 8 -1 8 14 -2 7 -9 -20 -20 -20 -20 -20 -20 -20 -20 -20 -20 -20 -20 -20 -20 -20 -20 -20 -9
-5 -6 -20 -20 -20 -20 -20 -20 -20 -20 -20 -20 -20 -20 -20 -20 -20 -18 -8 -1 -12 -20 -20 -20 -20 -20 -20 -16 -15 -20 -20 -20 -20 -20 -20 -20 -20 -20 -20 -20 -20 -20 -20
-20 -20 -20 -20 -20 -20 -20 -20 -20 -20 -20 -20 -20 -20 -20 -20 -20 -20 -20 -20 -20 -20 -20 -20 -20 -20 -20 -20 -20 -20 -20 -20 -20 -20 -20 -20 -20 -20 -20 -20 -20 -20 -20
-20 -20 -20 -20 -20 -20 -20 -20 -20 -20 -20 -20 -20 -20 -20 -20 -20 -20 -20 -20 -20 -20 -20 -20 -20 -20 -20 -20 -20 -20 -20 -20 -20 -20 -20 -20 -20 -20 -20 -20 -20 -20 -20
-20 -20 -20 -20 -20 -20 -20 -20 -20 -20 -20 -20 -20 -20 -20 -20 -20 -20 -20 -20 -20 -20 -20 -20 -20 -20 -20 -20 -20 -20 -20 -20 -20 -20 -20 -20 -20 -20 -20 -20 -16 -20 -20
-20 -20 -20 -20 -20 -20 -20 -20 -20 -20 -20 -20 -20 -20 -20 -20 -20 -20 -20 -20 -20 -20 -20 -20 -20 -20 -20 -20 -20 -20 -20 -20 -20 -20 -20 -20 -20 -20 -20 -20 -20 -20 -20
-20 -20 -20 -20 -20 -20 -20 -20 -20 -20 -20 -20 -20 -20 -20 -20 -20 -20 -20 -20 -20 -20 -20 -20 -20 -20 -20 -20 -20 -20 -20 -20 -20 -20 -20 -20 -20 -20 -20 -20 -20 -8 -1
-20 -20 -20 -20 -20 -20 -20 -20 -20 -20 -20 -20 -20 -20 -20 -20 -20 -20 -20 -20 -20 -20 -20 -20 -20 -20 -20 -20 -20 -20 -19 -20 -20 -20 -20 -20 -20 -20 -19 -20 -20 -20 -20
-20 -20 -20 -20 -20 -20 -20 -20 -20 -20 -20 -20 -20 -20 -20 -20 -20 -20 -20 -20 -20 -20 -20 -20 -20 -20 -20 -20 -20 -20 -20 -20 -20 -20 -20 -20 -20 -16 -17 -20 -19 -20 -20
-20 -20 -20 -20 -20 -20 -20 -20 -20 -20 -20 -20 -20 -20 -20 -20 -20 -20 -20 -20 -20 -20 -20 -20 -20 -20 -20 -20 -20 -20 -20 -20 -20 -20 -20 -20 -20 -20 -20 -18 -20 -2 -10
-20 -20 -20 -20 -20 -20 -20 -20 -20 -20 -20 -20 -20 -20 -20 -20 -20 -20 -20 -20 -20 -20 -20 -20 -20 -20 -20 -20 -20 -20 -20 -20 -20 -20 -20 -20 -20 -17 -20 -20 -20 -20 -20
-20 -20 -20 -20 -20 -20 -20 -20 -20 -20 -20 -20 -20 -20 -20 -20 -20 -20 -20 -20 -20 -20 -20 -20 -20 -20 -20 -20 -20 -20 -20 -20 -20 -20 -20 -20 -20 -20 -20 -20 -20 -20 -20
-20 -20 -20 -20 -20 -20 -20 -20 -20 -20 -20 -20 -20 -20 -20 -20 -20 -20 -20 -20 -20 -20 -20 -20 -20 -20 -20 -20 -20 -20 -20 -20 -20 -20 -20 -20 -20 -20 -20 -20 -20 -20 -20
-20 -20 -20 -20 -20 -20 -20 -20 -20 -20 -20 -20 -20 -20 -20 -20 -20 -20 -20 -20 -20 -20 -20 -20 -20 -20 -20 -20 -20 -20 -20 -20 -20 -20 -20 -20 -20 -20 -20 -20 -20 -20 -20
-20 -20 -20 -20 -20 -20 -20 -20 -20 -20 -20 -20 -20 -20 -20 -20 -20 -20 -20 -20 -20 -20 -20 -20 -20 -20 -20 -20 -20 -20 -20 -20 -20 -20 -16 -15 -20 -20 -20 -20 -20 -20 -20
-20 -20 -20 -20 -20 -20 -20 -20 -20 -20 -20 -20 -20 -20 -20 -20 -20 -20 -20 -20 -20 -20 -20 -20 -20 -20 -20 -20 -20 -20 -20 -20 -1 -1 2 -19 -20 -19 -14 -8 -14 -18 -19
-20 -20 -20 -20 -20 -20 -20 -20 -20 -20 -20 -20 -20 -20 -20 -20 -20 -20 -20 -20 -20 -20 -20 -20 -20 -20 -20 -20 -20 -20 -20 -10 -1 -1 1 2 -11 -17 -19 -8 -6 -2 -3

GFSGL_prec_radar_042.txt.gz
Reflectivity
-20 -20 -20 -20 -20 -20 -20 -20 -20 -20 -20 -20 -20 -20 -20 -20 6 6 19 11 -6 7 17 14 26 18 17 20 17 14 12 17 18 33 42 40 36 29 24 11 12 5 -7
-20 -20 -20 -20 -20 -20 -20 -20 -20 -20 -20 -20 -20 -20 -20 -20 4 -16 -20 -20 -20 -17 12 12 10 8 18 17 16 19 14 17 26 27 34 27 30 34 27 30 5 2 -6
-20 -20 -20 -20 -20 -20 -20 -20 -20 -20 -20 -20 -20 -20 -20 -20 -17 -20 -20 -5 4 14 10 6 11 12 13 15 15 19 23 29 23 18 29 24 33 25 29 15 3 -16 -20
-20 -20 -20 -20 -20 -20 -20 -20 -20 -20 -20 -20 -20 -20 -20 -20 -20 -20 -20 -20 -19 -20 -4 -11 -1 11 14 7 20 20 22 19 19 9 1 17 16 29 3 -20 -20 -20 -20
-20 -20 -20 -20 -20 -20 -20 -20 -20 -20 -20 -20 -20 -20 -20 -20 -20 -20 -20 -20 -20 -20 -20 -11 -20 18 17 13 -5 0 16 7 17 25 4 -17 -20 -20 -20 -20 -20 -20 -19
-20 -20 -20 -20 -20 -20 -20 -20 -20 -20 -20 -20 -20 -20 -20 -20 -20 -5 -20 -20 -20 -20 -16 20 22 25 23 12 15 19 17 14 -9 -20 -20 -20 -19 -20 -20 -20 -20 -20 -20
-20 -20 -20 -20 -20 -20 -20 -20 -20 -20 -20 -20 -20 -20 -20 -2 4 0 -20 -16 -14 -4 12 23 23 23 18 5 9 8 20 14 -10 -20 -20 -20 -20 -20 -20 -20 -20 -20 -20
-20 -20 -20 -20 -20 -20 -20 -20 -20 -20 -20 -20 -20 -20 -20 6 7 1 -20 -20 -20 14 22 20 12 14 21 28 17 3 7 -2 -19 -20 -20 -20 -20 -20 -20 -20 -20 -20 -20
-16 -20 -20 -20 -20 -20 -20 -20 -20 -20 -20 -20 -20 -20 -20 -17 4 -20 -20 -20 -20 -20 -18 -10 -8 -15 -12 -16 -20 -20 -20 -20 -20 -20 -20 -20 -20 -20 -20 -20 -20 -20 -20
-20 -19 -20 -20 -20 -20 -20 -20 -20 -20 -20 -20 -20 -20 -20 -20 -20 -20 -20 -20 -20 -19 -11 -20 -20 -20 -20 -20 -20 -20 -20 -20 -20 -20 -20 -20 -20 -20 -20 -20 -20 -20 -20
-20 -20 -20 -20 -20 -20 -20 -20 -20 -20 -20 -20 -20 -20 -20 -20 -20 -20 -20 -20 -20 -20 -20 -20 -20 -20 -20 -20 -20 -20 -20 -20 -20 -20 -20 -20 -20 -20 -20 -20 -20 -20 -20
-20 -20 -20 -20 -20 -20 -20 -20 -20 -20 -20 -20 -20 -20 -20 -20 -20 -20 -20 -20 -20 -20 -20 -20 -20 -20 -20 -20 -20 -20 -20 -20 -20 -20 -20 -20 -20 -20 -20 -20 -20 -20 -20
-20 -20 -20 -20 -20 -20 -20 -20 -20 -20 -20 -20 -20 -20 -20 -20 -20 -20 -20 -20 -20 -20 -20 -20 -20 -20 -20 -20 -20 -20 -20 -20 -20 -20 -20 -20 -20 -20 -20 -20 -20 -20 -20
-20 -20 -20 -20 -20 -20 -20 -20 -20 -20 -20 -20 -20 -20 -20 -20 -20 -20 -20 -20 -20 -20 -20 -20 -20 -20 -20 -20 -20 -20 -20 -20 -20 -20 -20 -20 -20 -20 -20 -20 -20 -20 -20
-20 -20 -20 -20 -20 -20 -20 -20 -20 -20 -20 -20 -20 -20 -20 -20 -20 -20 -20 -20 -20 -20 -20 -20 -20 -20 -20 -20 -20 -20 -20 -20 -20 -20 -20 -20 -20 -20 -20 -20 -20 -20 -12
-20 -20 -20 -20 -20 -20 -20 -20 -20 -20 -20 -20 -20 -20 -20 -20 -20 -20 -20 -20 -20 -20 -20 -20 -20 -20 -20 -20 -20 -20 -20 -20 -20 -20 -20 -20 -20 -20 -20 -20 -20 -20 -20
-20 -20 -20 -20 -20 -20 -20 -20 -20 -20 -20 -20 -20 -20 -20 -20 -20 -20 -20 -20 -20 -20 -20 -20 -20 -20 -20 -20 -20 -20 -20 -20 -20 -20 -20 -20 -20 -20 -17 -20 -20 -20 -20
-20 -20 -20 -20 -20 -20 -20 -20 -20 -20 -20 -20 -20 -20 -20 -20 -20 -20 -20 -20 -20 -20 -20 -20 -20 -20 -20 -20 -20 -20 -20 -20 -20 -20 -20 -20 -20 -20 -20 -20 -20 -20 -20
-20 -20 -20 -20 -20 -20 -20 -20 -20 -20 -20 -20 -20 -20 -20 -20 -20 -20 -20 -20 -20 -20 -20 -20 -20 -20 -20 -20 -20 -20 -20 -20 -20 -20 -20 -20 -20 -20 -20 -20 -20 -12 -10
-20 -20 -20 -20 -20 -20 -20 -20 -20 -20 -20 -20 -20 -20 -20 -20 -20 -20 -20 -20 -20 -20 -20 -20 -20 -20 -20 -20 -20 -20 -20 -20 -20 -20 -20 -20 -20 -20 -20 -20 -20 -20 -20
-19 -20 -20 -20 -20 -20 -20 -20 -20 -20 -20 -20 -20 -20 -20 -20 -20 -20 -20 -20 -20 -20 -20 -20 -20 -20 -20 -20 -20 -20 -20 -20 -20 -20 -20 -20 -20 -20 -20 -20 -20 -20 -20
-20 -20 -20 -20 -20 -20 -20 -20 -20 -20 -20 -20 -20 -20 -20 -20 -20 -20 -20 -20 -20 -20 -20 -20 -20 -20 -20 -20 -20 -20 -20 -20 -20 -20 -20 -20 -20 -20 -6 2 -15 -20 -20
-20 -20 -20 -20 -20 -20 -20 -20 -20 -20 -20 -20 -20 -20 -20 -20 -20 -20 -20 -20 -20 -20 -20 -20 -20 -20 -20 -20 -20 -20 -20 -20 -20 -20 -20 -20 -20 -20 -20 -20 -20 -20 -20
5 -12 -20 -20 -20 -20 -20 -20 -20 -20 -20 -20 -20 -20 -20 -20 -20 -20 -20 -20 -20 -20 -20 -20 -20 -20 -20 -20 -20 -20 -20 -20 -20 -20 -20 -20 -20 -20 -20 -20 -20 -20 -20
-17 -20 -20 -20 -20 -20 -20 -20 -20 -20 -20 -20 -20 -20 -20 -20 -20 -20 -20 -20 -20 -20 -20 -20 -20 -20 -20 -20 -20 -20 -20 -20 4 -2 -4 -20 -20 -20 -20 -20 -20 -20 -20
6 2 -20 -20 -20 -20 -20 -20 -20 -20 -20 -20 -20 -20 -20 -20 -20 -20 -20 -20 -20 -20 -20 -20 -20 -20 -20 -20 -20 -20 -19 -16 -9 1 8 11 2 -12 -18 -16 -19 -17 -13

GFSGL_prec_radar_045.txt.gz
Reflectivity
-20 -20 -20 -20 -20 -20 -20 -20 -20 -20 -20 -20 -20 -20 -20 -20 -20 -20 -20 -20 -20 -20 -17 -17 4 13 9 0 -4 27 38 26 19 4 17 20 19 25 34 35 24 29 13
-20 -20 -20 -20 -20 -20 -20 -20 -20 -20 -20 -20 -20 -20 -20 -20 -20 -20 2 -20 -20 -20 -20 -20 -20 -17 -20 -20 -20 -9 23 34 13 19 21 25 10 15 9 30 35 16 21
-20 -20 -20 -20 -20 -20 -20 -20 -20 -20 -20 -20 -20 -20 -20 -20 -20 -20 -20 -20 -20 -20 2 1 -19 -20 -17 -14 2 10 18 20 28 16 24 15 38 40 24 14 4 1 10
-20 -20 -20 -20 -20 -20 -20 -20 -20 -20 -20 -20 -20 -20 -20 -20 -20 -20 -20 -20 -20 -20 -20 -2 -4 -20 -20 -20 -4 13 -18 9 19 17 31 34 6 2 7 2 -9 -9 -13
-20 -20 -20 -20 -20 -20 -20 -20 -20 -20 -20 -20 -20 -20 -20 -20 -20 -20 -20 -20 -20 -20 -20 -20 -20 1 -4 -7 -0 25 28 -4 15 11 12 -3 4 1 -16 3 -4 -20 -19
-20 -20 -20 -20 -20 -20 -20 -20 -20 -20 -20 -20 -20 -20 -20 -20 -20 -20 -20 -20 -20 -20 -20 -20 -20 -12 4 16 36 24 15 13 -6 -7 -16 -15 -15 -20 -16 -20 -20 -20 -20
-20 -20 -20 -20 -20 -20 -20 -20 -20 -14 -20 -20 -20 -20 -20 -20 10 -15 -20 -20 -20 -20 -20 -20 -12 -6 13 20 23 11 10 12 -4 -12 -15 -3 -4 -20 -17 -20 -20 -20 -20
-20 -20 -20 -20 -20 -20 -20 -20 -20 -20 -20 -20 -20 -20 -20 1 6 -13 -20 -20 -20 -20 -20 -20 -20 -19 -20 -18 -14 -9 4 0 -18 -20 -20 -20 -20 -20 -20 -20 -20 -20 -20
-20 -20 -20 -20 -20 -20 -20 -20 -20 -20 -20 -20 -20 -20 -20 -20 -20 -20 -20 -20 -20 -20 -20 -20 -20 -20 -20 -20 -20 -20 -20 -20 -20 -20 -20 -20 -20 -20 -20 -20 -20 -20 -20
-20 -20 -20 -20 -20 -20 -20 -20 -20 -20 -20 -20 -20 -20 -20 -20 -20 -20 -20 -20 -20 -20 -20 -20 -20 -20 -20 -20 -20 -20 -20 -20 -20 -20 -20 -20 -20 -20 -20 -20 -20 -20 -20
-20 -20 -20 -20 -20 -20 -20 -20 -20 -20 -20 -20 -20 -20 -20 -20 -20 -20 -20 -20 -20 -20 -20 -20 -20 -20 -20 -20 -20 -20 -20 -20 -20 -20 -20 -20 -20 -20 -20 -20 -20 -20 -20
-20 -20 -20 -20 -20 -20 -20 -20 -20 -20 -20 -20 -20 -20 -20 -20 -20 -20 -20 -20 -20 -20 -20 -20 -20 -20 -20 -20 -20 -20 -20 -20 -20 -20 -20 -20 -20 -20 -20 -20 -20 -20 -20
-20 -20 -20 -20 -20 -20 -20 -20 -20 -20 -20 -20 -20 -20 -20 -20 -20 -20 -20 -20 -20 -20 -20 -20 -20 -20 -20 -20 -20 -20 -20 -20 -20 -20 -20 -20 -20 -20 -20 -20 -20 -20 -20
-20 -20 -20 -20 -20 -20 -20 -20 -20 -20 -20 -20 -20 -20 -20 -20 -20 -20 -20 -20 -20 -20 -20 -20 -20 -20 -20 -20 -20 -20 -20 -20 -20 -20 -20 -20 -20 -20 -20 -20 -20 -20 -20
-20 -20 -20 -20 -20 -20 -20 -20 -20 -20 -20 -20 -20 -20 -20 -20 -20 -20 -20 -20 -20 -20 -20 -20 -20 -20 -20 -20 -20 -20 -20 -20 -20 -20 -20 -20 -20 -20 -20 -20 -20 -20 -20
-20 -20 -20 -20 -20 -20 -20 -20 -20 -20 -20 -20 -20 -20 -20 -20 -20 -20 -20 -20 -20 -20 -20 -20 -20 -20 -20 -20 -20 -20 -20 -20 -20 -20 -20 -20 -20 -20 -20 -20 -20 -20 -20
-20 -20 -20 -20 -20 -20 -20 -20 -20 -20 -20 -20 -20 -20 -20 -20 -20 -20 -20 -20 -20 -20 -20 -20 -20 -20 -20 -20 -20 -20 -20 -20 -20 -20 -20 -20 -20 -20 -19 -20 -20 -20 -20
-20 -20 -20 -20 -20 -20 -20 -20 -20 -20 -20 -20 -20 -20 -20 -20 -20 -20 -20 -20 -20 -20 -20 -20 -20 -20 -20 -20 -20 -20 -20 -20 -20 -20 -20 -20 -20 -20 -20 -20 -20 -20 -20
-10 -20 -20 -20 -20 -20 -20 -20 -20 -20 -20 -20 -20 -20 -20 -20 -20 -20 -20 -20 -20 -20 -20 -20 -20 -20 -20 -20 -20 -20 -20 -20 -20 -20 -20 -20 -20 -20 -20 -20 -20 -16 -11
-14 11 -19 -20 -20 -20 -20 -20 -20 -20 -20 -20 -20 -20 -20 -20 -20 -20 -20 -20 -20 -20 -20 -20 -20 -20 -20 -20 -20 -20 -20 -20 -20 -20 -20 -20 -20 -20 -20 -20 -20 -20 -20
-16 6 7 -19 -20 -20 -20 -20 -20 -20 -20 -20 -20 -20 -20 -20 -20 -20 -20 -20 -20 -20 -20 -20 -20 -20 -20 -20 -20 -20 -20 -20 -20 -20 -20 -20 -20 -20 -20 -20 -20 -20 -20
-20 6 0 -20 -17 -15 -20 -20 -20 -20 -20 -20 -20 -20 -20 -20 -20 -20 -20 -20 -20 -20 -20 -20 -20 -20 -20 -20 -20 -20 -20 -20 -20 -20 -20 -20 -20 -20 -20 -20 -20 -20 -20
-9 2 -3 -14 -7 -13 -20 -20 -20 -20 -20 -20 -20 -20 -20 -20 -20 -20 -20 -20 -20 -20 -20 -20 -20 -20 -20 -20 -20 -20 -20 -20 -20 -20 -20 -20 -20 -20 -20 -20 -20 -20 -20
-2 -3 0 5 8 2 -19 -20 -20 -20 -20 -20 -20 -20 -20 -20 -20 -20 -20 -20 -20 -20 -20 -20 -20 -20 -20 -20 -20 -20 -20 -20 -20 -20 -20 -20 -20 -20 -20 -20 -20 -20 -20
-3 10 12 9 7 4 2 -20 -20 -20 -20 -20 -20 -20 -20 -20 -20 -20 -20 -20 -20 -20 -20 -20 -20 -20 -20 -20 -20 -20 -20 -20 -20 -19 -11 -20 -20 -20 -20 -20 -20 -20 -20
12 15 16 10 11 3 -9 -20 -20 -20 -20 -20 -20 -20 -20 -20 -20 -20 -20 -20 -20 -20 -20 -20 -20 -20 -20 -20 -20 -20 -19 -7 -13 2 3 7 -4 -14 -10 -2 -13 -16 -16

GFSGL_prec_radar_048.txt.gz
Reflectivity
-20 -20 -20 -20 -20 -20 -20 -20 -20 -20 -20 -20 -20 -20 -20 -20 -20 -20 -20 -20 -20 -20 -20 -20 -20 -4 -13 -20 -5 -16 -16 -2 12 9 -11 10 26 21 22 21 25 28 31
-20 -20 -20 -20 -20 -20 -20 -20 -20 -20 -20 -20 -20 -20 -20 -20 -20 -20 -20 -20 -20 -20 4 -20 -20 -20 -20 6 4 10 3 11 -10 8 20 24 36 25 28 14 32 28 29
-20 -20 -20 -20 -20 -20 -20 -20 -20 -20 -20 -20 -20 -20 -20 -20 -20 -20 -20 -20 -20 -20 -20 -20 -13 2 -19 6 3 10 4 -20 -6 23 24 5 29 28 33 34 25 35 20
-20 -20 -20 -20 -20 -20 -20 -20 -20 -20 -20 -20 -20 -20 -20 -20 -20 -20 -20 -20 -20 -20 -20 -20 -20 -20 -20 -18 -15 -19 -7 -15 9 2 -4 13 23 23 33 27 25 22 21
-20 -20 -20 -20 -20 -20 -20 -20 -20 -20 -20 -20 -20 -20 -20 -20 -20 -20 -20 -20 -20 -20 -20 -20 -20 -20 -6 1 -20 -20 -17 -19 21 32 22 14 2 4 5 19 1 7 9
-0 -20 -20 -20 -20 -20 -20 -20 -20 -20 -20 -20 -20 -20 -20 -20 15 11 -20 -20 -20 -20 -20 -20 -20 -20 -4 11 3 2 2 2 -20 -20 -11 -20 -13 -13 -14 -6 -14 -20 -20
-20 -20 -20 -19 -20 -20 -20 -10 -10 -20 -20 -20 -20 -20 -20 -20 2 1 -2 -20 -20 -20 -20 -20 -20 -20 -20 -20 -15 -19 -10 0 8 -20 -20 -20 -20 -20 -20 -20 -20 -20 -20
-20 -20 -20 -20 -20 -20 -20 -20 -20 -20 -20 -20 -20 -20 -20 -14 -13 -20 -20 -20 -20 -20 -20 -20 -20 -20 -20 -20 -20 -20 -20 -20 -20 -20 -20 -20 -20 -20 -20 -20 -20 -20 -20
-20 -20 -20 -20 -20 -20 -20 -20 -20 -20 -20 -20 -20 -20 -20 -20 -20 -20 -20 -20 -20 -20 -20 -20 -20 -20 -20 -20 -20 -20 -20 -20 -20 -20 -20 -20 -20 -20 -20 -20 -20 -20 -20
-20 -1 -1 -20 -20 -20 -20 -13 -20 -20 -20 -20 -20 -20 -20 -20 -20 -20 -20 -20 -20 -20 -20 -20 -20 -20 -20 -20 -20 -20 -20 -20 -20 -20 -20 -20 -20 -20 -20 -20 -20 -20 -20
-20 -20 -20 -20 -20 -20 -20 -20 -20 -20 -20 -20 -20 -20 -20 -20 -20 -20 -20 -20 -20 -20 -20 -20 -20 -20 -20 -20 -20 -20 -20 -20 -20 -20 -20 -20 -20 -20 -20 -20 -20 -20 -20
-20 -20 -20 -20 -20 -20 -20 -20 -20 -20 -20 -20 -20 -20 -20 -20 -20 -20 -20 -20 -20 -20 -20 -20 -20 -20 -20 -20 -20 -20 -20 -20 -20 -20 -20 -20 -20 -20 -20 -20 -20 -20 -20
-20 -20 -20 -20 -20 -20 -20 -20 -20 -20 -20 -20 -20 -20 -20 -20 -20 -20 -20 -20 -20 -20 -20 -20 -20 -20 -20 -20 -20 -20 -20 -20 -20 -20 -20 -20 -20 -20 -20 -20 -20 -20 -20
-20 -20 -20 -20 -20 -20 -20 -20 -20 -20 -20 -20 -20 -20 -20 -20 -20 -20 -20 -20 -20 -20 -20 -20 -20 -20 -20 -20 -20 -20 -20 -20 -20 -20 -20 -20 -20 -20 -20 -20 -20 -20 -20
-20 -20 -20 -20 -20 -20 -20 -20 -20 -20 -20 -20 -20 -20 -20 -20 -20 -20 -20 -20 -20 -20 -20 -20 -20 -20 -20 -20 -20 -20 -20 -20 -20 -20 -20 -20 -20 -20 -20 -20 -20 -20 -20
-20 -20 -20 -20 -20 -20 -20 -20 -20 -20 -20 -20 -20 -20 -20 -20 -20 -20 -20 -20 -20 -20 -20 -20 -20 -20 -20 -20 -20 -20 -20 -20 -20 -20 -20 -20 -20 -20 -20 -20 -20 -20 -20
-20 -20 -20 -20 -20 -20 -20 -20 -20 -20 -20 -20 -20 -20 -20 -20 -20 -20 -20 -20 -20 -20 -20 -20 -20 -20 -20 -20 -20 -20 -20 -20 -20 -20 -20 -20 -20 -20 -20 -20 -20 -20 -20
-20 -20 -20 -20 -20 -20 -20 -20 -20 -20 -20 -20 -20 -20 -20 -20 -20 -20 -20 -20 -20 -20 -20 -20 -20 -20 -20 -20 -20 -20 -20 -20 -20 -20 -20 -20 -20 -20 -20 -20 -20 -20 -20
-16 -8 -20 -20 -20 -20 -20 -20 -20 -20 -20 -20 -20 -20 -20 -20 -20 -20 -20 -20 -20 -20 -20 -20 -20 -20 -20 -20 -20 -20 -20 -20 -20 -20 -20 -20 -20 -20 -20 -20 -20 -20 -20
-12 -3 -4 -19 -20 -20 -20 -20 -20 -20 -20 -20 -20 -20 -20 -20 -20 -20 -20 -20 -20 -20 -20 -20 -20 -20 -20 -20 -20 -20 -20 -20 -20 -20 -20 -20 -20 -20 -20 -20 -20 -20 -20
27 21 14 -8 -20 -12 -20 -20 -20 -20 -20 -20 -20 -20 -20 -20 -20 -20 -20 -20 -20 -20 -20 -20 -20 -20 -20 -20 -20 -20 -20 -20 -20 -20 -20 -20 -20 -20 -20 -20 -20 -20 -20
25 19 -15 -8 -14 -13 -17 -20 -20 -20 -20 -20 -20 -20 -20 -20 -20 -20 -20 -20 -20 -20 -20 -20 -20 -20 -20 -20 -20 -20 -20 -20 -20 -20 -20 -20 -20 -20 -20 -20 -20 -20 -20
-2 9 1 -5 2 8 -4 -18 -20 -20 -20 -20 -20 -20 -20 -20 -20 -20 -20 -20 -20 -20 -20 -20 -20 -20 -20 -20 -20 -20 -20 -20 -20 -20 -20 -20 -20 -20 -20 -20 -20 -20 -20
6 3 7 3 10 8 6 -3 -20 -20 -20 -20 -20 -20 -20 -20 -20 -20 -20 -20 -20 -20 -20 -20 -20 -20 -20 -20 -20 -20 -20 -20 -20 -20 -20 -20 -20 -20 -20 -20 -20 -20 -20
-13 14 15 9 11 11 10 4 4 -18 -20 -20 -20 -20 -20 -20 -20 -20 -20 -20 -20 -20 -20 -20 -20 -20 -20 -20 -20 -20 -20 -20 -20 -20 -19 -19 -20 -20 -20 -20 -20 -20 -20
18 17 7 12 13 7 15 12 -15 -20 -20 -20 -20 -20 -20 -20 -20 -20 -20 -20 -20 -20 -20 -20 -20 -20 -20 -20 -20 -20 -20 -10 -14 2 6 5 -5 -10 -13 -15 -18 -16 -18

GFSGL_prec_radar_051.txt.gz
Reflectivity
-20 -20 -20 -20 -20 -20 -20 -20 -20 -20 -20 -20 -20 -20 -20 -20 -20 -20 -20 -20 -20 -20 -20 -20 11 5 -9 9 14 -2 -20 -12 -13 -10 -16 -13 -20 -20 7 -3 16 27 31
-20 -20 -20 -20 -20 -20 -20 -20 -20 -20 -20 -20 -20 -20 -20 -20 -20 -20 -20 -20 -20 -20 -20 -1 -20 -20 -20 -19 1 -6 16 -9 2 16 -16 -20 -6 -3 19 18 37 28 23
-20 -20 -20 -20 -20 -20 -20 -20 -20 -20 -20 -20 -20 -20 -20 -20 -20 -20 -20 -20 -20 -20 -20 -20 -20 -20 -20 -18 -16 5 -3 1 -18 -14 -19 -20 -3 -5 15 22 16 30 28
-20 -20 -20 -20 -20 -20 -20 -20 -20 -20 -20 -20 -20 -20 -20 -20 -20 -20 -20 -20 -20 -20 -20 -20 -20 -20 -20 -20 -20 -20 -20 -20 -20 -20 -20 21 -5 -5 4 -11 -1 15 11
-20 -20 -20 -20 -20 -20 -20 -20 -20 -20 -20 -20 -20 -20 -20 -20 -20 -20 -20 -20 -20 -20 -20 -20 -20 -0 12 -0 -19 -20 -20 -20 -20 -20 -20 -20 -9 -16 -20 -6 -8 -8 -4
-18 -0 -20 -20 -20 -20 -20 -20 -20 -20 -20 -20 -20 -20 -20 4 14 10 3 -20 -20 -20 -20 -20 -20 -10 6 11 14 17 -4 -20 -20 -20 -20 -20 -20 -20 -20 -20 -20 -20 -20
-20 -20 -20 -20 -20 -20 -20 -20 -20 -20 -20 -20 -20 -20 -20 -19 10 4 -12 -20 -20 -20 -20 -20 -20 -20 -20 -20 -20 -20 -20 -19 3 -20 -20 -20 -20 -20 -20 -20 -20 -20 -20
-20 -20 -20 -20 -20 -20 -17 -10 -20 -20 -20 -20 -20 -20 -20 -20 -20 -20 -20 -20 -20 -20 -20 -20 -20 -20 -20 -20 -20 -20 -20 -20 -20 -20 -20 -20 -20 -20 -20 -20 -20 -20 -20
-20 -20 -20 -20 -20 -20 -20 -20 -20 -20 -20 -20 -20 -20 -20 -20 -20 -20 -20 -20 -20 -20 -20 -20 -20 -20 -20 -20 -20 -20 -20 -20 -20 -20 -20 -20 -20 -20 -20 -20 -20 -20 -20
-20 -20 -20 -20 -20 -20 -20 -20 -20 -20 -20 -20 -20 -20 -20 -20 -20 -20 -20 -20 -20 -20 -20 -20 -20 -20 -20 -20 -20 -20 -20 -20 -20 -20 -20 -20 -20 -20 -20 -20 -20 -20 -20
-20 -20 -20 -20 -20 -20 -8 -20 -20 -20 -20 -20 -20 -20 -20 -20 -20 -20 -20 -20 -20 -20 -20 -20 -20 -20 -20 -20 -20 -20 -20 -20 -20 -20 -20 -20 -20 -20 -20 -20 -20 -20 -20
-20 -20 -20 -20 -20 -20 -20 -20 -20 -20 -20 -20 -20 -20 -20 -20 -20 -20 -20 -20 -20 -20 -20 -20 -20 -20 -20 -20 -20 -20 -20 -20 -20 -20 -20 -20 -20 -20 -20 -20 -20 -20 -20
-20 -20 -20 -20 -20 -20 -20 -20 -20 -20 -20 -20 -20 -20 -20 -20 -20 -20 -20 -20 -20 -20 -20 -20 -20 -20 -20 -20 -20 -20 -20 -20 -20 -20 -20 -20 -20 -20 -20 -20 -20 -20 -20
-20 -20 -20 -20 -20 -20 -20 -20 -20 -20 -20 -20 -20 -20 -20 -20 -20 -20 -20 -20 -20 -20 -20 -20 -20 -20 -20 -20 -20 -20 -20 -20 -20 -20 -20 -20 -20 -20 -20 -20 -20 -20 -20
-20 -20 -20 -20 -20 -20 -20 -20 -20 -20 -20 -20 -20 -20 -20 -20 -20 -20 -20 -20 -20 -20 -20 -20 -20 -20 -20 -20 -20 -20 -20 -20 -20 -20 -20 -20 -20 -20 -20 -20 -20 -20 -13
-20 -20 -20 -20 -20 -20 -20 -20 -20 -20 -20 -20 -20 -20 -20 -20 -20 -20 -20 -20 -20 -20 -20 -20 -20 -20 -20 -20 -20 -20 -20 -20 -20 -20 -20 -20 -20 -20 -20 -20 -19 -20 -20
-20 -20 -20 -20 -20 -20 -20 -20 -20 -20 -20 -20 -20 -20 -20 -20 -20 -20 -20 -20 -20 -20 -20 -20 -20 -20 -20 -20 -20 -20 -20 -20 -20 -20 -20 -20 -20 -20 -19 -20 -20 -20 -20
-20 -20 -20 -20 -20 -20 -20 -20 -20 -20 -20 -20 -20 -20 -20 -20 -20 -20 -20 -20 -20 -20 -20 -20 -20 -20 -20 -20 -20 -20 -20 -20 -20 -20 -20 -20 -20 -20 -20 -20 -20 -20 -20
15 -12 -13 -19 -20 -18 -20 -20 -20 -20 -20 -20 -20 -20 -20 -20 -20 -20 -20 -20 -20 -20 -20 -20 -20 -20 -20 -20 -20 -20 -20 -20 -20 -20 -20 -20 -20 -20 -20 -20 -20 -20 -20
10 13 -11 -20 -19 -6 -20 -20 -20 -20 -20 -20 -20 -20 -20 -20 -20 -20 -20 -20 -20 -20 -20 -20 -20 -20 -20 -20 -20 -20 -20 -20 -20 -20 -20 -20 -20 -20 -20 -20 -20 -20 -20
-2 22 31 27 -1 -6 -20 -20 -20 -20 -20 -20 -20 -20 -20 -20 -20 -20 -20 -20 -20 -20 -20 -20 -20 -20 -20 -20 -20 -20 -20 -20 -20 -20 -20 -20 -20 -20 -20 -20 -20 -20 -20
-14 -4 20 21 22 16 10 3 -20 -20 -20 -20 -20 -20 -20 -20 -20 -20 -20 -20 -20 -20 -20 -20 -20 -20 -20 -20 -20 -20 -20 -20 -20 -20 -20 -20 -20 -20 -20 -20 -20 -20 -20
13 2 8 12 15 15 17 -13 -20 -11 -12 -20 -20 -20 -20 -20 -20 -20 -20 -20 -20 -20 -14 -15 -20 -20 -20 -20 -20 -20 -20 -20 -20 -20 -20 -20 -20 -20 -20 -20 -20 -20 -20
-20 -20 -15 3 7 4 18 -9 1 -16 -20 -14 -9 -20 -20 -20 -20 -20 -20 -20 -20 -20 -20 -20 -20 -20 -20 -20 -20 -20 -20 -20 -20 -20 -20 -20 -20 -20 -20 -20 -20 -20 -20
-17 -16 1 -8 2 12 8 -13 -14 -17 6 5 -3 -20 -12 -15 -20 -20 -20 -20 -20 -20 -20 -20 -20 -20 -20 -20 -20 -20 -20 -20 -20 -19 -19 -20 -20 -20 -20 -20 -20 -20 -20
-19 -9 5 4 -2 -11 -20 -17 -1 13 10 -9 -20 -5 5 -13 -20 -20 -20 -20 -20 -20 -20 -20 -20 -20 -20 -20 -20 -20 -20 -20 -17 -4 2 7 6 -12 -18 -11 -18 -15 -15

GFSGL_prec_radar_054.txt.gz
Reflectivity
-20 -20 -20 -20 -20 -20 -20 -20 -20 -20 -20 -20 -20 -20 -20 -20 -20 -20 -20 -20 -20 -19 -20 -20 -20 -10 -19 -20 -20 -20 5 -15 -20 -20 -20 -20 -20 -20 -20 -20 -20 -20 -2
-20 -20 -20 -20 -20 -20 -20 -20 -20 -20 -20 -20 -20 -20 -20 -20 -20 -20 -20 -20 -20 -20 -20 -20 -20 -20 -20 -20 -20 -5 -20 -20 -20 -4 -20 -20 -20 -13 -20 -20 -20 -11 -8
-20 -20 -20 -20 -20 -20 -20 -20 -20 -20 -20 -20 -20 -20 -20 -20 -20 -20 -20 -20 -20 -20 -20 -20 -20 -20 -20 -20 -20 -20 -20 -20 -20 -20 -20 -20 -20 -20 -20 -20 -16 -20 -19
-20 -20 -20 -20 -20 -20 -20 -20 -20 -20 -20 -20 -20 -20 -20 -20 -20 -20 -20 -20 -20 -20 -20 -20 -20 -20 -20 -20 -20 -20 -20 -20 -20 -20 -20 -20 -20 -20 -20 -20 -20 -20 -20
-20 -20 -20 -20 -20 -20 -20 -20 -20 -20 -20 -20 -20 -20 -20 -20 -20 -20 -20 -20 -20 -20 -20 -20 -20 -0 11 -5 -20 -20 -20 -20 -20 -20 -20 -20 -20 -20 -20 -20 -20 -20 -20
-18 -20 -20 -20 -20 -20 -20 -20 -20 -20 -20 -20 -20 -5 -20 -20 10 14 4 -20 -20 -20 -20 -20 -20 -16 -20 -5 -20 0 -10 -20 -20 -20 -20 -20 -20 -20 -20 -20 -20 -20 -20
-20 -20 -20 -20 -20 -20 -20 -20 -20 -20 -20 -20 -20 -18 -17 -10 13 9 -16 -20 -20 -20 -20 -20 -20 -20 -20 -20 -20 -20 -20 -20 -20 -20 -20 -20 -20 -20 -20 -20 -20 -20 -20
-20 -20 -20 -20 -20 -20 -20 -20 -20 -20 -20 -20 -20 -20 -20 -20 -16 -20 -20 -20 -20 -20 -20 -20 -20 -20 -20 -20 -20 -20 -20 -20 -20 -20 -20 -20 -20 -20 -20 -20 -20 -20 -20
-20 -20 -20 -20 -20 -20 -20 -20 -20 -20 -20 -20 -20 -20 -20 -20 -20 -20 -20 -20 -20 -20 -20 -20 -20 -20 -20 -20 -20 -20 -20 -20 -20 -20 -20 -20 -20 -20 -20 -20 -20 -20 -20
-20 -20 -20 -20 -20 -20 -20 -20 -20 -20 -20 -20 -20 -20 -20 -20 -20 -20 -20 -20 -20 -20 -20 -20 -20 -20 -20 -20 -20 -20 -20 -20 -20 -20 -20 -20 -20 -20 -20 -20 -20 -20 -20
-20 -20 -20 -20 -20 -20 -20 -17 -20 -20 -20 -20 -20 -20 -20 -20 -20 -20 -20 -20 -20 -20 -20 -20 -20 -20 -20 -20 -20 -20 -20 -20 -20 -20 -20 -20 -20 -20 -20 -20 -20 -20 -20
-20 -20 -20 -20 -20 -20 -20 -20 -20 -20 -20 -20 -20 -20 -20 -20 -20 -20 -20 -20 -20 -20 -20 -20 -20 -20 -20 -20 -20 -20 -20 -20 -20 -20 -20 -20 -20 -20 -20 -20 -20 -20 -20
-20 -20 -20 -20 -20 -20 -20 -20 -20 -20 -20 -20 -20 -20 -20 -20 -20 -20 -20 -20 -20 -20 -20 -20 -20 -20 -20 -20 -20 -20 -20 -20 -20 -20 -20 -20 -20 -20 -20 -20 -20 -20 -20
-20 -20 -20 -20 -16 -20 -20 -20 -20 -20 -20 -20 -20 -20 -20 -20 -20 -20 -20 -20 -20 -20 -20 -20 -20 -20 -20 -20 -20 -20 -20 -20 -20 -20 -20 -20 -20 -20 -20 -20 -20 -20 -20
-20 -20 -20 -20 -16 -20 -20 -20 -20 -20 -20 -20 -20 -20 -20 -20 -20 -20 -20 -20 -20 -20 -20 -20 -20 -20 -20 -20 -20 -20 -20 -20 -20 -20 -20 -20 -20 -20 -20 -20 -20 -20 -20
-20 -20 -20 -20 -20 -20 -20 -20 -20 -20 -20 -20 -20 -20 -20 -20 -20 -20 -20 -20 -20 -20 -20 -20 -20 -20 -20 -20 -20 -20 -20 -20 -20 -20 -20 -20 -20 -20 -20 -20 -13 -20 -20
-20 -20 -20 -20 -20 -20 -20 -20 -20 -20 -20 -20 -20 -20 -20 -20 -20 -20 -20 -20 -20 -20 -20 -20 -20 -20 -20 -20 -20 -20 -20 -20 -20 -20 -20 -20 -20 -20 -20 -20 -20 -20 -20
-14 -20 -20 -20 -20 -20 -20 -20 -20 -20 -20 -20 -20 -20 -20 -20 -20 -20 -20 -20 -20 -20 -20 -20 -20 -20 -20 -20 -20 -20 -20 -20 -20 -20 -20 -20 -20 -20 -20 -20 -20 -20 -20
2 12 2 -14 -20 -20 -20 -20 -20 -20 -20 -20 -20 -20 -20 -20 -20 -20 -20 -20 -20 -20 -20 -20 -20 -20 -20 -20 -20 -20 -20 -20 -20 -20 -20 -20 -20 -20 -20 -20 -20 -20 -20
-18 19 15 9 -8 -20 -20 -20 -20 -20 -20 -20 -20 -20 -20 -20 -20 -20 -20 -20 -20 -20 -20 -20 -20 -20 -20 -20 -20 -20 -20 -20 -20 -20 -20 -20 -20 -20 -20 -20 -20 -20 -20
-20 -18 8 16 17 23 7 4 1 4 -8 -8 -20 -20 -20 -20 -20 -20 -20 -20 -20 -20 -20 -20 -20 -20 -20 -20 -20 -20 -20 -20 -20 -20 -20 -20 -20 -20 -20 -20 -20 -20 -20
-20 -17 -19 -19 0 16 9 16 19 14 4 -6 10 -19 -20 -20 -20 -20 -20 -20 -20 -20 -20 -20 -20 -20 -20 -20 -20 -20 -20 -20 -20 -20 -20 -20 -20 -20 -20 -20 -20 -20 -20
-20 -20 -20 1 10 19 12 11 13 15 15 7 4 -6 -20 -20 -20 -20 -20 -20 -20 -20 -20 -20 -20 -20 -20 -20 -20 -20 -20 -20 -20 -20 -20 -20 -20 -20 -20 -20 -20 -20 -20
-20 -20 -19 -19 -16 -5 6 -1 4 17 16 6 -3 -11 5 -9 -20 -20 -20 -20 -16 -4 -20 -20 -20 -20 -20 -20 -20 -20 -20 -20 -20 -20 -20 -20 -20 -20 -20 -20 -20 -20 -20
-20 -18 -16 -18 -15 -3 -0 10 12 8 7 10 10 12 7 -20 -20 -20 -20 -20 -20 -20 -20 -20 -20 -20 -20 -20 -20 -20 -20 -20 -19 -13 -18 -20 -20 -20 -20 -20 -20 -20 -20
-20 -20 -16 -2 -11 -6 -5 7 11 13 14 15 16 7 -18 -20 -6 -7 -20 -20 -20 -20 -20 -20 -20 -20 -20 -20 -20 -20 -20 -20 -7 10 -4 2 2 -5 -16 -15 -17 -15 -18

GFSGL_prec_radar_057.txt.gz
Reflectivity
-20 -20 -20 -20 -20 -20 -20 -20 -20 -20 -20 -20 -20 -20 -20 -20 -20 -20 -20 -20 -20 -20 -20 -20 -20 -20 -20 -20 -19 -20 -20 -20 -20 -20 -20 -20 -20 -20 -6 -13 -20 -20 -12
-20 -20 -20 -20 -20 -20 -20 -20 -20 -20 -20 -20 -20 -20 -20 -20 -20 -20 -20 -20 -20 -20 -20 -20 -20 -20 -20 -20 -20 -20 -20 -20 -20 -20 -20 -20 -20 -20 -20 -20 -20 -20 -20
-20 -20 -20 -20 -20 -20 -20 -20 -20 -20 -20 -20 -20 -20 -20 -20 -20 -20 -20 -20 -20 -20 -20 -20 -20 -20 -20 -20 -20 -20 -20 -20 -20 -20 -20 -20 -20 -20 -17 -20 -20 -20 -20
-20 -20 -20 -20 -20 -20 -20 -20 -20 -20 -20 -20 -20 -20 -20 -20 -20 -20 -20 -20 -20 -20 -20 -20 -20 -20 -20 -20 -20 -20 -20 -20 -20 -20 -20 -20 -18 -20 -16 -17 -20 -20 -20
-20 -20 -20 -20 -20 -20 -20 -20 -20 -20 -20 -20 -20 -20 -20 -20 -20 -20 -20 -20 -20 -20 -20 -20 -20 -8 -4 -5 -20 -20 -20 -20 -20 -20 -20 -20 -20 -20 -20 -20 -20 -20 -20
-20 -20 -20 -20 -20 -20 -20 -20 -20 -20 -20 -20 -20 -20 -20 -20 15 7 -20 -20 -20 -20 -20 -20 -20 -7 -5 11 10 6 -18 -20 -20 -20 -20 -20 -20 -20 -20 -20 -20 -20 -20
-20 -20 -20 -20 -20 -20 -20 -18 -14 -8 -17 -20 -20 -20 -20 -4 11 -3 -20 -20 -20 -20 -20 -20 -20 -20 -20 -20 -20 -20 -20 -20 -20 -20 -20 -20 -20 -20 -20 -20 -20 -20 -20
-20 -20 -20 -20 -20 -20 -20 -20 -20 -20 -20 -20 -20 -20 -20 -20 -11 -20 -20 -20 -20 -20 -20 -20 -20 -20 -20 -20 -20 -20 -20 -20 -20 -20 -20 -20 -20 -20 -20 -20 -20 -20 -20
-20 -20 -20 -20 -20 -20 -19 -19 -20 -20 -20 -20 -20 -20 -20 -20 -20 -20 -20 -20 -20 -20 -20 -20 -20 -20 -20 -20 -20 -20 -20 -20 -20 -20 -20 -20 -20 -20 -20 -20 -20 -20 -20
-20 -20 -20 -20 -20 -20 -20 -20 -20 -20 -20 -20 -20 -20 -20 -20 -20 -20 -20 -20 -20 -20 -20 -20 -20 -20 -20 -20 -20 -20 -20 -20 -20 -20 -20 -20 -20 -20 -20 -20 -20 -20 -20
-20 -20 -20 -20 -20 -20 -20 -20 -20 -20 -20 -20 -20 -20 -20 -20 -20 -20 -20 -20 -20 -20 -20 -20 -20 -20 -20 -20 -20 -20 -20 -20 -20 -20 -20 -20 -20 -20 -20 -20 -20 -20 -20
-20 -20 -20 -20 -20 -20 -20 -20 -19 -20 -20 -20 -20 -20 -20 -20 -20 -20 -20 -20 -20 -20 -20 -20 -20 -20 -20 -20 -20 -20 -20 -20 -20 -20 -20 -20 -20 -20 -20 -20 -20 -20 -20
-20 -20 -20 -20 -20 -20 -20 -20 -20 -20 -20 -20 -20 -20 -20 -20 -20 -20 -20 -20 -20 -20 -20 -20 -20 -20 -20 -20 -20 -20 -20 -20 -20 -20 -20 -20 -20 -20 -20 -20 -20 -20 -20
-20 -20 -20 -20 -17 -20 -20 -20 -20 -20 -20 -20 -20 -20 -20 -20 -20 -20 -20 -20 -20 -20 -20 -20 -20 -20 -20 -20 -20 -20 -20 -20 -20 -20 -20 -20 -20 -20 -20 -20 -20 -20 -20
-16 -20 -20 -20 -18 -20 -20 -20 -20 -20 -20 -20 -20 -20 -20 -20 -20 -20 -20 -20 -20 -20 -20 -20 -20 -20 -20 -20 -20 -20 -20 -20 -20 -20 -20 -20 -20 -20 -20 -20 -20 -20 -20
-10 -14 -12 -20 -20 -20 -20 -20 -20 -20 -20 -20 -20 -20 -20 -20 -20 -20 -20 -20 -20 -20 -20 -20 -20 -20 -20 -20 -20 -20 -20 -20 -20 -20 -20 -20 -20 -20 -20 -20 -20 -16 -20
19 -20 -20 -20 -20 -20 -20 -20 -20 -20 -20 -20 -20 -20 -20 -20 -20 -20 -20 -20 -20 -20 -20 -20 -20 -20 -20 -20 -20 -20 -20 -20 -20 -20 -20 -20 -20 -20 -20 -20 -20 -20 -20
31 10 -20 -13 -20 -15 -14 -20 -20 -20 -20 -20 -20 -20 -20 -20 -20 -20 -20 -20 -20 -20 -20 -20 -20 -20 -20 -20 -20 -20 -20 -20 -20 -20 -20 -20 -20 -20 -20 -20 -20 -20 -20
1 11 1 11 -13 -20 -19 -20 -20 -20 -20 -20 -20 -20 -20 -20 -20 -20 -20 -20 -20 -20 -20 -20 -20 -20 -20 -20 -20 -20 -20 -20 -20 -20 -20 -20 -20 -20 -20 -20 -20 -20 -20
-20 -20 -3 2 13 21 12 -16 -19 -19 -18 -20 -20 -20 -20 -20 -20 -20 -20 -20 -20 -20 -20 -20 -20 -20 -20 -20 -20 -20 -20 -20 -20 -20 -20 -20 -20 -20 -20 -20 -20 -20 -20
-20 -20 -19 -7 -3 -4 7 5 4 9 14 11 2 5 -18 -20 4 -8 -20 -20 -20 -20 -20 -20 -20 -20 -20 -20 -20 -20 -20 -20 -20 -20 -20 -20 -20 -20 -20 -20 -20 -20 -20
-20 -20 -19 -20 -15 -16 -13 1 2 4 2 -1 4 7 -4 -20 9 -5 -20 -20 -20 -20 -20 -20 -20 -20 -20 -20 -20 -20 -20 -20 -20 -20 -20 -20 -20 -20 -20 -20 -20 -20 -20
-20 -20 -20 -15 -8 10 3 -10 -10 -18 -15 -16 5 8 -16 -20 -4 -15 -8 -20 -20 -20 -20 -20 -20 -20 -20 -20 -20 -20 -20 -20 -20 -20 -20 -20 -20 -20 -20 -20 -20 -20 -20
-20 -20 -20 -15 -10 -16 -9 1 -16 -9 5 6 6 2 -7 -8 -12 12 2 -20 -6 -12 -20 -20 -20 -20 -20 -20 -20 -20 -20 -20 -20 -20 -20 -20 -20 -20 -20 -20 -20 -20 -20
-20 -20 -20 -20 -20 -9 -8 -3 -17 -17 7 0 -2 7 3 3 10 6 -3 -8 -2 3 -20 -20 -20 -20 -20 -20 -20 -20 -20 -20 -19 -18 -20 -20 -20 -20 -20 -20 -20 -20 -20
-20 -20 -20 -13 -20 -19 -16 -16 -17 -11 -3 -14 -15 -3 -0 3 4 5 -5 1 -12 -17 -20 -20 -20 -20 -20 -20 -20 -20 -20 -20 -17 3 2 -2 -3 -11 -12 -20 -20 -20 -20

GFSGL_prec_radar_060.txt.gz
Reflectivity
-20 -20 -20 -20 -20 -20 -20 -20 -20 -20 -20 -20 -20 -20 -20 -20 -20 -20 -20 -20 -18 -20 -20 -20 -20 -20 -20 -20 -20 -20 -20 -20 -20 -20 -8 -20 -20 -20 -20 -20 -9 -20 -20
-20 -20 -20 -20 -20 -20 -20 -20 -20 -20 -20 -20 -20 -20 -20 -20 -20 -20 -20 -20 -20 -20 -20 -20 -20 -20 -20 -20 -20 -20 -20 -20 -20 -5 -20 -20 -20 -20 -20 -20 -20 -20 -20
-20 -20 -20 -20 -20 -20 -20 -20 -20 -20 -20 -20 -20 -20 -20 -20 -20 -20 -20 -20 -20 -20 -20 -20 -20 -20 -20 -20 -20 -20 -20 -20 -20 -20 -9 -20 -20 -20 -19 -20 -20 -20 -20
-19 -18 -20 -20 -20 -20 -20 -20 -20 -20 -20 -20 -20 -20 -20 -20 -20 -20 -20 -20 -20 -20 -20 -20 -20 -20 -20 -20 -20 -20 -20 -20 -20 -20 -20 -20 -20 -20 -20 -20 -20 -20 -20
-20 -20 -20 -20 -20 -20 -20 -20 -20 -20 -20 -20 -20 -20 -20 -20 -20 -20 -20 -20 -20 -20 -20 -20 -20 -17 -15 -20 -20 -20 -20 -20 -20 -20 -20 -20 -20 -20 -20 -20 -20 -20 -20
-20 -20 -20 -20 -20 -20 -20 -20 -20 -20 -20 -20 -20 -20 -20 -20 11 5 -1 -17 -20 -20 -20 -20 -20 -6 -20 4 -20 -20 -20 -20 -20 -20 -20 -20 -20 -20 -20 -20 -20 -20 -20
-20 -20 -20 -20 -20 -20 -20 -20 -20 -20 -20 -20 -20 -12 -5 -2 9 -16 -20 -20 -20 -20 -20 -20 -20 -20 -20 -20 -20 -20 -20 -20 -20 -20 -20 -20 -20 -20 -20 -20 -20 -20 -20
-20 -20 -20 -20 -20 -20 -20 -20 -20 -20 -20 -20 -20 -16 -20 -14 -1 -20 -20 -20 -20 -20 -20 -20 -20 -20 -20 -20 -20 -20 -20 -20 -20 -20 -20 -20 -20 -20 -20 -20 -20 -20 -20
-20 -20 -20 -20 -20 -20 -20 -20 -20 -20 -20 -20 -20 -20 -20 -20 -20 -20 -20 -20 -20 -20 -20 -20 -20 -20 -20 -20 -20 -20 -20 -20 -20 -20 -20 -20 -20 -20 -20 -20 -20 -20 -20
-20 -20 -20 -20 -20 -20 -20 -20 -20 -20 -20 -16 -17 -20 -20 -20 -20 -20 -20 -20 -20 -20 -20 -20 -20 -20 -20 -20 -20 -20 -20 -20 -20 -20 -20 -20 -20 -20 -20 -20 -20 -20 -20
-20 -20 -20 -20 -20 -20 -20 -20 -20 -20 -20 -20 -20 -20 -20 -20 -20 -20 -20 -20 -20 -20 -20 -20 -20 -20 -20 -20 -20 -20 -20 -20 -20 -20 -20 -20 -20 -20 -20 -20 -20 -20 -20
-20 -20 -20 -20 -20 -20 -20 -20 -20 -20 -20 -20 -20 -20 -20 -20 -20 -20 -20 -20 -20 -20 -20 -20 -20 -20 -20 -20 -20 -20 -20 -20 -20 -20 -20 -20 -20 -20 -20 -20 -20 -20 -20
-20 20 19 -20 -20 -20 -20 -20 -20 -20 -20 -20 -20 -20 -20 -20 -20 -20 -20 -20 -20 -20 -20 -20 -20 -20 -20 -20 -20 -20 -20 -20 -20 -20 -20 -20 -20 -20 -20 -20 -20 -20 -20
3 -15 -20 -19 -19 -19 -20 -20 -20 -20 -20 -20 -20 -20 -20 -20 -20 -20 -20 -20 -20 -20 -20 -20 -20 -20 -20 -20 -20 -20 -20 -20 -20 -20 -20 -20 -20 -20 -20 -20 -20 -20 -17
-0 7 5 -12 -20 -20 -20 -20 -20 -20 -20 -20 -20 -20 -20 -20 -20 -20 -20 -20 -20 -20 -20 -20 -20 -20 -20 -20 -20 -20 -20 -20 -20 -20 -20 -20 -20 -20 -20 -20 -20 -20 -20
23 19 6 -2 -15 -19 -20 -19 -20 -20 -20 -20 -20 -20 -20 -20 -20 -20 -20 -20 -20 -20 -20 -20 -20 -20 -20 -20 -20 -20 -20 -20 -20 -20 -20 -20 -20 -20 -20 -20 -20 -20 -20
12 12 28 10 -20 -20 -20 -20 -20 -20 -20 -20 -20 -20 -20 -20 -20 -20 -20 -20 -20 -20 -20 -20 -20 -20 -20 -20 -20 -20 -20 -20 -20 -20 -20 -20 -20 -20 -20 -20 -20 -20 -20
17 27 19 34 7 -20 -19 -20 -20 -19 -20 -20 -20 -20 -20 -20 -20 -20 -20 -20 -20 -20 -20 -20 -20 -20 -20 -20 -20 -20 -20 -20 -20 -20 -20 -20 -20 -20 -20 -20 -20 -20 -20
-2 14 29 33 24 -17 -17 -0 9 9 11 9 1 -1 5 -3 7 4 -17 -20 -20 -20 -20 -20 -20 -20 -20 -20 -20 -20 -20 -20 -20 -20 -20 -20 -20 -20 -20 -20 -20 -20 -20
-20 7 15 9 11 17 7 -3 -13 -18 -17 -7 2 12 14 10 10 9 -12 -20 -20 -20 -20 -20 -20 -20 -20 -20 -20 -20 -20 -20 -20 -20 -20 -20 -20 -20 -20 -20 -20 -20 -20
-20 -20 -16 -10 -8 -7 -10 -15 -12 2 3 -5 -19 4 -14 -20 -20 -13 -20 -8 2 -20 -20 -20 -20 -20 -20 -20 -20 -20 -20 -20 -20 -20 -20 -20 -20 -20 -20 -20 -20 -20 -20
-20 -20 -20 -20 -18 -11 -12 -10 -5 -9 -15 -6 -2 -2 16 -8 -20 -7 -19 5 5 -7 4 -20 -20 -20 -20 -20 -20 -20 -20 -20 -20 -20 -20 -20 -20 -20 -20 -20 -20 -20 -19
-20 -20 -20 -15 -19 13 8 -7 -2 1 -19 -20 -17 -16 5 7 -16 -17 -13 -11 -14 5 -20 -13 -7 -20 -20 -20 -20 -20 -20 -20 -20 -20 -20 -20 -20 -20 -20 -20 -20 -20 -15
-20 -20 1 9 6 -4 -15 -8 -13 -5 -14 -14 -17 -17 -2 3 -9 -17 -1 -2 -1 -18 -2 3 -20 -20 -20 -20 -20 -20 -20 -20 -20 -20 -20 -20 -20 -20 -20 -20 -20 -20 -20
-20 -20 -20 -13 -20 -20 -17 -11 -12 -19 -15 -17 -20 -19 -16 1 4 -4 7 2 -9 5 -4 -10 -20 -20 -20 -20 -20 -20 -20 -20 -20 -20 -20 -20 -20 -20 -20 -20 -20 -20 -20
-20 -20 -20 -20 -20 -20 -20 -20 -19 -20 -20 -16 -17 -17 -16 -8 3 11 10 8 -2 7 5 -20 -20 -20 -20 -20 -20 -20 -20 -20 -17 -3 2 -3 -16 -19 -18 -19 -20 -19 -20

GFSGL_prec_radar_063.txt.gz
Reflectivity
-20 -20 -20 -20 -20 -20 -20 -20 -20 -20 -20 -20 -20 -20 -20 -20 -20 -20 -20 -20 -20 -20 -13 2 -6 -20 -20 -20 -20 -20 -20 -20 -20 -20 -20 -20 -20 -20 -20 -20 -12 -16 -4
-20 -20 -20 -20 -20 -20 -20 -20 -20 -20 -20 -20 -20 -20 -20 -20 -20 -20 -20 -20 -20 -20 -20 -20 -20 -20 -20 -20 -20 -20 -20 -20 -20 -20 -20 -20 -20 -20 -20 -20 -20 -20 -20
-19 -20 -20 -20 -20 -20 -20 -20 -20 -20 -20 -20 -20 -20 -20 -20 -20 -20 -20 -20 -20 -20 -20 -20 -20 -20 -20 -20 -20 -20 -20 -20 -20 -20 -20 -20 -20 -20 -20 -20 -20 -20 -20
-20 -4 -8 -20 -20 -20 -20 -20 -20 -20 -20 -20 -20 -20 -20 -20 -20 -20 -20 -20 -20 -20 -20 -20 -20 -20 -20 -20 -20 -20 -20 -20 -20 -20 -20 -20 -20 -20 -20 -20 -20 -20 -20
-20 -20 -20 -17 -20 -20 -20 -20 -20 -20 -20 -20 -20 -20 -20 -20 -20 -20 -20 -20 -20 -20 -20 -20 -20 -20 -20 -20 -20 -20 -20 -20 -2 -16 -14 -20 -20 -20 -20 -20 -20 -20 -20
-20 -20 -20 -20 -20 -20 -20 -20 -20 -20 -20 -20 -20 -20 -20 -20 -20 6 7 -20 -20 -20 -20 -20 -20 -20 -20 -20 -20 -20 -20 -20 -20 -20 8 -20 -20 -20 -20 -20 -20 -20 -20
-20 -20 -20 -20 -20 -20 -20 -20 -20 -20 -20 -20 -20 -20 -20 -20 10 8 9 -20 -20 -20 -20 -20 -20 -20 -20 -20 -20 -20 -20 -20 -20 -20 -20 -20 -20 -20 -20 -20 -20 -20 -20
-20 -20 -20 -20 -20 -20 -20 -20 -20 -20 -20 -20 -20 -20 -20 -18 12 -20 -20 -20 -20 -19 -20 -20 -20 -20 -20 -20 -20 -20 -20 -20 -20 -20 -20 -20 -20 -20 -20 -20 -20 -20 -20
-20 -20 -20 -20 -20 -20 -20 -20 -20 -20 -20 -20 -20 -20 -20 -20 -20 -20 -20 -20 -20 -20 -20 -20 -20 -20 -20 -20 -20 -20 -20 -20 -20 -20 -20 -20 -20 -20 -20 -20 -20 -20 -20
-20 -20 -20 -20 -20 -20 -20 -20 -20 -20 -20 -20 -20 -20 -20 -20 -20 -20 -20 -20 -20 -20 -20 -20 -20 -20 -20 -20 -20 -20 -20 -20 -20 -20 -20 -20 -20 -20 -20 -20 -20 -20 -20
-20 -20 -20 -20 -20 -20 -20 -20 -20 -20 -20 -20 -20 -20 -20 -20 -20 -20 -20 -20 -20 -20 -20 -20 -20 -20 -20 -20 -20 -20 -20 -20 -20 -20 -20 -20 -20 -20 -20 -20 -20 -20 -20
-20 -20 -20 -20 -20 -20 -20 -20 -20 -20 -20 -20 -20 -20 -20 -20 -20 -20 -20 -20 -20 -20 -20 -20 -20 -20 -20 -20 -20 -20 -20 -20 -20 -20 -20 -20 -20 -20 -20 -20 -20 -20 -20
-20 -20 -20 -20 -20 -20 -1 -17 -20 -20 -20 -20 -20 -20 -20 -20 -20 -20 -20 -20 -20 -20 -20 -20 -20 -20 -20 -20 -20 -20 -20 -20 -20 -20 -20 -20 -20 -20 -20 -20 -20 -20 -20
-20 -20 -20 -20 -16 12 -4 -18 -20 -18 -20 -20 -20 -20 -20 -20 -20 -20 -20 -20 -20 -20 -20 -20 -20 -20 -20 -20 -20 -20 -20 -20 -20 -20 -20 -20 -20 -20 -20 -20 -20 -20 -20
-12 -18 -20 -16 -20 -20 -11 -20 -20 -20 -20 -20 -20 -20 -20 -20 -20 -20 -20 -20 -20 -20 -20 -20 -20 -20 -20 -20 -20 -20 -20 -20 -20 -20 -20 -20 -20 -20 -20 -20 -20 -20 -20
24 23 -5 4 29 16 1 -18 -12 -20 -20 -20 -20 -20 -20 -20 -20 -20 -20 -20 -20 -20 -20 -20 -20 -20 -20 -20 -20 -20 -20 -20 -20 -20 -20 -20 -20 -20 -20 -20 -20 -20 -20
18 21 15 22 17 24 3 -20 -20 -20 -19 -20 -20 -20 -20 -20 -20 -20 -20 -20 -20 -20 -20 -20 -20 -20 -20 -20 -20 -20 -20 -20 -20 -20 -20 -20 -20 -20 -20 -20 -20 -20 -20
-13 19 7 26 24 18 27 7 -20 -20 -20 -20 -20 -20 -20 -20 -20 -20 -18 -20 -13 -19 -20 -20 -20 -20 -20 -20 -20 -20 -20 -20 -20 -20 -20 -20 -20 -20 -20 -20 -20 -20 -20
-20 -6 4 12 20 22 17 30 8 -16 1 9 6 2 14 13 6 3 -5 -17 4 -11 -14 -20 -20 -20 -20 -20 -20 -20 -20 -20 -20 -20 -20 -20 -20 -20 -20 -20 -20 -20 -20
-20 -14 9 6 17 21 24 26 12 2 2 -4 -3 12 11 -12 -20 -19 -19 -20 -20 -19 -20 -20 -20 -20 -20 -20 -20 -20 -20 -20 -20 -20 -20 -20 -20 -20 -20 -20 -20 -20 -20
-20 -20 -2 3 2 -0 1 -3 -5 -16 -19 -7 -9 -6 0 -17 -19 -20 -20 0 -6 -19 -3 8 -20 -17 -3 -20 -20 -20 -20 -20 -20 -20 -20 -20 -20 -20 -20 -20 -20 -20 -20
-20 -20 -20 -20 -16 -1 1 -0 4 -4 -6 -11 -12 -2 19 -2 -17 -19 -20 -20 -19 -20 -19 -20 -20 -6 0 -2 7 -20 -19 -20 -20 -20 -20 -20 -20 -20 -20 -20 -20 -10 -20
-20 -20 -20 -16 -10 16 13 2 -4 -17 -20 -20 -12 -7 -3 -4 -15 -16 -20 -10 -3 -18 -17 -17 -18 -15 -3 9 -18 1 -15 -20 -20 -20 -20 -20 -20 -20 -20 -20 -20 -20 -20
-20 -17 -7 -9 7 16 17 12 4 9 5 -10 -15 -15 -14 -17 -9 -4 -12 -20 -2 -7 -15 -18 -7 9 3 -7 9 -16 -15 -4 -17 -20 -20 -20 -20 -20 -20 -20 -20 -20 -20
-20 -20 -9 -1 10 15 10 12 1 -10 -19 -20 -19 -20 -20 -15 -15 -16 -11 -17 -3 3 -13 1 3 -10 -1 2 -1 -0 -11 -20 -20 -20 -20 -20 -20 -20 -20 -20 -20 -20 -20
-20 -20 -20 -20 -20 -15 -9 -15 -5 -1 -9 1 -20 -20 -20 -17 -16 -15 -15 -14 -13 -1 10 5 1 8 2 2 3 -19 -20 -20 -20 -20 -15 -18 -19 -19 -20 -20 -20 -20 -20

GFSGL_prec_radar_066.txt.gz
Reflectivity
-20 -16 -20 -20 -14 -15 -15 -20 -13 -20 -20 -20 -20 -20 -20 -20 -20 -20 -20 -20 -20 -20 -20 -5 -5 -9 -17 -19 -19 -20 -20 -20 -20 -20 -18 -20 -20 -20 -20 -20 -12 -18 -9
-20 -20 -20 -18 -20 -20 -20 -20 -20 -20 -20 -20 -20 -20 -20 -20 -20 -20 -20 -20 -20 -20 -20 -20 -20 -20 -20 -20 -20 -20 -20 -20 -20 -20 -20 -20 -20 -20 -20 -20 -20 -20 -20
-20 -20 -20 -20 -20 -20 -20 -20 -20 -20 -20 -20 -20 -20 -20 -20 -20 -20 -20 -20 -20 -20 -20 -20 -20 -20 -20 -20 -20 -20 -20 -20 -20 -20 -20 -20 -20 -20 -20 -20 -20 -20 -20
-20 -20 -20 -20 -20 -20 -20 -20 -20 -20 -20 -20 -20 -20 -20 -20 -20 -20 -20 -20 -20 -20 -20 -20 -20 -20 -20 -20 -20 -20 -20 -20 -20 -20 -20 -20 -20 -20 -20 -20 -20 -20 -20
-20 -20 -20 -20 -20 -20 -20 -20 -20 -20 -20 -20 -20 -20 -20 -20 -20 -20 -20 -20 -20 -20 -20 -20 -20 -20 -14 -20 -20 -20 -20 -20 -20 -20 -20 -20 -20 -20 -20 -20 -20 -20 -20
-20 -20 -20 -20 -20 -20 -20 -20 -20 -20 -20 -20 -20 -20 -20 -20 9 4 -8 -20 -20 -20 -20 -20 -20 -20 -20 -20 -20 -20 -20 -20 -20 -20 -20 -20 -20 -20 -20 -20 -20 -20 -20
-20 -20 -20 -20 -20 -20 -20 -20 -20 -20 -20 -20 -20 -20 -20 -20 8 6 7 -20 -20 -20 -20 -20 -20 -20 -20 -20 -20 -20 -20 -20 -20 -20 -20 -20 -20 -20 -20 -20 -20 -20 -20
-20 -20 -20 -20 -20 -20 -20 -20 -20 -20 -20 -20 -20 -11 -17 -18 11 9 6 -20 -20 -20 -20 -17 -15 -20 -20 -20 -20 -20 -20 -20 -20 -20 -20 -20 -20 -20 -20 -20 -20 -20 -20
-20 -20 -20 -20 -20 -20 -20 -20 -20 -20 -20 -20 -20 -20 -20 -20 0 -20 -20 -20 -20 -20 -20 -20 -20 -20 -20 -20 -20 -20 -20 -20 -20 -20 -20 -20 -20 -20 -20 -20 -20 -20 -20
-20 -20 -20 -20 -20 -20 -20 -20 -20 -20 -20 -20 -18 0 11 -20 -20 -20 -20 -20 -20 -20 -20 -20 -20 -20 -20 -20 -20 -20 -20 -20 -20 -20 -20 -20 -20 -20 -20 -20 -20 -20 -20
-20 -20 -20 -20 -20 -20 -20 -20 -20 -20 -20 -20 -20 -16 -20 -20 -20 -20 -20 -20 -20 -20 -20 -20 -20 -20 -20 -20 -20 -20 -20 -20 -20 -20 -20 -20 -20 -20 -20 -20 -20 -20 -20
-20 -20 -20 -20 -20 -20 -20 -20 -20 -20 -20 -18 -20 -20 -20 -20 -20 -20 -20 -20 -20 -20 -20 -20 -20 -20 -20 -20 -20 -20 -20 -20 -20 -20 -20 -20 -20 -20 -20 -20 -20 -20 -20
-20 -20 -20 -20 -20 -20 -20 -20 -20 -20 -20 -19 -20 -20 -20 -20 -20 -20 -20 -20 -20 -20 -20 -20 -20 -20 -20 -20 -20 -20 -20 -20 -20 -20 -20 -20 -20 -20 -20 -20 -20 -20 -20
-20 -20 -20 -20 -16 -20 -20 -20 -20 -20 -5 -7 -20 -20 -20 -20 -20 -20 -20 -19 -20 -20 -20 -20 -20 -20 -20 -20 -20 -20 -20 -20 -20 -20 -20 -20 -20 -20 -20 -20 -20 -20 -20
-20 -20 -20 -20 -15 -20 -20 -20 -16 -20 -13 -12 -7 -20 -8 -20 -19 -9 -20 -20 -20 -20 -20 -20 -20 -20 -20 -20 -20 -20 -20 -20 -20 -20 -20 -20 -20 -20 -20 -20 -20 -20 -20
22 18 -14 -18 5 -4 -20 -20 -20 -14 2 3 -9 -20 -20 -20 -20 -20 -20 -20 -20 -20 -20 -20 -19 -1 -10 -20 -20 -10 4 -12 -20 -20 -20 -20 -20 -20 -20 -20 -20 -20 -20
-20 -20 -20 8 -15 -9 -20 -11 -14 7 -3 -20 -20 -20 -20 -20 -20 -20 -20 -20 -20 -15 2 0 1 -9 -11 3 -1 -3 -20 -20 -20 -20 -20 -20 -20 -20 -20 -20 -20 -20 -20
-20 11 -19 -20 -20 -3 -11 2 26 13 -3 -20 -15 -13 -20 -20 -20 -20 -20 -20 -7 -8 -2 -1 -20 -20 -19 -19 -11 -20 -20 -20 -20 -20 -20 -20 -20 -20 -20 -20 -20 -20 -20
-20 -20 -20 -20 -10 2 4 1 -16 -20 -3 17 -16 -20 -18 -11 -19 -20 -20 -20 -11 -15 -20 -20 -19 -20 -20 -20 -20 -20 -20 -20 -20 -20 -20 -20 -20 -20 -20 -20 -20 -20 -20
-20 -20 -7 -20 -16 -0 1 3 -0 2 11 6 -8 -8 -8 -20 -20 -20 -20 -20 -20 -17 -12 -19 -5 1 1 -8 -20 -13 -16 -20 -20 -20 -20 -20 -20 -20 -20 -20 -20 -20 -20
7 -2 -19 -17 -20 -20 -14 -7 7 17 9 -6 -14 -1 20 12 -17 -20 -20 -20 -20 -20 -18 -18 -20 -18 2 -9 -18 10 3 -7 12 -19 -20 -20 -20 -20 -20 -20 -20 -20 -20
-20 -20 -20 -20 -20 -20 -9 -7 -5 -2 -0 -5 -10 1 14 -12 -20 -20 -20 -20 -19 -15 -20 -17 -18 -19 -20 -17 -18 -17 -19 2 -11 2 2 -20 -20 -20 -20 -20 -20 -20 -20
-20 -20 -20 -20 -20 14 11 7 3 -2 -15 -17 -20 -20 -17 -1 -1 -14 -15 -11 -15 -17 1 -8 -20 -20 -18 -9 -16 -19 -20 -14 8 3 -8 -9 -20 -20 -20 -20 -20 -20 -20
-20 -13 -8 -7 -6 3 -9 -5 -8 15 5 -7 -16 -17 -17 -20 -19 -19 -18 -20 -15 -20 1 6 -17 -16 -3 -3 -10 -18 -4 5 -14 2 1 -20 -20 -20 -20 -20 -20 -20 -20
-20 -10 3 2 6 18 10 12 -5 -8 -12 -12 -13 -13 -13 -11 -8 -7 -20 -19 -20 -20 -18 -15 -17 -6 -4 -13 4 4 -3 -11 2 -2 -20 -20 -20 -20 -20 -20 -20 -20 -20
-17 -10 -17 -10 -7 -1 3 -5 -11 -15 -17 -18 -16 -15 -11 -19 -20 -20 -20 -20 -17 -17 -16 -16 -16 -9 2 -1 -9 6 10 7 -8 -20 -20 -20 -20 -20 -20 -20 -20 -20 -20

GFSGL_prec_radar_069.txt.gz
Reflectivity
-20 -20 -20 -15 -0 -20 -20 -20 -20 -20 -20 -20 -17 -17 -20 -20 -20 -20 -20 -20 -20 -20 -20 -20 -20 -20 -20 -20 -13 -10 15 -17 -4 -11 -11 -12 -20 -18 -19 -19 -14 -20 -17
-20 -20 -20 -20 -20 -20 -12 -20 -20 -20 -20 -20 -9 -20 -20 -20 -20 -20 -20 -20 -20 -20 -20 -20 -20 -20 -20 -20 -20 -20 -20 -20 -20 -20 -20 -20 -20 -20 -20 -20 -20 -20 -20
-20 -20 -20 -20 -20 -20 -20 -12 -20 -20 -20 -20 -20 -20 -20 -20 -20 -20 -20 -20 -20 -20 -20 -20 -20 -20 -20 -20 -20 -20 -20 -20 -20 -20 -20 -20 -20 -17 -20 -20 -20 -20 -20
-20 -20 -20 -20 -20 -20 -20 -20 -17 -20 -20 -20 -20 -20 -20 -20 -20 -20 -20 -20 -20 -20 -20 -20 -20 -20 -20 -20 -20 -20 -20 -20 -20 -20 -20 -20 -20 -20 -20 -20 -20 -20 -20
-20 -20 -20 -20 -20 -20 -20 -20 -20 -20 -20 -20 -20 -20 -20 -20 -20 -20 -20 -20 -20 -20 -20 -20 -20 -20 -20 -17 -20 -20 -20 -20 -20 -20 -20 -20 -20 -20 -20 -20 -20 -20 -20
-20 -20 -20 -20 -20 -20 -20 -20 -20 -20 -20 -20 -20 -20 -20 -20 6 5 4 -20 -20 -20 -20 -20 -20 5 -6 -3 -7 -20 -20 -20 -20 -20 -20 -20 -20 -20 -20 -20 -20 -20 -20
-20 -20 -20 -20 -20 -20 -20 -20 -20 -20 -20 -20 -20 -20 -20 -20 12 12 11 -20 -20 -20 -20 -20 -20 -20 -20 -20 -20 -20 -20 -20 -20 -20 -20 -20 -20 -20 -20 -20 -20 -20 -20
-20 -20 -20 -20 -20 -20 -20 -20 -20 -20 -20 -20 -20 -20 -20 -18 9 9 12 5 4 -14 -20 -20 -20 -20 -20 -14 -20 -20 -20 -20 -20 -20 -20 -20 -20 -20 -20 -20 -20 -20 -20
-20 -20 -20 -20 -20 -20 -20 -20 -20 -20 -20 -20 -20 -20 -20 -19 10 5 6 -20 -20 -20 -20 -20 -20 -20 -13 -10 -20 -20 -20 -20 -20 -20 -20 -20 -20 -20 -20 -20 -20 -20 -20
-20 -20 -20 -20 -20 -20 -20 -20 -20 -20 -20 -20 -20 -20 4 -16 3 -20 -20 -20 -20 -20 -20 -20 -20 -20 -2 -20 -20 -20 -20 -20 -20 -20 -20 -20 -20 -20 -20 -20 -20 -20 -20
-20 -20 -20 -20 -20 -20 -20 -20 -20 -20 -20 -20 -20 -7 2 -15 -20 -20 -20 -20 -20 -20 1 -18 -20 -20 -16 -20 -20 -20 -20 -20 -20 -20 -20 -20 -20 -20 -20 -20 -20 -20 -20
-20 -20 -20 -20 -20 -20 -20 -20 -20 -20 -20 -20 -20 -20 -20 -20 -20 -20 -20 -20 -20 -20 -20 -15 -15 -17 -20 -20 -20 -20 -20 -20 -20 -20 -20 -20 -20 -20 -20 -20 -20 -20 -20
-20 -20 -20 -20 -20 -20 -18 -20 -20 -20 -20 -20 -20 -20 -20 -20 -20 -20 -20 -20 -20 -20 -20 -20 -20 -20 -20 -20 -20 -20 -20 -20 -20 -20 -20 -20 -20 -20 -20 -20 -20 -20 -20
-20 -20 -20 -20 -20 -20 0 -20 -20 -20 -20 -20 -20 -20 -20 -20 -20 -20 -20 -20 -20 -20 -20 -20 -20 -20 -20 -20 -20 -20 -20 -20 -20 -20 -20 -20 -20 -20 -20 -20 -20 -20 -20
-20 -20 -20 -20 -20 -20 -10 -20 -20 -20 -20 -20 -20 -20 -20 -20 -20 -20 -20 -20 -20 -20 -15 -20 -20 -20 -20 -20 -20 -20 -20 -20 -20 -20 -8 -9 -20 -20 -20 -20 -20 -20 -20
-20 -20 -14 17 17 21 3 -3 26 10 7 9 10 4 -20 -20 -20 -20 -17 -12 -1 -1 -18 -14 -14 -13 -20 -15 -8 -10 -16 -8 -3 -2 -15 -20 -20 -20 -20 -20 -20 -20 -20
19 12 -17 7 -14 -20 -8 17 23 15 12 -9 3 2 -20 -20 -20 -20 -20 -20 -20 -20 -20 -20 -20 -20 -20 -8 -2 -12 -20 -20 -19 -11 -20 -20 -20 -20 -20 -20 -20 -20 -20
15 22 -17 -20 4 -16 -9 -6 2 23 7 -10 -12 -9 -20 -20 -20 -20 -19 -20 -16 -5 -20 -17 -20 -20 -20 -14 -20 -20 -20 -20 -20 -20 -20 -20 -20 -20 -20 -20 -20 -20 -20
10 -14 7 -20 -20 -10 -16 -1 0 0 12 7 -14 -7 -4 -20 -20 -20 -20 -20 -20 -20 -20 -20 -14 -15 -20 -20 -19 -20 -20 -20 -20 3 4 -20 -6 -20 -20 -20 -20 -20 -20
-4 19 26 -6 -20 -18 -20 -18 -5 15 11 -19 -20 -5 -13 -9 -20 -20 -20 -20 -20 -18 -18 -20 -17 -19 -19 -20 -20 -20 -20 -20 -1 -8 -20 8 9 -20 -20 -4 -20 -20 -20
-0 -15 25 21 -20 -20 -20 -20 -20 -3 19 15 20 26 17 -18 -20 -20 -20 -20 -20 -18 -20 -19 -18 -19 -19 -20 -20 -20 -20 -20 -20 -20 -20 -20 -20 -19 11 -12 -10 -20 -20
13 18 16 22 -12 -20 -20 -20 -18 -20 -10 -2 6 19 25 5 -17 -13 -16 -18 -18 -20 -20 -20 -20 -19 -4 -11 -19 -19 -18 -19 -20 -20 -20 -20 -9 2 -19 -20 -20 -20 -20
2 19 17 28 -6 15 2 -9 -13 -20 -20 -13 -5 -10 2 7 -11 -20 -20 -17 -17 -17 -16 -15 -16 -16 -16 -20 -20 -19 -20 -20 -20 -20 -20 -19 -19 -16 -6 -16 -20 -18 -20
-12 14 21 26 1 12 -3 -7 -9 18 10 -4 -15 -18 -20 -17 0 3 -5 -19 -20 -20 -18 -15 -17 -15 -20 -17 -18 -18 -19 -18 -20 -20 -20 -20 -9 0 -17 -5 -18 -20 -20
-1 7 22 27 24 23 14 14 8 6 6 -10 -9 7 3 -7 -18 -20 -20 -12 -12 -6 -19 -16 -18 -17 -16 -18 -20 -20 -20 -20 -20 -20 -20 -20 -17 -15 -20 -20 -20 -20 -20
-9 19 3 -9 7 15 11 7 -2 5 4 0 -8 -16 -19 -20 -20 -20 -20 -20 -20 -18 -20 -20 -20 -20 -20 -20 -20 -20 -20 -20 -20 -11 -20 -20 -20 -20 -20 -20 -20 -20 -20

GFSGL_prec_radar_072.txt.gz
Reflectivity
-20 -20 -20 -20 -20 -20 -20 -20 -20 -14 -20 -20 -20 -20 -20 -20 -20 -20 -20 -20 -20 -20 -20 -20 -20 -20 -20 -20 -20 -20 -20 -20 -20 -4 -7 16 20 14 -8 -17 -4 -20 -12
-20 -20 -20 -20 -20 -20 -20 -20 -20 -20 -20 -16 -20 -20 -20 -20 -20 -20 -20 -20 -20 -20 -20 -20 -20 -20 -20 -20 -20 -20 -20 -20 15 -3 16 -13 -20 -20 -20 -20 -20 -20 -20
-20 -20 -20 -20 -20 -20 -20 -20 -20 -20 -20 -20 -20 -20 -20 -20 -20 -20 -20 -20 -20 -20 -20 -20 -20 -20 -20 -20 -20 -20 -20 -20 -20 -20 -20 -20 -20 -4 -20 -20 -20 -20 -20
-20 -20 -20 -20 -20 -20 -20 -20 -20 -20 -20 -20 -20 -20 -20 -20 -20 -20 -20 -20 -20 -20 -20 -20 -20 -20 -20 -20 -20 -20 -20 -20 -20 -20 -20 -20 -20 -20 -20 -20 -20 -20 -20
-20 -20 -20 -20 -20 -20 -20 -20 -20 -20 -20 -20 -20 -20 -20 -20 -20 -20 -20 -20 -20 -20 -20 -20 -20 -19 -20 1 -20 -20 -19 -20 -20 -20 -20 -20 -20 -20 -20 -20 -20 -20 -20
-20 -20 -20 -20 -20 -20 -20 -20 -20 -20 -20 -20 -20 -20 -20 -20 -20 -4 4 -20 -20 -20 -20 -20 -15 6 4 -19 -20 9 5 -20 -20 -20 -20 -20 -20 -20 -20 -20 -20 -20 -20
-20 -20 -20 -20 -20 -20 -20 -20 -20 -20 -20 -20 -20 -20 -20 -20 -19 -2 7 -20 -20 -20 -6 1 3 -20 -20 -20 -20 -20 -20 -20 -20 -20 -20 -20 -20 -20 -20 -20 -20 -20 -20
-20 -20 -20 -20 -20 -20 -20 -20 -20 -20 -20 -20 -20 -20 -20 -20 -11 8 9 -20 -20 -20 0 9 -20 -20 -20 -20 -20 -20 -19 -20 -20 -20 -20 -20 -20 -20 -20 -20 -20 -20 -20
-20 -20 -20 -20 -20 -20 -20 -20 -20 -20 -20 -20 -20 -20 -20 -20 -20 1 -6 -20 -20 -5 3 -20 -20 -20 -20 -20 -20 -20 -16 11 16 -2 -20 -20 -20 -20 -20 -20 -20 -20 -20
-20 -20 -20 -20 -20 -20 -20 -20 -20 -20 -20 -20 -20 -20 -20 -20 -10 0 -12 -20 -20 -20 -20 -20 -20 -20 -20 -20 -20 -10 5 -7 -18 -20 -20 -20 -20 -20 -20 -20 -20 -20 -20
-20 -20 -20 -20 -20 -20 -20 -20 -20 -20 -20 -20 -20 -20 -20 -10 3 2 -20 -20 -20 -20 -20 -20 -20 -8 -7 -4 1 -3 -7 -19 -20 -20 -20 -20 -20 -20 -20 -20 -20 -20 -20
-20 -20 -20 -20 -20 -20 -20 -20 -20 -20 -20 -20 -20 -20 -20 -14 15 -20 -20 -20 -20 -20 -20 -20 -14 -4 -3 -6 -13 -17 -20 -20 -20 -20 -20 -20 -20 -20 -20 -20 -19 -4 -20
-20 -20 -20 -20 -20 -20 -20 -20 -20 -20 -20 -20 -20 -20 -20 -19 -19 -20 -20 -20 -20 -20 -20 -20 -20 -20 -20 -19 -19 -20 -20 -20 -20 -20 -20 -20 -20 -20 -20 -20 -20 -20 -20
-20 -20 -20 -20 -20 -20 -20 -20 -20 -20 -20 -20 -20 -20 -20 -20 -20 -20 -20 -20 -20 -20 -20 -20 -20 -20 -20 -20 -20 -20 -20 -20 -20 -20 -20 -20 -18 -20 -20 -19 -20 -20 -20
-20 -20 -20 -20 -20 -20 -20 -20 -20 -20 -20 -20 -20 -20 -20 -20 -19 -20 -20 -20 -20 -20 -18 -20 -20 -20 -20 -17 -20 -18 -19 -20 -20 -20 -20 -11 4 2 -11 -17 -20 -20 -20
-6 -18 -15 -19 -20 -20 -16 15 14 13 5 14 17 5 -6 9 -7 -20 -20 -20 -20 -20 -20 -20 -20 -14 -20 -20 -20 -20 -17 -10 -8 -1 -1 -11 -20 -20 -11 -19 -20 -20 -20
12 14 26 17 6 -17 -20 -20 -18 11 15 18 25 -5 -3 5 -6 -20 -20 -20 -12 -7 -0 -5 -20 -20 -20 -20 -20 -20 -20 -20 -20 -20 -20 -20 -20 -20 -20 -20 -20 -20 -20
4 7 25 15 17 12 -20 -20 -19 -14 -0 6 29 27 18 5 14 -20 -20 -20 -20 -20 -20 -20 -20 -20 -20 -20 -20 -20 -20 -20 -20 -20 -20 -20 -20 -20 -20 -20 -20 -20 -20
11 7 -7 7 -4 18 11 -20 -14 -20 -6 13 6 24 23 19 1 -9 -20 -20 -14 -17 -20 -20 -20 -20 -20 -20 -20 -20 -20 -20 -20 -20 -20 -20 -20 -20 -20 -20 -20 -20 -20
-11 28 27 1 -18 3 8 -11 -20 -20 -16 9 -15 -7 21 27 6 13 4 -20 -20 -20 -20 -20 -20 -20 -19 -20 -20 -20 -20 -20 -20 -20 -20 -20 -20 -20 -20 -20 -20 -20 -20
-11 -5 25 13 4 -8 -6 0 -20 2 -20 -10 18 24 15 -20 -20 -3 18 19 -3 -17 -13 -19 -19 -20 -20 -20 -20 -20 -20 -20 -20 -20 -20 -20 -20 -20 -20 -20 -20 -19 -16
11 19 12 -0 -7 -11 -1 -4 -9 -1 7 4 -8 19 31 8 -17 12 16 -10 -17 -17 -15 -15 -18 -20 -20 -20 -20 -20 -20 -20 -20 -20 -20 -20 -20 -20 -20 -20 -20 -12 -0
-17 -11 17 16 -9 24 13 -5 -10 -10 -0 5 -11 -9 18 19 6 -1 -7 -7 -2 2 -3 -15 -18 -20 -19 -12 -14 -19 -14 -13 3 -10 -18 -19 -20 -19 -17 -11 -15 -3 -5
-16 -14 -16 8 -9 -5 -4 -0 -9 18 13 3 -5 -6 -16 9 9 -3 -12 -20 -12 -13 -17 -20 -20 -20 -19 -17 -17 -15 -17 -16 -18 -20 -19 -19 -19 -13 -3 -18 -7 -6 -10
-20 -18 2 -2 12 12 13 2 8 8 6 9 -2 -11 -15 -15 1 -17 -16 -8 -17 -20 -20 -20 -16 -20 -16 -19 -19 -19 -19 -19 -20 -20 -20 -20 -20 -20 -9 -17 -20 -20 -20
-20 -20 2 9 3 -7 9 19 23 10 -15 -13 -1 6 -10 -20 -18 -17 -20 -20 -20 -20 -20 -20 -20 -20 -20 -20 -20 -20 -20 -20 -18 -20 -20 -20 -20 -19 -20 -20 -20 -20 -20

GFSGL_prec_radar_075.txt.gz
Reflectivity
-20 -20 -20 -20 -20 -20 -20 -20 -20 -20 -20 -20 -20 -16 -20 -20 -20 -20 -20 -20 -20 -20 -20 -20 -20 -20 -20 -20 -20 -20 -20 -8 9 -11 -17 3 -12 10 6 -0 9 -20 -20
-20 -20 -20 -20 -20 -20 -20 -20 -20 -20 -19 -20 -20 -20 -20 -20 -20 -20 -20 -20 -20 -20 -20 -20 -20 -20 -20 -20 -20 -20 -20 -20 -6 9 -0 17 9 -2 8 -19 -20 -20 -20
-20 -20 -20 -20 -20 -20 -20 -20 -20 -20 -20 -20 -20 -20 -20 -20 -20 -20 -20 -20 -20 -20 -20 -20 -20 -20 -20 -20 -20 -20 -20 -20 -20 -16 -20 12 3 10 -16 -20 -13 -20 -20
-20 -20 -20 -20 -20 -20 -20 -20 -20 -20 -20 -20 -20 -20 -20 -20 -20 -20 -20 -20 -20 -20 -20 -20 -20 -20 -20 -20 -20 -20 -8 3 1 7 3 -11 5 -4 -20 -20 -20 -20 -20
-20 -20 -20 -20 -20 -20 -20 -20 -20 -20 -20 -20 -20 -20 -20 -20 -20 -20 -20 -20 -20 -20 -20 -20 -20 -3 13 5 -16 -20 -20 -13 7 9 -7 -4 -20 -20 -20 -20 -20 -20 -20
-20 -20 -20 -20 -20 -20 -20 -20 -20 -20 -20 -20 -20 -20 -20 -20 -20 -20 -20 -20 -20 -20 -20 -20 8 9 9 11 12 11 5 -20 -5 14 13 -4 -20 -20 -20 -20 -20 -20 -20
-20 -20 -20 -20 -20 -20 -20 -20 -20 -20 -20 -20 -20 -20 -20 -20 -20 -20 -20 -20 -18 1 11 -9 -20 9 5 -20 -20 -20 -5 -2 -17 -15 -20 -20 -20 -20 -20 -20 -20 -20 -20
-20 -20 -20 -20 -20 -20 -20 -20 -20 -20 -20 -20 -20 -20 -20 -20 -20 -12 -18 -20 -19 18 7 -12 7 -4 -20 -20 -20 -20 -20 -20 -20 -20 -17 -4 -20 -20 -20 -20 -20 -20 -20
-20 -20 -20 -20 -20 -20 -20 -20 -20 -20 -20 -20 -20 -20 -20 -20 -20 -20 -20 -20 -20 -20 -20 -2 5 -20 -20 -20 -20 -20 -20 -20 -20 -20 -20 -13 -8 -18 -20 -20 -20 -20 -20
-20 -20 -20 -20 -20 -20 -20 -20 -20 -20 -20 -20 -20 -20 -20 -20 -20 -5 -13 -20 -20 -20 -9 8 -8 -20 -20 -20 -20 -19 3 -5 -6 -4 8 2 0 -12 -20 -20 -20 -20 -20
-20 -20 -20 -20 -20 -20 -20 -20 -20 -20 -20 -20 -20 -20 -20 -20 -20 -13 -18 -18 -20 -20 -20 -20 -20 -20 -20 -20 -20 -16 2 3 3 -5 -16 -17 -20 -20 -20 -20 -20 -20 -20
-20 -20 -20 -20 -20 -20 -20 -20 -20 -20 -20 -20 -20 -20 -20 -20 -20 -20 -9 -16 -20 -20 -20 -20 -20 -20 -20 -12 -20 -20 -20 -3 -5 -15 -20 -20 -20 -20 -20 -20 -20 -20 -20
-20 -20 -20 -20 -20 -20 -20 -20 -20 -20 -20 -20 -20 -20 -20 -20 -20 10 6 -20 -20 -20 -20 -20 -20 -20 -20 -20 -20 -20 -20 -20 -12 -3 -19 -20 -20 -20 -20 -20 -20 -20 -20
-20 -20 -20 -20 -20 -20 -20 -20 -20 -20 -20 -20 -20 -20 -20 -20 -20 -20 -7 -20 -20 -20 -20 -20 -20 -20 -20 -12 -17 -20 -20 -20 -20 -20 -20 -20 -20 -20 -3 10 10 12 -0
-20 -20 -20 -20 -20 -20 -20 -20 -20 -20 -13 -20 -20 -20 -20 -20 -20 -7 -5 -20 -20 -20 -20 -20 -20 -20 -20 -20 -20 -20 -20 -20 -20 -14 -9 -4 -5 -15 -20 -20 -20 -20 -20
-13 -15 -8 -19 -20 -20 -15 -20 10 11 4 -1 3 -6 -18 -2 16 5 -4 -20 -20 -20 -20 -20 -20 -20 -20 -20 -20 -5 -2 -19 -20 -20 -20 -20 -20 -20 -20 -20 -20 -20 -20
-13 12 1 30 23 -8 -12 -20 -20 -3 -20 -11 7 4 -5 -10 18 -4 -19 -5 -20 -20 -7 -20 -20 -20 -20 -20 -5 -20 -20 -20 -20 -20 -20 -20 -20 -20 -20 -20 -20 -20 -20
-20 18 28 9 21 29 24 25 6 -18 -20 -20 9 14 6 12 16 2 6 -2 -14 -19 -20 -20 -20 -20 -20 -20 -20 -20 -20 -20 -20 -20 -20 -20 -20 -20 -20 -20 -20 -20 -20
-20 -18 13 17 26 24 25 21 16 2 -20 2 -13 16 5 12 23 23 19 -4 10 -11 -20 -20 -20 -20 -20 -20 -20 -20 -20 -20 -20 -20 -20 -20 -20 -20 -20 -20 -20 -20 -20
-20 -20 0 17 23 22 25 15 15 -8 -2 -10 -11 -8 3 13 4 -5 18 8 6 6 -12 -14 -20 -20 -20 -20 -20 -20 -20 -20 -19 -20 -20 -19 -20 -20 -20 -20 -20 -20 -20
-2 -9 -1 -3 -1 11 21 27 17 6 17 6 -13 -2 27 17 -8 -20 -20 -20 -20 3 6 -2 -20 -20 -20 -20 -20 -19 -17 -19 -20 -20 -18 -19 -20 -20 -20 -20 -20 -20 -20
1 -3 -5 -4 1 -5 15 23 28 20 16 18 -6 -4 19 7 -16 -20 -20 -20 -20 -20 -18 -13 -20 -17 -18 -20 -19 -20 -20 -20 -19 -18 -18 -20 -20 -20 -17 -19 -20 -20 -19
-11 -14 -18 -16 5 19 18 20 13 14 5 8 12 -9 6 15 -6 -20 -20 -17 -13 -13 -9 -17 -19 -20 -20 -17 -15 -18 -20 -20 -16 -6 -10 -20 -19 -20 -20 -20 -20 -20 -19
-20 -20 -20 -20 -20 -8 2 11 2 23 8 3 12 3 -7 7 11 6 -2 2 1 -2 -0 -6 -8 -18 -19 -20 -20 -20 -15 -16 -13 -14 -9 -14 -19 -19 -20 -20 -20 -20 -20
-20 -7 -17 -19 -20 -20 -11 15 23 27 21 21 2 10 -4 -2 13 11 1 8 6 6 -11 -15 -16 -20 -20 -20 -20 -18 -16 -13 -17 -19 -20 -20 -20 -20 -20 -20 -20 -20 -19
-20 -20 -20 -20 -19 -20 -20 -17 1 12 25 25 14 10 -15 -15 -16 -11 -16 -15 -11 -2 -13 -18 -20 -20 -20 -20 -20 -20 -20 -14 -16 -20 -20 -20 -20 -20 -20 -20 -20 -20 -20

GFSGL_prec_radar_078.txt.gz
Reflectivity
-20 -20 -20 -20 -2 -13 -14 -19 -15 -2 19 2 -8 -20 -15 -20 -18 -17 -20 -20 -20 -20 -20 -20 -20 -20 -20 -20 -20 -20 -20 -18 9 -20 -20 1 -15 -20 2 -11 10 3 -1
-20 -20 -20 -20 -20 -20 -20 -19 -19 -20 -14 -13 -20 -20 -15 -20 -20 -20 -20 -20 -20 -20 -20 -20 -20 -20 -20 -20 -20 -20 -20 -20 -20 -2 -1 13 15 -5 4 14 -19 7 -15
-20 -20 -20 -20 -20 -20 -20 -20 -20 -20 -20 -20 -20 -20 -20 -20 -20 -20 -20 -20 -20 -20 -20 -20 -20 -20 -20 -20 -20 -20 -20 -20 -5 -20 -20 -20 -7 1 6 6 -20 -20 -20
-20 -20 -20 -20 -20 -20 -20 -20 -20 -20 -20 -20 -20 -20 -20 -20 -20 -20 -20 -20 -20 -20 -20 -20 -20 -20 -20 -10 -10 -7 -19 -10 -5 -3 8 9 -17 1 3 -20 -15 -20 -20
-20 -20 -20 -20 -20 -20 -20 -20 -20 -20 -20 -20 -20 -20 -20 -20 -20 -20 -20 -20 -20 -20 -20 -20 -20 5 14 -0 -16 -14 9 2 5 2 13 10 -8 -13 3 -1 -20 -20 -20
-20 -20 -20 -20 -20 -20 -20 -20 -20 -20 -20 -20 -20 -20 -20 -20 -20 -20 -20 -20 -20 -20 -20 -20 -20 6 9 11 11 12 9 -8 -2 -20 3 10 -13 7 10 1 -20 -20 -20
-20 -20 -20 -20 -20 -20 -20 -20 -20 -20 -20 -20 -20 -20 -20 -20 -20 -20 -20 -20 -20 -20 -20 -2 -12 -6 3 -20 9 -16 -3 5 6 -16 7 -4 -18 -20 -20 -11 -19 -20 -20
-20 -20 -20 -20 -20 -20 -20 -20 -20 -20 -20 -20 -20 -20 -20 -20 -20 -20 -7 -20 -20 -20 -12 4 2 14 2 -13 -20 -20 -20 -20 -20 -19 -20 -20 -20 -20 -6 -8 -20 -20 -20
-20 -20 -20 -20 -20 -20 -20 -20 -20 -20 -20 -20 -20 -20 -20 -20 -20 -20 -19 -20 -20 -20 -20 -20 -20 -1 17 -20 -20 -20 -20 -20 -20 -20 -20 -20 -20 -20 -2 5 -19 -20 -18
-20 -20 -20 -20 -20 -20 -20 -20 -20 -20 -20 -20 -20 -20 -20 -20 -20 -2 -11 -20 -20 -20 -20 -20 12 -0 -1 -20 -20 -20 -20 -20 -20 2 9 -12 -19 -3 -12 -20 -20 -4 1
-20 -20 -20 -20 -20 -20 -20 -20 -20 -20 -20 -20 -20 -20 -20 -20 -20 -12 -5 -20 -20 -20 -20 -20 -0 -9 -20 -20 -20 -20 -20 -20 -20 -20 -20 -20 -20 -5 -18 -20 -0 8 -20
-20 -20 -20 -20 -20 -20 -20 -20 -20 -20 -20 -20 -20 -20 -9 -20 -13 -20 -4 -20 -20 -20 -20 -20 -20 -20 -20 -20 -20 -20 -20 -20 -20 -20 -20 -20 -20 -20 -20 -20 -20 -20 -20
-20 -20 -20 -20 -20 -20 -20 -20 -20 -20 -20 -20 -20 -20 -20 -20 -19 8 -20 -6 -20 -20 -20 -20 -20 -20 -20 -20 -20 -20 -20 -20 -20 -20 -20 -20 -20 -20 -20 -20 -20 -20 -8
-20 -20 -20 -20 -20 -20 -20 -20 -20 -20 -20 -20 -20 -20 -20 -20 -20 -20 -20 -19 -3 -20 -20 -20 -20 -20 -20 -20 -20 -20 -20 -20 -20 -20 -20 -20 -20 -20 -20 -20 -20 -20 -20
-20 -20 -20 -20 -11 -16 -20 -20 -20 -20 -18 -20 -20 -20 -20 -20 -20 -18 -11 -20 -20 -20 -20 -20 -20 -20 -20 -20 -20 -20 -20 -20 -20 -20 -20 -20 -20 -20 -20 -20 -20 -20 -20
-20 -20 -17 -6 6 11 -7 -3 13 10 13 11 -12 -15 -14 -20 -18 -7 -16 -18 -5 -6 -20 -20 -20 -20 -20 -20 -20 -20 -20 -20 -20 -20 -20 -20 -20 -20 -20 -20 -20 -20 -20
-20 -20 -4 -20 14 5 -9 -3 4 12 16 9 8 -1 -18 -20 -20 -20 -6 4 1 16 -20 6 -20 -20 -20 -20 -20 -20 -20 -20 -20 -20 -20 -20 -20 -20 -20 -20 -20 -20 -20
-20 14 -4 1 -20 22 25 30 28 25 22 4 7 6 5 5 8 9 -3 9 17 9 -1 5 -20 -20 -20 -20 -20 -20 -20 -20 -20 -20 -20 -20 -20 -20 -20 -20 -20 -20 -20
-20 -20 -9 -19 2 6 20 27 30 33 24 21 20 19 -3 -3 8 11 4 -1 -15 -18 4 6 -16 -20 -15 -20 -20 -20 -20 -20 -20 -20 -20 -20 -20 -20 -20 -20 -20 -20 -20
-19 14 7 -8 -1 -12 -0 20 26 30 24 20 15 15 18 14 9 -2 -7 -9 -20 8 16 12 4 -14 7 -1 -20 -20 -20 -20 -20 -20 -20 -20 -20 -20 -20 -20 -20 -20 -20
5 -7 -2 2 0 1 -12 -7 19 28 21 16 -2 9 25 18 0 -0 -20 -20 -20 2 1 -16 -12 -18 -20 -20 -20 -20 -20 -20 -20 -20 -20 -20 -20 -20 -20 -20 -20 -20 -20
-20 -8 -14 4 -0 -3 1 -6 -5 12 8 11 15 5 25 18 -2 -6 -20 -20 -20 -19 -20 -20 -12 13 13 -0 -11 -20 -20 -20 -19 -19 -20 -20 -20 -18 -19 -20 -20 -20 -20
-20 -20 -20 -20 -19 7 -3 -4 -0 -10 -3 -7 4 5 22 17 -6 -12 -20 -20 -20 -20 -20 -20 -20 -20 -19 -19 -18 -17 -18 -20 -20 -16 -20 -20 -19 -17 -19 -20 -20 -20 -20
-20 -20 1 -19 -17 -16 -15 -16 12 22 7 3 -5 -7 -4 9 15 -8 -11 -6 -4 -8 -4 -8 -14 -15 -14 -9 -9 -12 -18 -19 -17 -18 -14 -17 -19 -10 -18 -19 -20 -20 -20
-20 -20 -15 -17 -20 -20 -17 -19 -19 -1 10 -3 -9 3 3 13 23 18 3 5 11 10 10 3 3 2 2 3 0 -15 -17 -17 -17 -16 -13 -14 -15 -15 -19 -20 -20 -20 -20
-2 2 -16 -20 -20 -20 -17 -18 -20 -3 7 -1 6 5 8 19 3 20 15 16 -15 -18 -20 -14 -1 -2 -7 -16 -20 -20 -17 -12 -10 -15 -18 -19 -19 -20 -20 -20 -20 -20 -20

GFSGL_prec_radar_081.txt.gz
Reflectivity
-20 -20 -20 -20 -17 -18 -18 -20 -20 -20 -20 -20 -20 -20 -14 -5 -18 -14 -18 -18 -20 -18 -20 -20 -20 -20 -20 -20 -20 -20 -20 -9 0 -15 -15 -20 -20 -20 -7 -20 -15 7 7
-20 -20 -20 -20 -20 -18 -20 -20 -20 -20 -20 -20 -20 -20 -20 -20 -6 -9 -16 -20 -20 -20 -20 -20 -20 -20 -20 -20 -20 -20 -20 -20 -20 -20 -20 -19 -20 -20 -20 -2 -14 6 10
-20 -20 -20 -20 -20 -20 -20 -20 -20 -20 -20 -20 -20 -20 -20 -20 -20 -20 -20 -20 -20 -20 -20 -20 -20 -20 -20 -20 -20 -20 -20 -20 -20 -20 -20 -20 -20 -20 -20 -19 -2 -3 12
-20 -20 -20 -20 -20 -20 -20 -20 -20 -20 -20 -20 -20 -20 -20 -20 -20 -20 -20 -20 -20 -20 -20 -20 -20 -20 -20 -20 -20 -20 -20 -20 -20 -20 -20 -12 -20 -20 -20 -20 -7 7 -7
-20 -20 -20 -20 -20 -20 -20 -20 -20 -20 -20 -20 -20 -20 -20 -20 -20 -20 -20 -20 -20 -20 -20 -20 -20 -20 -3 -19 -18 -20 -20 -20 -12 -3 -15 6 -18 -8 -10 -20 -0 -1 -14
-20 -20 -20 -20 -20 -20 -20 -20 -20 -20 -20 -20 -20 -20 -20 -20 -20 -20 -20 -20 -20 -20 -20 -20 -20 -20 -20 -16 -0 -5 3 -20 -12 -19 -17 -20 -20 -20 -18 12 -0 1 -20
-20 -20 -20 -20 -20 -20 -20 -20 -20 -20 -20 -20 -20 -20 -20 -20 -20 -20 -20 -20 -20 -20 -20 -20 -20 -20 -20 -20 8 10 -0 -6 0 -19 -20 -20 -20 -16 -20 -20 -11 -20 -18
-20 -20 -20 -20 -20 -20 -20 -20 -20 -20 -20 -20 -20 -20 -20 -20 -20 -20 -20 -20 -20 -20 -20 -20 -20 -20 -17 -18 -20 -20 -20 -20 -20 -20 -20 -20 -20 -20 -20 -20 -20 -20 9
-20 -20 -20 -20 -20 -20 -20 -20 -20 -20 -20 -20 -20 -20 -20 -20 -20 -20 -20 -20 -20 -20 -20 -20 -20 -20 -13 -7 -20 -20 -20 -20 -20 -20 -20 -20 -20 -20 -2 -20 -20 -14 18
-20 -20 -20 -20 -20 -20 -20 -20 -20 -20 -20 -20 -20 -20 -20 -20 -20 -20 -2 -20 -20 -20 -20 -20 -20 -11 8 -6 -20 -20 -20 -20 -20 -20 -20 -20 -20 -20 -20 -20 -15 -20 -20
-20 -20 -20 -20 -20 -20 -20 -20 -20 -20 -20 -20 -20 -20 -20 -20 -20 -20 11 -20 -20 -20 -20 -20 -20 8 -8 -20 -20 -20 -20 -20 -20 -20 -20 -20 -20 -20 -20 -20 -20 -20 -20
-20 -20 -20 -20 -20 -20 -20 -20 -20 -20 -20 -20 -20 -20 -20 -20 -20 -17 10 -4 -20 -20 -20 -20 -10 7 -20 -20 -20 -20 -20 -20 -20 -20 -20 -20 -20 -20 -20 -20 -20 -20 -20
-20 -20 -20 -20 -20 -20 -20 -20 -20 -20 -20 -20 -20 -20 -20 -20 -5 11 9 13 2 -20 -20 -20 -20 -20 -20 -20 -20 -20 -20 -20 -20 -20 -20 -20 -20 -20 -20 -20 -20 -20 -20
-20 -20 -20 -20 -20 -20 -19 -20 -20 -20 -5 10 8 1 -20 -20 -15 -20 -13 -9 6 -1 5 -20 -20 -20 -20 -20 -20 -20 -20 -20 -20 -20 -20 -20 -20 -20 -20 -20 -20 -20 -20
-20 -20 -20 -20 -20 -20 -20 -6 -8 -16 16 12 9 5 -5 -20 -19 2 -3 -20 -20 -4 6 -20 -20 -20 -20 -20 -20 -20 -20 -20 -20 -20 -20 -20 -20 -20 -20 -20 -20 -20 -20
-20 -20 -20 -14 -4 -20 -11 -6 31 16 6 7 4 -2 -20 -2 -17 -16 -20 -13 1 9 -4 -20 -20 -19 -20 -20 -19 -19 -20 -20 -20 -20 -20 -20 -20 -20 -20 -20 -20 -20 -20
-20 -20 -20 -20 -20 -12 -20 -6 8 33 21 19 14 10 10 9 8 -6 -8 -11 7 19 7 -20 -18 -17 -18 -20 -4 -14 -20 -20 -20 -20 -20 -20 -20 -20 -20 -20 -20 -20 -20
-20 -20 -20 -20 4 -3 1 -16 6 20 11 10 24 18 16 13 2 3 8 10 10 17 8 -20 -15 6 -20 -20 -12 -20 -20 -20 -20 -20 -20 -20 -20 -20 -20 -20 -20 -20 -20
-20 -20 -20 -19 -4 4 -4 -5 -4 4 18 27 28 31 21 24 24 18 15 10 -19 -10 -9 -10 13 14 -20 -20 -20 -20 -20 -20 -20 -20 -20 -20 -20 -20 -20 -20 -20 -20 -20
-20 -20 0 -9 -19 -15 -3 0 0 7 0 6 30 29 33 33 21 1 -0 -5 -7 -20 -15 -13 13 15 -20 -20 -20 -4 -8 -20 -20 -19 -20 -20 -20 -20 -20 -20 -20 -20 -20
-20 -20 2 -5 -20 -20 -10 2 1 19 19 6 10 29 39 37 14 -7 -3 -17 -13 -20 -20 -16 -7 19 -20 -20 -20 -20 -20 -20 -20 -20 -20 -20 -20 -20 -18 -20 -20 -20 -20
-15 -1 7 -19 -18 -4 -12 -5 -2 20 17 16 7 30 34 26 12 -14 -14 -20 -20 -20 -20 -5 -8 6 10 10 6 12 12 -2 -8 -20 -20 -20 -19 -19 -18 -20 -20 -20 -20
-11 -9 -20 -20 -20 -16 2 -1 2 -9 16 21 12 8 26 22 7 -20 -18 -13 -9 -9 -20 -16 -17 -20 -20 -20 -20 -14 4 2 -7 -0 -14 -19 -19 -20 -20 -20 -19 -18 -20
-20 -20 -20 -20 -20 -6 -0 -14 -3 6 -1 21 21 -1 2 4 10 -2 -16 -16 7 -0 -8 -20 -20 -20 -20 -20 -20 -20 -20 -16 -10 -14 -14 -16 -20 -16 -16 -14 -15 -18 -20
-20 -20 -20 -20 -17 -17 -19 -20 -20 -12 -8 9 17 17 1 0 -3 -5 -19 -18 -5 -0 -6 -6 -8 -6 -13 -4 -4 -6 -10 -3 -19 -20 -15 -18 -19 -16 -19 -19 -18 -20 -20
-3 -12 -19 -20 -20 -20 -19 -20 -20 -17 -10 -7 15 17 13 5 -9 -9 -12 -14 -2 2 13 18 15 14 14 12 -4 -7 -5 10 -3 -18 -16 -17 -19 -19 -20 -20 -20 -20 -20

GFSGL_prec_radar_084.txt.gz
Reflectivity
-20 -20 -20 -20 -20 -20 -20 -20 -19 -15 -20 -18 -20 3 -20 -20 -20 -20 -20 -20 -19 -17 -13 -20 -20 -20 -20 -20 -20 -20 -19 2 4 -17 -20 -20 -20 -20 -20 -20 -2 -20 -9
-20 -20 -20 -20 -20 -20 -20 -20 -20 -20 -20 -20 -20 -19 -19 -20 -20 -20 13 -19 -19 -4 -14 -18 -20 -20 -20 -20 -20 -20 -11 3 8 -16 -20 -20 -20 -20 -20 -19 -19 -16 -12
-20 -20 -20 -20 -20 -20 -20 -20 -20 -19 -17 -16 -20 -20 -20 -20 -20 -20 -20 -20 -20 -14 -20 -20 -20 -20 -20 -20 -20 -9 -15 -20 -20 -6 -5 -20 -20 -20 -20 -20 -20 -20 -9
-20 -20 -20 -20 -20 -20 -20 -20 -20 -20 -20 -19 -20 -20 -20 -20 -20 -20 -20 -20 -20 -20 -20 -20 -20 -20 -20 -20 -20 -20 -20 -20 -20 -20 1 -20 -20 -20 -20 -20 -20 -20 -20
-20 -20 -20 -20 -20 -20 -20 -20 -20 -20 -20 -20 -20 -20 -20 -20 -20 -20 -20 -20 -20 -20 -20 -20 -20 -20 -20 -20 -20 -20 -20 -20 -20 -8 -20 -20 -20 -20 -20 -20 -20 -20 -20
-20 -20 -20 -20 -20 -20 -20 -20 -20 -20 -20 -20 -20 -20 -20 -20 -20 -20 -20 -20 -20 -20 -20 -20 -20 -20 -20 -20 -20 -20 -20 -20 -20 -20 -20 -20 -20 -20 -20 -20 -20 -20 -20
-20 -20 -20 -20 -20 -20 -20 -20 -20 -20 -20 -20 -20 -20 -20 -20 -20 -20 -20 -20 -20 -20 -20 -20 -20 -20 -20 -20 -20 -20 -20 -17 -6 -20 -20 -20 -20 -20 -20 -20 -20 -10 0
-20 -20 -20 -20 -20 -20 -20 -20 -20 -20 -20 -20 -20 -20 -20 -20 -20 -20 -20 -20 -20 -20 -20 -20 -20 -20 -20 -20 -20 -20 -20 -20 -20 -20 -20 -20 -20 -20 -20 -20 -20 -20 -20
-20 -20 -20 -20 -20 -20 -20 -20 -20 -20 -20 -20 -20 -20 -20 -20 -20 -20 -20 -20 -20 -20 -20 -20 -20 -20 -20 -20 -20 -20 -20 -20 -20 -20 -20 -20 -20 -20 -20 -20 -20 -20 -20
-20 -20 -20 -20 -20 -20 -20 -20 -20 -20 -20 -20 -20 -20 -20 -20 -20 -20 -20 -20 -20 -20 -20 -20 -20 -20 -20 -20 -20 -20 -20 -20 -20 -20 -20 -20 -20 -20 -20 -20 -20 -20 -20
-20 -20 -20 -20 -20 -20 -20 -20 -20 -20 -20 -20 -20 -20 -20 -20 -20 -20 -20 -20 -20 -20 -20 -20 -20 -20 -4 2 -10 -20 -20 -20 -20 -20 -20 -20 -20 -20 -20 -20 -20 -20 -20
-20 -20 -20 -20 -20 -20 -20 -20 -20 -20 -20 -20 -20 -20 -20 -20 -20 -20 -20 -20 -15 -20 -20 -20 -20 -20 -1 2 -15 -20 -20 -20 -20 -20 -20 -20 -20 -20 -20 -20 -20 -20 -20
-20 -20 -20 -20 -20 -20 -20 -20 -20 -20 -20 -20 -20 -20 -20 -20 -20 -20 -20 5 -5 -5 -20 -20 -20 -20 10 4 -20 -20 -20 -20 -20 -20 -20 -20 -20 -20 -20 -20 -20 -20 -20
-20 -20 -20 -20 -20 -20 -20 -20 -20 -20 -20 -20 -20 -17 -20 16 -14 -20 3 -1 13 -1 3 -20 -20 -20 -20 -20 -18 -3 -20 -20 -20 -20 -20 -20 -20 -20 -20 -20 -20 -20 -20
-20 -20 -20 -20 -20 -20 -20 -20 -20 -20 -7 -5 -4 9 23 20 5 18 11 -3 -11 -11 -20 -20 -20 -20 -20 -20 -20 -20 -20 -20 -20 -20 -20 -20 -20 -20 -20 -20 -20 -20 -20
-20 -20 -20 -20 -20 -20 -20 -20 -20 11 16 14 12 13 14 24 22 18 4 -1 10 3 -0 -20 -20 -20 -20 -20 -20 -20 -20 -20 -20 -20 -20 -20 -20 -20 -20 -20 -20 -20 -20
-20 -20 -20 -20 -20 -20 -20 -20 -3 -20 18 10 22 22 16 18 17 16 5 7 9 24 6 -20 -20 -20 -20 -20 -20 -20 -20 -20 -20 -20 -20 -20 -20 -20 -20 -20 -20 -20 -20
-20 -20 -10 -19 -20 -16 -20 -4 -11 -8 -11 -4 25 27 20 19 21 19 17 23 14 17 2 -20 -20 -20 -16 -19 -20 -20 -20 -20 -16 -20 -20 -20 -20 -20 -20 -20 -20 -20 -20
-20 -17 -20 -13 -0 1 -13 7 0 -8 -2 -4 7 28 34 30 30 29 29 17 -6 -20 -19 -20 -18 -10 -7 -19 -20 -20 -20 -20 -15 -19 -20 -20 -20 -20 -20 -20 -20 -20 -20
-20 -19 -4 0 6 -20 -20 -20 -19 -20 4 8 14 12 32 33 33 26 16 1 -10 8 -16 -5 -14 -4 -3 -8 -20 -20 -20 -20 -15 -20 -20 -20 -20 -20 -20 -20 -20 -20 -20
-20 -20 8 5 7 -19 -20 -18 -16 -13 -15 5 3 23 35 31 19 26 25 10 11 22 -5 -4 -16 -3 -0 -6 -20 -20 -7 4 -20 -20 -20 -20 -20 -20 -20 -20 -20 -20 -20
-20 -20 -20 6 11 -20 -20 -20 -20 8 7 6 4 22 32 30 27 26 30 26 30 28 13 -5 -12 -8 -8 -13 -20 -20 -7 -12 -8 -9 -20 -19 -20 -20 -20 -20 -20 -20 -20
-20 5 8 11 11 -4 -10 -12 1 4 5 6 3 20 25 28 29 32 32 32 31 27 7 -2 -9 -14 -5 3 -20 -20 -20 -20 -18 3 -1 -20 -7 -17 -20 -20 -20 -20 -20
-1 5 6 3 0 2 6 6 12 -8 -7 -3 0 8 20 27 30 32 28 28 29 17 -2 -3 -16 -20 -5 -12 -20 -20 -9 -5 -16 -11 -9 -9 -19 -19 -20 -16 -16 -20 -20
-0 1 6 9 10 9 8 8 -5 -20 -4 -20 -3 3 14 26 27 28 24 25 16 -6 -8 -4 -9 -20 -20 -20 -20 -20 -20 -20 -19 -17 -19 -11 -19 -16 -12 -14 -14 -15 -15
6 5 5 0 1 1 -2 -2 -1 -17 -1 1 3 3 10 21 25 22 16 10 15 -4 -6 -5 -4 -7 -14 -18 -20 -18 -7 -4 -3 -4 -5 -14 -15 -14 -14 -15 -15 -15 -19

GFSGL_prec_radar_087.txt.gz
Reflectivity
-2 2 1 -1 -20 -15 -9 -19 -7 -17 -20 -20 -1 7 2 6 7 5 19 18 -20 -20 -20 -20 -20 -20 -20 -20 -20 -20 -20 -20 -20 -20 -20 -20 -20 -20 -20 -20 -7 -20 9
-20 -8 -3 -12 -20 -20 -20 -20 -19 -20 -20 -20 -7 6 14 21 3 -12 27 -20 -20 -20 -20 -20 -20 -20 -20 -20 -20 -20 -20 -20 -20 -17 -20 -20 -20 -20 -20 -20 -20 -20 -20
-20 -20 -20 -20 -20 -20 -20 -20 -20 -20 -20 -20 -20 -20 -20 -15 -4 -20 -20 -20 -20 -20 -20 -20 -20 -20 -20 -20 -20 -20 -20 -20 -1 -2 -20 -20 -16 -20 -20 -20 -20 -20 -20
-20 -20 -20 -20 -20 -20 -20 -20 -20 -20 -20 -20 -20 -20 -20 -20 -13 -10 -20 -20 -20 -20 -20 -20 -20 -20 -20 -20 -20 -20 -20 -17 -3 -12 -20 3 -20 -20 -20 -20 -20 -20 -20
-20 -20 -20 -20 -20 -20 -20 -20 -20 -20 -20 -20 -20 -20 -20 -20 -20 -20 -20 -20 -20 -13 -20 -20 -20 -20 -20 -20 -20 -20 -20 -20 -11 -20 -20 -20 -20 -20 -20 -20 -20 -20 -20
-20 -20 -20 -20 -20 -20 -20 -20 -20 -20 -20 -20 -20 -20 -20 -20 -20 -3 -13 -20 -20 -20 -20 -20 -20 -20 -20 -20 -20 -20 -20 -5 -20 -20 -20 -20 -20 -20 -20 -4 9 -20 -20
-20 -20 -20 -20 -20 -20 -20 -20 -20 -20 -20 -20 -20 -20 -20 -20 -20 -20 -20 -20 -20 -20 -20 -20 -20 -20 -20 -20 -20 -20 -20 -20 -20 -20 -20 -20 -20 -20 -11 -20 -20 -20 -15
-20 -20 -20 -20 -20 -20 -20 -20 -20 -20 -20 -20 -20 -20 -20 -20 -20 -20 -20 -20 -20 -20 -20 -20 -20 -20 -20 -20 -20 -20 -20 -20 -20 -20 -20 -20 -20 -20 -20 -20 -20 -20 -20
-20 -20 -20 -20 -20 -20 -20 -20 -20 -20 -20 -20 -20 -20 -20 -20 -20 -20 -20 -20 -20 -20 -20 -20 -20 -20 -20 -20 -20 -20 -20 -20 -20 -20 -20 -20 -20 -20 -20 -20 -20 -20 -20
-20 -20 -20 -20 -20 -20 -20 -20 -20 -20 -20 -20 -20 -20 -20 -20 -20 -20 -20 -20 -20 -20 -20 -20 -20 -20 -20 -20 -20 -20 -20 -20 -20 -20 -20 -20 -20 -20 -20 -20 -20 -20 -20
-20 -20 -20 -20 -20 -20 -20 -20 -20 -20 -20 -20 -20 -20 -20 -20 -20 -20 -20 -20 -20 -20 -20 -20 -20 -2 -20 -20 -20 -20 -20 -20 -20 -20 -20 -20 -20 -20 -20 -20 -20 -20 -20
-20 -20 -20 -20 -20 -20 -20 -20 -20 -20 -20 -20 -20 -20 -20 -20 -20 -20 -9 -20 -20 -20 -20 -20 -20 -15 3 -20 -13 -10 -20 -20 -20 -20 -20 -20 -20 -20 -20 -20 -20 -20 -20
-20 -20 -20 -20 -20 -20 -20 -20 -20 -20 -20 9 10 -20 -20 -20 -16 -7 -20 1 -20 -20 -20 -20 -20 -20 4 -19 9 3 -20 -20 -20 -20 -20 -20 -20 -20 -20 -20 -20 -20 -20
-20 -20 -20 -20 -20 -20 -20 -20 -20 -20 -20 -20 -8 -6 -18 -8 -0 24 24 16 8 -14 -20 -20 -20 -20 -20 -20 -1 -7 -20 -20 -20 -20 -20 -20 -20 -20 -20 -20 -20 -20 -20
-20 -20 -20 -20 -20 -20 -20 -20 -20 -20 -5 -13 -17 -7 0 1 5 32 32 28 20 7 15 19 5 -20 -20 -20 -20 -20 -20 -20 -20 -20 -20 -20 -20 -20 -20 -20 -20 -20 -20
-20 -20 -20 -20 -20 -20 -20 -20 -20 -20 -2 10 11 20 -4 4 16 23 35 25 30 20 10 -20 -18 -20 -20 -20 -20 -20 -20 -20 -20 -20 -20 -20 -20 -20 -20 -20 -20 -20 -20
-20 -20 -20 -20 -20 -20 -20 -20 -20 -20 -20 -19 8 6 20 14 2 23 24 34 30 23 9 -17 -20 -20 -20 -20 -6 -5 -20 -20 -20 -20 -20 -20 -20 -20 -20 -20 -20 -20 -20
-20 -20 -20 -20 -20 -20 -17 -20 -20 -18 -15 -20 -14 5 8 19 16 30 27 31 25 21 12 -20 -20 -20 -18 5 -14 -20 -20 -20 -20 -18 -18 -20 -20 -20 -20 -20 -20 -20 -20
-20 -20 -20 -20 -20 -13 -3 4 -20 -20 -10 -20 -8 10 18 18 27 35 34 27 17 -4 -2 -10 -17 3 1 -10 -16 -16 -18 -20 -20 -17 -19 -19 -20 -20 -20 -20 -20 -20 -20
-20 -20 -20 -20 -19 4 -4 -14 -2 -20 -8 0 -14 -3 12 6 19 29 27 29 17 -5 -16 -8 14 -8 -13 -10 -4 -4 -14 -20 -20 -20 -14 -18 -20 -20 -20 -20 -20 -20 -20
-20 -20 -10 -20 -20 -0 4 10 -17 -19 -20 -19 -20 -9 10 11 -2 11 33 33 28 2 15 23 18 15 6 1 5 -3 -20 -20 -20 -20 -20 -20 -20 -20 -20 -20 -20 -20 -20
-20 -20 -20 -4 -20 -12 -14 6 -20 -20 -19 -8 2 -14 8 6 2 -7 28 30 25 22 29 33 31 28 26 18 -6 -8 -16 -20 -19 -20 -7 -3 -20 -20 -20 -20 -20 -20 -20
-16 -19 -15 2 -2 2 -5 -9 -10 -20 -19 -10 2 -15 -20 -17 -5 -2 23 23 23 26 32 34 32 30 28 19 0 -3 -5 -20 -19 -20 -17 -13 -20 -20 -20 -20 -20 -20 -20
7 -12 -11 3 3 2 3 4 -12 3 9 -15 -20 -20 -20 -20 -0 3 22 27 26 29 34 33 32 27 24 18 6 -4 -6 -20 -20 -20 -20 -7 6 3 -6 7 -17 -20 -20
1 1 1 -3 6 10 9 7 2 -6 -12 1 -20 -20 -20 -19 4 8 24 30 31 34 32 30 31 20 21 23 16 -20 -20 -20 -20 -20 -20 -20 4 11 6 -17 -17 -18 -17
8 6 12 -13 -10 -6 1 5 3 1 -1 -11 -20 -11 1 -17 -0 1 24 30 31 30 30 27 30 23 24 20 11 9 -14 -12 7 11 11 13 -5 -13 -13 -12 -12 -12 -17

GFSGL_prec_radar_090.txt.gz
Reflectivity
3 13 12 13 16 11 -6 -0 20 22 23 20 13 26 14 2 2 19 12 22 16 28 13 -17 4 -20 -20 -16 -20 -20 -20 -20 -20 -20 -20 -20 -20 -20 -20 -20 -20 -6 -10
-5 -3 1 3 4 6 -5 -11 -14 -20 -20 -20 -9 -6 1 3 -11 4 5 24 8 -2 21 10 6 -11 -15 -20 -16 -20 -20 -20 -20 -20 -20 -20 -20 -20 -20 -20 -20 -20 -20
-16 -1 0 1 2 -14 -15 -20 -20 -20 -20 -20 -20 -20 -20 -8 4 -12 17 4 -9 -15 -20 -20 -20 -20 -20 -20 -20 -20 -20 -20 -20 -20 -20 -20 -20 -20 -20 -20 -20 -20 -20
-20 -19 -9 -9 -17 -20 -20 -20 -20 -20 -20 -20 -20 -20 -20 -11 8 5 -1 20 1 -19 -20 -20 -0 -20 -20 -20 -20 -20 -20 -20 -20 -20 -2 -9 -20 -20 -20 -20 -20 -20 -20
-20 -20 -20 -20 -20 -20 -20 -20 -20 -20 -20 -20 -20 -20 -20 -20 -16 -17 4 10 -20 -20 11 -5 15 11 5 -20 -20 -20 -20 -20 -20 -20 -20 -17 -20 -20 -20 -20 -20 -20 -20
-20 -20 -20 -20 -20 -20 -20 -20 -20 -20 -20 -20 -20 -20 -20 -20 -20 4 1 10 14 6 6 -12 -0 17 -19 -20 -20 -20 -20 -20 -20 -20 -20 -20 -20 -20 -20 -20 -20 -20 -20
-20 -20 -20 -20 -20 -20 -20 -20 -20 -20 -20 -20 -20 -20 -20 -20 -20 -20 -13 -8 10 19 10 -5 -20 -20 -5 -20 -20 -20 -20 -20 -20 -20 -20 -20 -20 -20 -20 -20 -20 -17 -5
-20 -20 -20 -20 -20 -20 -20 -20 -20 -20 -20 -20 -20 -20 -20 -20 -20 -20 -20 -20 -20 -20 -20 -20 -20 -20 -20 -20 -20 -20 -20 -20 -20 -20 -20 -20 -20 -20 -20 -20 -20 -20 -20
-20 -20 -20 -20 -20 -20 -20 -20 -20 -20 -20 -20 -16 -20 -20 -20 -20 -20 -20 -20 -20 -20 -20 -20 -20 -20 -20 -20 -20 -20 -20 -20 -20 -20 -20 -20 -20 -20 -20 -20 -20 -20 -20
-20 -20 -20 -20 -20 -20 -20 -20 -20 9 5 -17 -20 2 7 -20 -20 -20 -20 -20 -20 -20 -20 -20 -12 -20 -20 -2 -20 -20 -20 -20 -20 -20 -20 -20 -20 -20 -20 -20 -20 -20 -20
-20 -20 -20 -20 -20 -20 -20 -20 -20 -19 4 -20 -17 1 8 -10 -12 -11 -19 -20 -20 -20 -20 -20 -20 -20 -20 12 -18 -20 -20 -20 -20 -20 -20 -20 -20 -20 -20 -20 -20 -20 -20
-20 -20 -20 -20 -20 -20 -20 -20 -20 -20 -20 -20 -20 -20 5 -7 -13 11 7 9 1 -20 -20 -20 -20 -20 6 11 6 -20 -20 -20 -20 -20 -20 -20 -20 -20 -20 -20 -20 -20 -20
-20 -20 -20 -20 -20 -20 -20 -20 -20 -20 -20 -9 -10 -20 -1 10 -20 16 12 13 16 14 16 7 2 -11 -17 9 8 -20 -20 -20 -20 -20 -20 -20 -20 -20 -20 -20 -20 -20 -20
-20 -20 -20 -20 -20 -20 -20 -20 -20 -20 -20 -20 -2 13 -18 -20 15 2 10 22 25 14 26 28 26 16 -17 7 -18 -2 -20 -20 -20 -20 -20 -20 -20 -20 -20 -20 -20 -20 -20
-20 -20 -20 -20 -20 -20 -20 -20 -20 -20 -20 -20 -20 -1 -4 -19 -11 21 22 22 28 28 32 23 9 10 -6 -20 -20 -20 -20 -20 -20 -20 -20 -20 -20 -20 -20 -20 -20 -20 -20
-20 -20 -20 -20 -20 -20 -20 -20 -20 -20 -20 7 9 9 -9 10 16 15 25 24 33 30 25 33 29 17 19 -5 -20 -20 -20 -12 -20 -20 -20 -20 -20 -20 -20 -20 -20 -20 -20
-20 -20 -20 -20 -20 -20 -20 -20 -20 -20 -20 -20 -20 -20 13 12 9 13 17 26 27 34 35 12 10 6 -20 -17 -20 -20 -20 -20 -20 -20 -20 -20 -20 -20 -20 -20 -20 -20 -20
-20 -20 -20 -20 -20 -20 -20 -20 -20 -18 -20 -20 -20 -3 -2 13 8 15 13 30 25 28 26 18 15 4 -6 -15 -7 -18 -19 -20 -20 -20 -20 -20 -20 -20 -20 -20 -20 -20 -20
-20 -20 -20 -20 -20 -14 -15 -20 -20 -20 -20 -20 -20 -5 5 5 5 12 8 6 25 25 26 15 21 29 13 -16 18 16 15 -20 -20 -18 -20 -20 -20 -20 -20 -20 -20 -20 -20
-20 -20 -4 -20 -20 -20 -20 -16 -15 -3 -14 -20 -20 -20 -20 -12 4 -5 -2 4 11 28 28 27 10 -4 19 12 25 31 4 -16 -20 -20 -20 -20 -20 -20 -20 -20 -20 -20 -20
-20 -20 8 -17 -20 -20 -20 -20 -20 -11 7 -20 -20 -20 8 -1 -8 3 -5 5 -1 11 28 33 28 16 30 28 21 30 15 -14 -18 -20 -20 -20 -20 -20 -20 -16 -20 -20 -20
-20 -9 6 -6 -4 -18 -20 -20 -18 1 -1 -20 -20 -20 -1 -9 -18 -9 1 10 2 1 24 22 22 19 32 33 27 27 -4 -7 -13 5 -19 -19 -20 -20 -20 -20 -20 -20 -20
-11 -2 6 -11 -20 -2 -17 -20 -20 -20 -20 -20 -20 -20 7 -19 -20 -20 -4 -2 9 13 3 22 23 22 25 30 26 23 17 3 20 20 -4 -20 -20 -20 -20 -20 -17 -19 -20
14 10 -19 -20 -20 -13 -20 -20 -10 -2 5 5 7 -7 -20 -20 -20 -19 1 4 5 15 16 19 24 27 21 24 26 28 27 28 27 15 -20 -20 -20 -14 -20 -20 2 10 5
-2 4 6 -19 -17 13 4 -20 -12 -2 2 -20 -18 -20 -20 -20 -20 -12 -11 6 11 11 9 18 22 28 24 27 30 28 28 34 23 7 -9 -17 -20 -16 1 4 6 9 14
-20 -20 -15 9 -5 -20 -13 -11 -18 -7 -17 -20 -20 -20 -16 -20 -18 -17 -19 1 9 4 19 20 26 29 28 33 27 31 23 20 13 -20 -14 -14 -20 -20 -17 -7 6 15 13

GFSGL_prec_radar_093.txt.gz
Reflectivity
21 27 26 29 19 12 10 8 18 26 31 29 30 37 37 32 31 29 29 6 24 16 23 20 28 27 9 -4 -3 22 21 12 -2 -20 -20 -20 -19 -20 -20 -20 -20 -20 -17
-19 3 10 8 10 11 12 10 7 -11 -20 -19 -3 -2 -7 0 5 24 0 -1 -11 3 12 17 18 25 17 21 13 -14 -17 -20 -10 -20 -20 -20 -20 -20 -20 -20 -20 -20 -20
-20 -20 -20 -10 -2 -8 -17 -18 -19 -13 0 -17 -20 -20 -9 -7 -1 5 -11 -4 -1 -13 17 16 16 12 16 15 -16 -20 -17 -13 -18 -20 -20 -20 -20 -20 -20 -20 -20 -20 -20
-20 -20 -20 -20 -20 -19 -17 -20 -20 -20 -20 -10 -15 -20 -20 -15 -13 -20 -15 -2 22 18 13 9 24 20 -20 -20 -20 17 -17 -19 -20 -20 -20 -20 -20 -20 -20 -20 -20 -20 -20
-20 -20 -20 -20 -20 -20 -20 -20 -20 -20 -20 -20 -20 -20 -20 -20 -20 -20 -20 -19 -2 9 15 14 7 20 -20 -20 -15 16 -20 -20 -20 -20 -20 -20 -20 -20 -20 -20 -20 -20 -20
-20 -20 -20 -20 -20 -20 -20 -20 -20 -20 -20 -20 -20 -20 -20 -20 -20 -20 -5 -20 -20 -20 -20 -6 -5 20 17 -2 15 16 20 12 -20 -20 -20 -20 -20 -20 -20 -20 -20 -20 -20
-20 -20 -20 -20 -20 -20 -20 -20 -20 -20 -20 -20 -20 -20 -20 -20 -20 -20 -20 -20 -20 -20 -20 -19 -11 -11 13 5 13 14 -20 2 -20 -20 -20 -20 -20 -20 -20 -20 -20 -20 -20
-20 -20 -20 -20 -20 -20 -20 -20 -20 -20 -20 -20 -20 -20 -20 -20 -20 -20 -20 -20 -20 -20 -10 -9 1 -20 -4 -3 -17 -20 -20 -20 -20 -20 -20 -20 -20 -20 -20 -20 -20 -20 -20
-20 -20 -20 -20 -20 -20 -20 -20 -20 -20 -20 -20 -20 -20 -20 -6 12 -20 -20 -20 -20 -20 -20 -20 -20 -9 20 8 -13 -20 -20 -20 -20 -20 -20 -20 -20 -20 -20 -20 -20 -20 -20
-20 -20 -20 -20 -20 -20 -20 -20 -20 -20 -20 -20 -20 -20 2 -20 15 9 3 -20 -20 -20 -20 -20 -20 -20 -20 -20 -20 -20 -20 -20 -20 -20 -20 -20 -20 -20 -20 -20 -20 -20 -20
-20 -20 -20 -20 -20 -20 -20 -20 -20 -20 -20 -20 -20 -16 -20 -20 -10 13 2 2 -11 -20 -20 -20 -20 -20 -20 -20 -6 -20 -20 -20 -20 -20 -20 -20 -20 -20 -20 -20 -20 -20 -20
-20 -20 -20 -20 -20 -20 -20 -20 -20 -20 -20 -20 -20 -20 -14 -12 11 14 13 16 12 8 -20 -20 -15 6 2 -15 -16 -19 -20 -20 -20 -20 -20 -20 -20 -20 -20 -20 -20 -20 -20
-20 -20 -20 -20 -20 -20 -20 -20 -20 -20 -20 -20 -20 -20 -20 -20 -9 5 19 17 21 16 -0 7 19 18 14 -7 -20 4 -20 -20 -20 -20 -20 -20 -20 -20 -20 -20 -20 -20 -20
-20 -20 -20 -20 -20 -20 -20 -20 -20 -20 -20 -20 -20 -20 -20 -20 -20 -20 -8 19 17 19 16 16 22 19 23 14 -5 -12 -20 -20 -20 -20 -20 -20 -20 -20 -20 -20 -20 -20 -20
-20 -20 -20 -20 -20 -20 -20 -20 -20 -20 -20 -20 -20 -20 -20 -20 -18 -16 11 3 24 27 26 19 23 28 28 29 9 -5 -16 1 -20 -7 -20 -20 -20 -20 -20 -20 -20 -20 -20
-20 -20 -20 -20 -20 -20 -20 -20 -20 -20 -20 -20 -2 0 -7 7 -1 4 -13 -8 15 32 32 12 26 27 19 29 30 31 22 25 15 12 2 -20 -20 -20 -20 -20 -20 -20 -20
-20 -20 -20 -20 -20 -20 -20 -20 -20 -20 -20 -20 -17 10 6 9 12 8 7 5 9 20 34 23 7 18 28 29 21 21 11 -1 9 15 11 -3 0 -20 -20 -20 -20 -20 -20
-20 -20 -20 -20 -20 -20 -20 -20 -20 -20 -20 -20 -20 -20 -5 -5 11 11 7 10 -7 10 12 28 12 18 8 33 33 34 31 27 19 21 17 15 -5 -18 -20 -20 -20 -20 -20
-20 -20 -20 -20 -20 -20 -15 -20 -20 -20 -20 -20 -20 -20 -20 -11 11 10 -9 -6 -3 -6 1 19 21 4 16 29 34 36 34 28 21 12 -9 -3 11 -0 -8 -18 -20 -20 -20
-20 -20 -11 -5 1 -14 -20 -20 -20 -20 -20 -20 -19 -18 -20 -20 -20 -20 0 -0 -3 -2 11 16 10 22 5 30 31 36 34 32 28 15 -4 -20 -5 -2 -3 6 -14 -20 -20
-20 -16 7 9 13 18 8 -8 -20 -20 -20 -20 -20 -20 -20 -19 -20 -12 -2 -18 -6 3 2 13 21 14 11 6 31 30 33 23 16 15 21 -2 -11 -0 -6 6 -18 -20 -20
3 -20 -20 -11 -4 -14 -11 -20 -20 -20 -20 -20 -20 -20 -20 -10 -12 1 -20 -20 -13 -4 2 12 14 12 13 14 23 26 5 2 -5 0 20 18 9 -16 -14 -5 -18 -20 -20
-5 4 -3 1 1 -12 -13 -20 -20 -20 -20 -20 -20 -20 -20 -20 -9 -20 -20 -20 -20 -15 -3 -3 10 12 10 22 31 9 5 -4 -20 6 16 8 6 3 3 10 -18 -20 -20
-18 -9 -20 -18 -4 -20 -20 -20 -15 1 9 4 6 11 -7 -15 -18 -20 -20 -20 -20 -14 2 -6 6 11 12 23 25 25 2 -9 -11 16 20 8 12 10 14 -4 -20 -17 -20
-20 -20 -20 -20 -16 -5 9 -5 -20 -20 -20 -20 -20 0 -15 -19 -18 -20 -20 -20 -3 -20 -18 -4 10 12 11 17 18 23 22 14 17 26 24 14 19 16 12 -14 -13 -20 -9
-20 -12 -16 -12 1 -20 -20 -20 -20 -20 -20 -9 -3 -13 -20 -20 -20 -20 -20 -20 -20 -20 7 -5 12 12 11 11 21 28 27 27 27 25 25 23 13 14 4 -14 -20 -20 -20

GFSGL_prec_radar_096.txt.gz
Reflectivity
22 25 29 31 35 31 29 23 15 17 20 31 32 32 32 33 31 27 24 31 28 27 32 1 -2 26 33 31 27 6 28 6 -10 -8 -15 -19 -20 -20 -20 -20 -20 -20 -19
11 14 20 17 26 16 11 5 -4 -15 8 8 9 15 14 15 30 34 34 27 18 22 31 32 25 22 20 23 -15 7 10 13 15 12 -4 -12 -20 -17 -12 -9 -7 -5 -20
-3 -20 -8 5 8 10 5 3 -8 -20 -20 -9 7 10 3 -4 9 3 20 20 -1 -13 6 -20 -9 31 20 3 3 -18 -1 29 7 4 3 -5 -16 -20 -20 -20 -20 -20 -20
-20 -20 -20 -20 -20 -7 -4 4 1 -4 -16 -14 -12 -11 -17 0 4 1 -0 -1 6 12 12 11 6 13 7 -3 34 19 23 23 -20 -20 -16 -14 -20 -20 -20 -20 -20 -20 -20
-20 -20 -20 -20 -20 -20 -20 -20 -20 -20 -20 -20 -20 -20 -20 -20 -20 -5 -0 6 6 -0 0 -6 -1 11 15 23 25 39 18 -20 -20 -20 -20 -20 -20 -20 -20 -20 -20 -20 -20
-20 -20 -20 -20 -20 -20 -20 -20 -20 -20 -20 -20 -20 -20 -20 -20 -20 -20 -20 -20 -20 -20 -20 -1 12 14 5 -1 17 13 17 -20 -20 -20 -20 -20 -20 -20 -20 -20 -20 -20 -20
-20 -20 -20 -20 -20 -20 -20 -20 -20 -20 -20 -20 -20 -20 -20 -20 -20 -20 -20 -20 -20 -20 -20 -20 -3 6 18 -12 -20 16 4 -2 28 13 -7 35 25 -20 -20 -20 -20 -20 -20
-20 -20 -20 -20 -20 -20 -20 -20 -20 -20 -20 -20 -20 -20 -20 -20 -20 -5 3 -20 -20 -20 -20 -20 -19 -5 5 11 -18 -5 1 -11 5 4 -13 -19 -5 -20 -20 -20 -20 -20 -20
-20 -20 -20 -20 -20 -20 -20 -20 -20 -20 -20 -20 -20 -20 -20 -20 -20 -20 -8 -20 -20 -20 -20 -20 -20 -20 12 5 7 1 15 -5 19 1 12 -8 4 -20 -20 -20 -20 -20 -20
-20 -20 -20 -20 -20 -20 -20 -20 -20 -20 -20 -20 -20 -20 -20 -20 4 -13 5 -19 -20 -20 -20 -20 -20 -2 -9 2 -12 -18 -18 -15 2 -20 1 7 -19 -20 -20 -20 -20 -20 -20
-20 -20 -20 -20 -20 -20 -20 -20 -20 -20 -20 -20 -20 -20 -20 -20 -15 5 1 1 8 -0 -19 4 -17 14 15 13 10 -19 -4 5 -1 2 -20 -20 -20 -20 -20 -20 -20 -20 -20
-20 -20 -20 -20 -20 -20 -20 -20 -20 -20 -20 -20 -20 -20 -20 -20 -20 -18 11 8 10 9 -8 -5 9 19 16 16 15 15 12 9 -16 -20 -20 -20 -20 -20 -20 -20 -20 -20 -20
-20 -20 -20 -20 -20 -20 -20 -20 -20 -20 -20 -20 -20 -20 -20 -20 -20 -20 -20 6 11 5 -1 14 17 26 23 17 14 11 15 -12 -20 -20 -20 -20 -20 -20 -20 -20 -20 -20 -20
-20 -20 -20 -20 -20 -20 -20 -20 -20 -20 -20 -20 -20 -20 -20 -20 -20 -20 -20 -20 8 4 9 6 7 14 32 23 21 16 3 -20 -20 -20 -20 -20 -20 -20 -20 -20 -20 -20 -20
-20 -20 -20 -20 -20 -20 -20 -20 -20 -20 -20 -20 -20 -5 -20 -20 -20 -6 -2 -10 -8 5 18 8 10 9 26 26 20 17 9 -1 -20 -20 -20 -20 -20 -20 -20 -20 -20 -20 -20
-20 -20 -20 -20 -20 -20 -20 -20 -20 -20 -20 -20 -19 -3 0 1 7 9 11 12 9 -5 -1 9 1 7 6 28 34 14 28 29 16 -3 7 -0 -20 -20 -20 -20 -20 -20 -20
-20 -20 -20 -20 -20 -20 -20 -20 -20 -20 -20 -20 -20 -11 -0 -19 2 8 11 12 11 9 11 -1 8 22 16 0 28 34 31 29 34 15 15 23 14 -10 -20 -20 -20 -20 -20
-20 -20 -20 -20 -20 -20 -20 -20 -20 -20 -20 -20 -20 -20 1 7 -11 7 11 9 -12 -4 0 -3 4 16 23 26 26 30 25 30 27 26 29 28 26 23 13 -16 -20 -19 -20
-20 -20 -20 -11 -20 -20 1 -8 5 -7 -20 -20 -20 -20 -20 -1 -7 -12 -17 -7 -11 -8 -8 -7 2 21 12 18 20 25 27 30 34 28 25 18 13 10 -17 0 1 -1 6
-20 -7 5 -13 -20 -3 -7 -20 -4 12 -16 -20 -20 -20 -20 -20 -15 -20 -17 -1 5 -15 -17 5 -6 -6 19 20 16 14 23 26 34 35 15 17 14 6 6 16 16 -15 -17
-19 -10 8 -18 -19 -20 -19 -6 -17 -16 -20 -20 -20 -20 2 11 4 -3 3 3 5 -4 -14 -13 4 2 8 20 14 25 21 29 29 32 23 16 7 -1 -20 -18 -19 -20 -6
-20 -20 -7 -12 -20 -16 -9 4 -20 -15 -20 -20 -20 -20 -20 -20 -20 -20 -20 -14 -20 -20 -20 -5 2 3 21 17 21 17 22 25 28 31 19 15 5 -18 -20 -8 -14 -20 -20
-20 -20 -20 -20 -20 -6 -20 -20 -20 -20 -20 -20 -20 -20 -20 -20 -20 -12 -7 -20 -20 -20 -20 -19 -12 12 7 19 22 8 24 14 9 8 7 8 -5 -14 -13 -18 -6 -8 -20
5 -8 -10 -18 -20 -20 -20 -20 -17 -1 -8 -20 -20 -20 -20 -20 -20 -16 -5 -20 -19 -15 -3 -13 -10 -11 8 1 22 14 2 2 18 12 -10 -12 -3 -17 0 2 -18 -20 -11
-20 -20 -20 1 -3 3 3 -20 0 -6 -20 -20 -18 -2 -20 -20 -20 -20 -20 -20 -20 -20 -20 -19 -20 2 11 12 9 8 24 22 17 19 -4 -4 -17 -19 -20 -20 -8 -1 7
-20 -20 -20 -2 -1 1 -8 -20 -20 -12 -13 -20 -20 -20 -20 -20 -20 -20 -20 -20 -20 -20 -20 -19 -12 -5 -1 15 12 29 24 25 26 25 18 -7 -17 -10 -5 -6 4 6 11

GFSGL_prec_radar_099.txt.gz
Reflectivity
13 21 29 20 24 20 23 23 30 28 23 23 26 34 33 33 30 30 32 33 37 31 34 34 17 20 24 5 -10 18 30 33 24 26 29 34 24 28 17 -18 -20 -15 -14
9 24 15 11 17 32 25 1 -10 -14 -18 12 25 31 30 29 30 31 31 29 29 34 32 29 24 30 25 17 7 22 23 27 28 29 34 28 31 34 24 17 -3 -20 -20
16 1 8 1 -7 -12 9 14 -8 -2 -19 -20 -20 -5 10 14 14 5 16 25 26 17 10 19 27 30 31 28 23 15 20 17 -14 -20 20 1 12 16 10 5 -4 -3 -13
-0 -9 5 -20 -11 -13 -2 1 -10 -0 -3 -19 -20 -20 -18 -19 -11 -6 2 8 9 11 16 23 16 12 24 16 15 25 23 23 12 14 33 15 -2 10 20 -9 -20 -20 -20
-20 -20 -20 -18 -18 -20 -18 0 4 -16 -18 -17 -0 -13 -20 -20 -19 -12 -2 -2 5 6 9 9 14 15 25 19 10 22 34 24 23 39 34 31 34 -20 -17 -14 -20 -20 -20
-20 -20 -20 -20 -20 -20 -20 -20 -20 -20 -20 -10 -19 -20 -20 -20 -20 -20 -20 -20 -19 -7 -14 -20 -10 11 12 19 20 14 4 -5 33 14 39 33 -13 -6 -20 -20 -20 -20 -20
-20 -20 -20 -20 -20 -20 -20 -20 -20 -20 -20 -20 -20 -20 -20 -20 -20 -20 -20 -20 -20 -20 -20 -20 -20 -20 -2 -18 13 12 18 17 22 3 38 28 -1 -2 8 -16 -16 -20 -20
-20 -20 -20 -20 -20 -20 -20 -20 -20 -20 -20 -20 -20 -20 -20 -20 -20 -20 -20 -20 -20 -20 -20 -20 -20 -20 -12 -5 -20 -19 -16 8 7 14 17 18 4 18 27 31 33 12 -8
-20 -20 -20 -20 -20 -20 -20 -20 -20 -20 -20 -20 -20 -20 -20 -20 -20 -20 -17 -20 -20 -20 -20 -20 -20 -20 8 11 -0 -7 15 7 16 27 25 37 22 25 28 24 7 -3 1
-20 -20 -20 -20 -20 -20 -20 -20 -20 -20 -20 -20 -20 -20 -20 -20 -20 -20 -20 -7 -4 -19 -20 -20 -13 2 -18 6 1 -3 -13 -13 15 -7 0 10 -3 26 -3 -14 -9 -15 -20
-20 -20 -20 -20 -20 -20 -20 -20 -20 -20 -20 -20 -20 -20 -20 -20 -20 -20 -20 1 9 9 -10 -20 -20 -20 4 11 15 -3 -1 15 3 19 -14 3 -2 -6 -20 -20 -17 -20 -20
-20 -20 -20 -20 -20 -20 -20 -20 -20 -20 -20 -20 -20 -20 -20 -20 -20 -20 -20 -20 -13 1 12 4 6 -3 -14 -10 15 14 22 11 22 6 -9 -19 -17 -13 -20 -20 -20 -20 -20
-20 -20 -20 -20 -20 -20 -20 -20 -20 -20 -20 -20 -20 -20 -20 -20 -20 -20 -20 -20 -20 -20 -3 19 17 7 -10 -20 9 14 26 18 14 -6 6 6 23 16 -20 -20 -20 -20 -20
-20 -20 -20 -20 -20 -20 -20 -20 -20 -20 -20 -20 -20 -20 -20 -20 -20 -20 -20 -17 11 -17 -20 -13 13 16 15 11 7 14 14 29 14 -12 -16 -15 -13 -20 -20 -20 -20 -20 -20
-20 -20 -20 -20 -20 -20 -20 -20 -20 -20 -20 -20 -20 -20 -11 -9 -20 0 3 -1 -1 4 9 -18 -20 6 11 1 11 -7 26 27 13 12 -1 -20 -19 -20 -20 -20 -20 -20 -20
-20 -20 -20 -20 -20 -20 -20 -20 -20 -20 -20 -20 -20 -18 -17 -3 5 0 10 5 6 11 -0 -7 -17 -2 21 23 15 19 5 12 34 32 -4 25 0 -20 -20 -20 -20 -20 -20
-20 -20 -20 -20 -20 -20 -20 -20 -20 -20 -20 -20 -20 -20 -20 -5 -15 1 4 8 7 9 -17 -4 -5 5 -4 25 25 23 17 11 25 37 29 22 24 15 12 3 -18 -20 -17
-20 -20 -20 -20 -20 -20 -20 -20 -20 -20 -20 -20 -20 -20 -20 -20 -17 -2 7 -7 -13 3 9 -5 2 -14 1 13 26 29 29 26 30 32 23 23 24 21 24 23 9 8 4
-20 -20 -20 -20 -20 4 -16 -20 -6 -11 -20 -20 -17 -20 -20 -20 -20 -14 -2 -10 -10 -20 -11 0 -0 -4 8 17 21 29 31 22 24 26 22 20 22 22 20 20 26 20 8
-20 -8 -7 -9 -9 -20 -20 -20 -20 -18 -0 -18 -20 -20 -20 -20 -20 -20 -20 -20 -3 -14 -15 -15 -20 1 -1 20 12 26 28 31 23 8 18 12 23 20 -0 2 17 19 18
-20 -20 -6 -18 -20 -20 -20 -2 1 1 0 -20 -20 -20 3 10 4 -20 -20 -20 -20 -20 -18 -20 -20 -4 6 -3 5 21 28 21 24 15 14 19 20 22 24 23 22 11 -11
-20 -20 -20 -20 -18 -20 -17 -15 -20 -1 -4 -20 -20 -20 5 0 -20 -20 -20 -20 -20 -20 -20 -19 -17 -8 0 -1 13 17 26 26 28 31 20 11 11 18 22 13 13 1 -17
-18 -11 -6 -20 -12 1 -20 -20 4 -20 -12 -11 -20 -7 -20 -20 -11 -20 -20 -12 -20 -20 -20 -2 -7 -20 -20 -11 6 21 24 23 28 28 26 19 12 6 -2 4 13 2 -19
-19 -20 -20 -20 -0 3 -17 -20 7 -7 -2 -4 -13 -20 -20 -20 -20 -20 -20 -20 -20 -18 -20 -20 -10 -16 -2 -20 -10 11 14 19 30 29 27 23 15 14 22 20 2 -18 -15
-20 -20 -20 -20 -20 -18 -2 0 5 5 -12 4 1 -2 -3 -20 -11 -20 -20 -20 -20 -20 -20 -20 -20 -9 -20 -20 -19 4 26 20 20 31 29 28 8 11 6 -16 -20 -17 -20
-20 -20 -20 -20 -20 -20 -4 -20 -20 -20 -12 4 -20 -20 -20 -20 -20 -20 -20 -20 -20 -5 -19 -11 -20 -20 -18 -20 5 19 24 21 22 24 24 25 -1 -1 -13 -20 -20 -19 -20

GFSGL_prec_radar_102.txt.gz
Reflectivity
26 30 7 11 11 22 22 24 26 22 19 16 16 30 30 19 27 33 25 23 30 38 34 24 25 18 28 33 31 30 25 24 24 22 26 9 22 24 23 28 25 14 26
13 15 21 23 26 17 24 24 -9 -14 -17 6 14 18 17 30 22 26 27 13 29 29 29 25 22 27 33 33 30 29 22 20 23 27 20 27 21 9 27 30 26 30 26
30 23 32 25 18 14 12 8 6 15 -9 3 1 5 -7 5 9 8 23 23 25 18 35 32 24 32 32 30 38 26 24 27 33 21 25 26 24 21 25 28 33 26 24
27 14 2 -3 -8 -12 -7 3 -17 -14 -0 -16 -20 -20 -20 -20 -6 -9 -19 -10 3 11 18 24 20 36 38 33 31 31 30 33 30 22 23 13 -2 -8 18 21 27 10 12
1 4 -6 3 7 -7 -10 -12 -20 -20 -20 -18 -14 -16 -20 -20 -20 -20 -20 -20 -8 -1 -10 -8 0 9 18 21 21 10 10 26 35 26 32 25 15 21 22 23 11 4 21
-20 -20 -20 -20 -20 -20 -20 -20 -20 -20 -20 -20 -20 -20 -20 -14 -19 -18 -20 -20 -20 -20 -8 -2 -8 -19 -13 3 1 20 17 6 5 28 23 35 36 25 36 33 31 33 17
-20 -20 -20 -20 -20 -20 -20 -20 -20 -20 -20 -20 -20 -20 -20 -20 -20 -20 -20 -20 -20 -20 -20 -20 -20 -17 -20 -20 -19 -7 6 21 20 12 6 21 6 12 13 34 36 29 21
-20 -20 -20 -20 -20 -20 -20 -20 -20 -20 -20 -20 -20 -20 -20 -20 -20 -20 -20 -20 -20 -20 -20 -20 -20 -20 -20 -20 -20 -20 -20 -20 -6 13 17 7 16 18 25 16 29 33 26
-20 -20 -20 -20 -20 -20 -20 -20 -20 -20 -20 -20 -20 -20 -20 -20 -20 -20 -20 -20 -20 -20 -20 -20 -20 -20 -20 -20 -20 -20 -20 -20 6 14 10 23 25 18 29 15 32 28 27
-20 -20 -20 -20 -20 -20 -20 -20 -20 -20 -20 -20 -20 -20 -20 -20 -20 -20 -20 -20 -20 -20 -20 -19 13 -18 8 -20 -12 -20 -14 -5 -20 -18 -1 -4 -2 29 14 36 13 34 34
-20 -20 -20 -20 -20 -20 -20 -20 -20 -20 -20 -20 -20 -20 -20 -20 -20 -20 -20 -20 -20 -20 -17 -8 -6 9 9 12 16 -2 -20 -20 3 4 9 2 24 -7 24 31 21 35 27
-20 -20 -20 -20 -20 -20 -20 -20 -20 -20 -20 -20 -20 -20 -20 -20 -20 -20 -20 -20 -20 -20 -20 -12 -1 -13 10 0 12 17 18 -1 1 14 18 27 24 12 12 24 -1 14 -11
-20 -20 -20 -20 -20 -20 -20 -20 -20 -20 -20 -20 -20 -20 -20 -20 -20 -20 -20 -20 -3 -1 -10 5 10 -20 -20 -7 3 16 25 18 4 24 12 8 14 -19 16 13 4 -20 -20
-20 -20 -20 -20 -20 -20 -20 -20 -20 -20 -20 -20 -20 -20 -20 -20 -20 -20 -20 -17 4 -7 -7 -19 4 1 -20 -19 4 10 21 15 8 20 28 28 18 35 22 -6 -18 -20 -20
-20 -20 -20 -20 -20 -20 -20 -20 -20 -20 -20 -7 -20 -2 -7 -20 -20 -9 4 -12 1 -5 9 5 1 -20 -20 -20 -18 -5 26 27 23 14 20 23 36 24 28 18 26 25 -12
-20 -20 -20 -20 -20 -20 -20 -20 -20 -20 -20 -3 -7 11 9 -1 13 0 7 4 10 4 5 -9 -16 -12 -4 -14 -6 4 16 29 27 17 23 25 34 17 2 -12 7 19 8
-20 -20 -20 -20 -20 -20 -20 -20 -20 -20 -20 -20 -20 3 10 10 14 2 -0 6 5 6 -20 -1 6 9 -19 -20 2 15 15 20 32 28 22 20 14 20 27 1 11 4 -20
-20 -20 -20 -20 -20 -18 -8 3 -20 -12 -20 -20 -20 -4 7 9 2 -2 3 9 -19 -20 -4 2 -9 1 -7 -2 -5 4 23 29 25 29 31 16 19 22 23 23 12 11 19
-20 -20 -20 -20 -20 -10 -16 -20 -20 -20 -19 -7 -17 -20 -20 -20 -20 -20 -12 -20 -20 -20 -5 -11 6 -2 4 -16 0 -3 23 24 30 20 20 5 16 17 23 9 19 11 20
-20 -20 -9 -5 -6 -17 -17 -19 -19 -10 -11 -2 10 -9 -20 -20 -20 -20 -20 -20 -20 -20 -20 -19 -2 -18 -20 -20 8 -1 14 20 23 22 23 17 16 17 13 18 27 23 13
-20 -20 -9 -20 -20 2 1 -19 -20 -18 -6 1 -2 -20 9 7 6 -2 -20 -20 -20 -20 -20 -20 -20 -20 -20 -6 -2 7 -0 5 19 28 30 22 16 11 9 11 16 12 16
-20 -20 -20 -20 -7 -0 -20 -12 -5 -13 -13 5 9 10 7 -3 -20 -20 -20 -20 -20 -20 -20 -20 -20 -20 -0 -7 -16 -0 0 -14 13 29 29 17 16 15 8 14 18 18 7
-20 -20 -20 -20 -5 1 -11 -7 -20 -9 6 -20 -20 3 -20 -20 -20 -20 -20 -20 -20 -20 -20 -7 -4 -2 -20 -20 -11 7 2 -3 16 31 28 17 16 6 -1 9 -2 5 12
-16 -19 -20 -20 -20 -19 -20 -20 0 0 -1 -6 -5 0 6 2 -6 -5 -17 -18 -19 -19 -20 -18 -10 -8 -5 -20 -20 -20 -17 -9 5 26 31 21 18 12 13 18 22 21 19
-20 -20 -20 -20 -20 -20 -20 -20 -15 -20 -20 -18 0 -2 -20 -1 -20 -20 -20 -20 -20 -20 -20 -20 -8 -19 -20 -18 -20 -20 -12 14 5 23 27 19 13 9 -18 -7 12 13 13
-20 -20 -20 -20 -20 -20 -20 -6 -16 -20 -20 -20 -20 -20 -20 -20 -20 -20 -20 -20 -20 -20 -20 -20 -20 -16 2 -10 -17 7 9 8 16 24 24 20 19 18 15 11 14 14 15

GFSGL_prec_radar_105.txt.gz
Reflectivity
-13 -15 -19 8 -20 -20 -5 16 21 4 26 23 24 18 19 21 18 26 14 10 3 18 22 37 35 32 27 29 27 14 16 -6 -0 19 -12 -3 -4 20 21 28 23 10 10
7 8 33 5 2 -5 -14 16 21 27 -9 3 -5 -19 -13 -1 3 4 22 -13 4 16 27 25 29 32 35 32 32 27 25 20 30 26 16 6 -16 1 -3 9 33 30 29
-19 1 1 1 6 6 7 5 14 18 4 -6 5 -13 -20 -5 -4 16 14 16 15 10 23 27 19 30 32 31 30 32 19 30 33 33 30 19 11 9 16 26 27 31 27
-5 -2 10 19 15 6 7 9 7 4 -6 -0 -20 -0 -6 -20 -20 -20 -20 -14 -8 0 11 5 3 22 20 23 22 24 27 33 33 30 32 19 10 13 25 26 27 22 22
18 14 9 9 -19 14 10 0 -3 -11 -10 -20 -17 -12 -7 -20 -18 -17 -20 -20 -20 -20 -14 -15 -12 -15 7 8 4 14 24 29 30 34 31 31 21 13 21 10 26 24 24
-20 -20 -20 -4 -20 -20 -20 -16 -7 -20 -20 -7 -16 -19 -20 -20 -20 -20 -20 -20 -20 -20 -20 -20 -20 -20 -20 -20 -17 -12 2 15 18 17 22 20 27 30 31 29 19 35 33
-20 -20 -20 -20 -20 -20 -20 -20 -20 -20 -20 -20 -20 -20 -20 -20 -20 -20 -20 -20 -20 -20 -20 -20 -20 -20 -20 -20 -20 -20 -20 -17 15 11 20 -5 6 12 21 33 25 30 34
-20 -20 -20 -20 -20 -20 -20 -20 -20 -20 -20 -20 -20 -20 -20 -20 -20 -20 -20 -20 -20 -20 -20 -20 -20 -20 -6 -10 -20 -20 -20 -20 -20 -15 24 9 3 -4 3 22 31 26 23
-20 -20 -20 -20 -20 -20 -20 -20 -20 -20 -20 -20 -20 -20 -20 -20 -20 -20 -20 -20 -20 -20 -20 -20 -20 -20 -20 -19 -5 -0 -20 -20 -20 -20 -20 18 27 12 19 12 18 16 34
-20 -20 -20 -20 -20 -20 -20 -20 -20 -20 -20 -20 -20 -20 -20 -20 -20 -20 -20 -20 -20 -20 -20 -20 -20 -10 2 7 10 3 -20 -20 -20 -20 -20 -20 0 9 22 9 21 3 1
-20 -20 -20 -20 -20 -20 -20 -20 -20 -20 -20 -20 -20 -20 -20 -20 -20 -20 -20 -20 -20 -20 -20 -20 -20 -20 -14 3 4 7 9 8 -1 -20 -20 -18 -19 3 12 5 -4 20 6
-20 -20 -20 -20 -20 -20 -20 -20 -20 -20 -20 -20 -20 -20 -20 -20 -20 -20 -20 -5 -3 -20 -20 -20 -20 -3 1 10 1 -19 -10 8 7 -2 -16 -18 17 24 17 11 4 -2 7
-20 -20 -20 -20 -20 -20 -20 -20 -20 -20 -20 -20 -20 -20 -20 -20 -20 -20 -20 -20 -11 -18 -17 -4 3 -3 -1 -11 -8 -0 -20 5 -8 16 15 11 -9 17 8 23 26 33 2
-20 -20 -20 -20 -20 -20 -20 -20 -20 -20 -20 -20 -20 -20 -17 -20 -20 -20 -20 -20 -20 -5 -16 -20 -5 5 -17 -4 -16 -9 10 3 16 18 6 25 6 13 32 36 34 2 34
-20 -20 -20 -20 -20 -20 -20 -20 -20 -20 -20 -11 -15 4 11 11 -20 -14 10 7 10 14 17 -20 -15 3 -20 -7 6 9 4 -9 23 -3 21 25 30 23 24 37 39 39 30
-20 -20 -20 -20 -20 -20 -20 -20 -19 -12 -3 -5 -1 6 -4 8 13 13 12 13 10 9 14 -9 -20 -20 3 -8 -17 4 -12 11 21 14 13 22 28 30 22 34 37 34 36
-20 -20 -20 -20 -20 -20 -20 -20 -1 -20 -20 -20 -2 -10 -3 4 15 13 9 -1 9 14 -8 -20 -20 -20 3 10 8 -7 4 6 25 16 21 10 20 31 32 14 18 37 26
-20 -20 -20 -20 -20 -20 -20 4 -16 -14 1 -20 -20 -20 -4 5 1 3 -13 -1 -3 -20 -20 -20 -20 -20 -20 12 7 -19 1 1 17 26 21 24 25 25 24 18 14 22 25
-20 -20 -20 -20 -20 -6 -17 -20 -2 -8 -3 -15 -20 -20 -20 5 1 -10 5 -6 -13 -19 -20 -20 -20 -0 7 6 -20 -9 2 5 9 26 23 21 17 17 13 17 10 11 13
-20 -20 -6 -18 -20 -20 -16 3 -3 -19 -2 4 -0 -18 -20 -20 -14 -20 -1 -14 4 -8 -7 1 -1 3 1 -17 -20 3 -12 9 3 -4 6 24 11 15 18 18 14 -3 11
-20 -20 -7 -20 -20 -20 -1 -2 4 5 -15 -2 -19 8 8 7 9 -20 -19 -19 -20 -19 2 4 5 6 -20 -20 -20 1 7 3 6 11 18 16 4 12 9 19 12 6 5
-20 -20 -20 -5 -20 -15 -12 -9 -20 -20 -13 3 -1 -14 1 7 -12 -5 -14 -2 2 4 5 8 7 -9 -20 -16 -20 -20 4 4 10 3 1 -2 -5 8 17 17 17 6 13
-20 -20 -20 -20 -14 -11 -20 -10 -20 -15 2 -1 -1 -20 -5 -2 9 5 1 -2 1 0 -19 -18 -9 -17 -2 5 -1 -20 5 10 2 1 2 16 11 13 15 22 12 10 9
-10 -20 -20 -20 -8 -3 -20 -20 -8 -5 -1 -1 -9 -19 -20 -1 -15 -3 -17 -1 3 2 1 2 2 1 -5 2 6 -20 -16 3 -0 1 10 9 14 12 4 18 10 1 11
-20 -20 -20 -19 -20 -20 -20 -20 -7 -2 -3 -20 -20 -20 -20 -20 -20 -20 -10 -5 -2 -6 -19 -20 -20 -20 -6 -16 -6 -14 -17 -1 -5 3 10 11 19 11 4 14 11 9 10
-20 -20 -20 -20 -20 -20 -20 -20 -18 -20 -20 -20 -20 -20 -20 -20 -20 -20 -20 -20 -20 -20 -20 -20 -20 -20 -20 -20 -20 -18 -7 2 7 16 9 20 19 16 15 8 10 10 9

GFSGL_prec_radar_108.txt.gz
Reflectivity
-8 -8 5 14 7 0 -2 -14 -9 22 19 12 9 16 6 16 9 10 10 14 8 11 13 -3 8 14 33 33 32 28 24 26 29 16 6 8 28 20 20 24 30 19 24
4 -19 -2 5 3 11 -8 -8 -19 -10 19 26 14 16 18 27 30 -12 15 23 1 24 16 16 12 24 26 26 29 25 24 26 29 30 19 23 19 17 12 18 14 6 5
14 10 21 -9 11 16 1 -2 -10 -20 -20 2 14 -6 -12 -17 -19 -16 -20 -18 -11 -7 0 9 20 21 22 27 28 22 31 32 26 27 25 16 -1 12 24 24 22 12 -17
-20 -16 -5 9 15 11 21 13 11 5 5 1 6 9 -8 -17 -16 -19 -20 -19 -18 -20 -12 6 8 7 17 8 4 22 20 23 26 26 22 22 15 1 25 20 17 12 15
-20 -17 -5 -14 -16 5 -14 -12 -15 -16 -20 -20 -20 -20 -20 -20 -20 -20 -20 -14 -20 -20 -20 -11 -20 -20 -15 -18 -3 -6 -18 -2 -3 15 20 24 22 21 22 22 20 1 20
-20 -20 -20 -20 -20 -20 -20 -18 -17 -20 -7 -15 -20 -20 -20 -15 -16 -20 -20 -20 -20 -20 -20 -20 -20 -20 -20 -20 -20 -20 -2 1 -13 -18 17 7 -1 8 -0 12 25 21 18
-20 -20 -20 -20 -20 -20 -20 -20 -20 -20 -20 -20 -20 -20 -20 -20 -20 -20 -20 -20 -20 -20 -20 -20 -20 -20 -20 -20 -20 -20 -19 -14 -1 2 -20 -4 15 -4 9 23 13 11 19
-20 -20 -20 -20 -20 -20 -20 -20 -20 -20 -20 -20 -20 -20 -20 -20 -20 -20 -20 -20 -20 -20 -20 -20 -20 -20 -20 -20 -20 -20 -20 -20 -16 -19 3 -1 6 11 -2 5 10 32 29
-20 -20 -20 -20 -20 -20 -20 -20 -20 -20 -20 -20 -20 -20 -20 -20 -20 -20 -20 -20 -20 -20 -20 -20 -20 -20 -20 -20 -18 2 -6 -20 2 4 -16 -19 -20 -16 20 9 6 30 22
-20 -20 -20 -20 -20 -20 -20 -20 -20 -20 -20 -20 -20 -20 -20 -20 -20 -20 -20 -20 -20 -20 -20 -20 -20 -20 -20 -20 -20 -20 -3 -14 -3 -18 2 -19 2 -16 -19 10 13 11 19
-20 -20 -20 -20 -20 -20 -20 -20 -20 -20 -20 -20 -20 -20 -20 -20 -20 -20 -20 -20 -20 -20 -20 -20 -20 -20 -20 -1 1 -14 -8 3 -6 0 4 7 -7 -20 -8 -20 12 17 15
-20 -20 -20 -20 -20 -20 -20 -20 -20 -20 -20 -20 -20 -20 -20 -20 -20 -20 -20 -20 -20 -20 -20 -20 -20 -20 -20 -13 -9 -20 -20 -14 1 3 -4 2 -20 -20 -20 -20 -3 11 1
-20 -20 -20 -20 -20 -20 -20 -20 -20 -20 -20 -20 -20 -20 -20 -20 -20 -20 -20 -20 -7 3 -4 4 4 5 1 -20 -20 -20 -10 -1 7 12 -5 5 2 -5 -20 -9 7 23 12
-20 -20 -20 -20 -20 -20 -20 -20 -20 -20 -20 -20 -15 -7 -18 -20 -20 -20 -5 -17 5 10 8 8 -2 12 -4 -3 -20 -18 2 10 11 -0 9 3 20 7 -14 4 20 21 16
-20 -20 -20 -20 -20 -20 -20 -20 -20 -20 -20 -8 -4 -4 2 1 -9 7 8 11 15 10 15 4 8 13 -12 -20 -18 -10 1 10 13 6 5 -1 8 13 -12 8 23 22 23
-20 -20 -20 -20 -20 -20 -20 -20 -20 -20 -20 -20 -13 1 -12 6 9 10 12 15 9 13 12 13 17 10 -20 -20 -6 2 6 0 2 -17 1 -2 26 13 -4 11 22 27 25
-20 -20 -20 -20 -20 -20 -20 -20 -20 -20 -20 -20 -20 -20 -8 3 -12 8 10 -10 5 10 15 13 11 4 -20 0 5 6 10 -13 -14 10 -10 3 21 24 26 26 35 32 35
-20 -20 -20 -20 -20 -20 -20 -20 -20 -15 -16 -20 -20 -20 -9 0 1 3 6 6 9 10 12 10 11 8 -3 2 7 10 10 5 -3 3 7 -6 26 27 14 25 29 30 24
-20 -20 -20 -20 -20 -14 -17 -20 -20 -17 -5 2 2 -12 -15 -4 2 2 10 14 11 11 10 9 7 6 4 6 6 14 8 8 7 5 -0 -2 19 23 22 -0 -10 28 18
-20 -20 -20 -20 -9 -20 -13 -8 -9 -5 1 -1 -2 -3 -2 8 8 -1 3 -20 -4 2 3 6 2 6 5 6 10 10 8 9 6 9 7 6 12 30 23 25 11 18 18
-20 -20 -13 -20 -10 -14 -20 -5 -2 2 -0 -19 -20 -5 3 4 4 -0 -16 3 1 1 5 8 7 6 6 8 10 11 8 7 6 6 9 5 5 -2 2 21 24 23 24
-20 -20 -5 -7 -4 -20 -18 -4 -4 -3 -8 -3 -15 -18 0 -2 -7 -10 2 7 -6 1 6 8 8 6 5 9 9 12 13 10 8 -1 10 2 -3 19 18 24 17 29 19
-20 -4 -5 -19 -20 -6 -10 -5 -19 -8 -6 -4 -11 -5 -10 -4 -5 -9 -19 -13 -4 -0 2 4 6 5 4 5 8 10 14 10 9 10 8 0 4 7 16 -9 -11 12 20
-16 -5 -19 -20 -20 -19 -13 -19 -19 -4 -3 -4 -4 -17 -5 -18 -20 -13 -20 -17 -12 0 0 2 2 2 3 4 5 6 9 14 14 12 8 3 -0 8 10 -2 -11 14 17
-20 -20 -20 -20 -20 -5 -18 -6 -7 -13 -20 -20 -20 -20 -20 -20 -20 -20 -20 -20 -18 -10 -7 -20 -13 -16 -20 -6 -4 -4 -7 -20 -4 2 3 7 13 9 1 4 13 19 11
-20 -20 -20 -20 -20 -20 -20 -5 -5 -20 -20 -9 -20 -20 -20 -20 -20 -20 -20 -20 -20 -20 -20 -20 -20 -20 -20 -20 -18 -20 -4 -3 5 1 7 15 9 11 9 19 19 18 17

GFSGL_prec_radar_111.txt.gz
Reflectivity
-10 12 -9 5 4 5 -6 -20 -18 11 12 10 18 -3 -12 -13 9 4 -9 -16 6 -20 12 8 20 -13 -20 14 23 24 31 28 32 24 27 11 24 17 28 27 14 -4 5
-13 -19 -9 -19 -19 -20 -19 -10 -12 -20 -20 -19 -15 -8 -11 23 -9 16 13 24 8 11 18 23 13 16 26 16 11 13 26 25 33 31 5 17 26 23 22 28 26 21 17
-20 -20 -20 -16 -15 -20 -20 -9 -20 -20 -20 -20 -20 -20 -20 -17 -20 -20 6 -2 17 6 -6 -9 9 -4 2 21 26 22 30 25 31 31 32 24 33 3 19 23 19 6 10
-20 -20 -20 -20 -20 -20 -20 -20 -18 -7 -8 -5 -14 -18 -19 -5 -2 -10 -18 -20 -20 -20 -20 -20 -20 -20 -20 -10 2 -1 20 22 25 25 25 23 27 12 23 14 24 7 -9
-20 -20 -20 -20 -20 -20 -20 -20 -19 -20 -20 -20 -20 -20 -20 -20 -20 -20 -20 -20 -20 -20 -20 -20 -5 -20 -20 -0 12 16 -2 -1 -5 -12 -15 -8 -1 -19 -5 17 10 7 -3
-20 -20 -20 -20 -20 -20 -20 -20 -20 -20 -20 -20 -20 -20 -20 -20 -20 -20 -20 -20 -20 -20 -20 -20 -20 -19 -20 -16 -20 -4 -18 -20 -3 5 -5 11 -5 -19 -6 18 17 9 1
-20 -20 -20 -20 -20 -20 -20 -20 -20 -20 -20 -20 -20 -20 -20 -20 -20 -20 -20 -20 -20 -20 -20 -20 -20 -20 -20 -20 -20 -20 -20 -20 -20 -20 1 6 12 2 1 -1 5 7 -9
-20 -20 -20 -20 -20 -20 -20 -20 -20 -20 -20 -20 -20 -20 -20 -20 -20 -20 -20 -20 -20 -20 -20 -20 -20 -20 -20 -20 -20 -20 -20 -20 -20 -20 -19 -20 1 12 -14 3 15 8 1
-20 -20 -20 -20 -20 -20 -20 -20 -20 -20 -20 -20 -20 -20 -20 -20 -20 -20 -20 -20 -20 -20 -20 -20 -20 -20 -20 -20 -20 -20 -20 -20 -20 -20 -20 -20 3 0 -7 5 -19 17 15
-20 -20 -20 -20 -20 -20 -20 -20 -20 -20 -20 -20 -20 -20 -20 -20 -20 -20 -19 -20 -20 -20 -20 -20 -20 -20 -20 -14 -11 -20 -20 -20 -20 -20 -20 -20 -20 -20 -20 -20 8 0 13
-20 -20 -20 -20 -20 -20 -20 -20 -20 -20 -20 -20 -20 -20 -20 -20 -20 -20 -20 -14 -20 -20 -20 -20 -20 -20 -20 -18 1 -10 -20 -15 -20 -20 -20 -20 -20 -20 -20 -7 -7 -0 13
-20 -20 -20 -20 -20 -20 -20 -20 -20 -20 -20 -20 -20 -20 -20 -20 -20 -20 -20 -20 -20 -20 -20 -20 -20 -20 -20 1 4 1 -3 -13 -20 -20 -5 2 -19 -20 -20 -18 -9 -18 6
-20 -20 -20 -20 -20 -20 -20 -20 -20 -20 -20 -20 -20 -20 -20 -20 -20 -20 -20 -20 -19 -15 -20 -20 -2 -20 -20 -20 -20 -20 -20 -20 -7 -20 -20 -19 -15 3 1 -12 -12 -6 -12
-20 -20 -20 -20 -20 -20 -20 -20 -20 -20 -20 -20 -20 -20 -20 -20 -20 -20 -20 -17 -12 -3 -8 5 5 6 -3 -17 -9 -20 -20 -20 -6 5 4 7 -8 -5 4 -20 -10 -2 10
-20 -20 -20 -20 -20 -20 -20 -20 -20 -20 -20 -20 -11 -2 -0 -1 -20 -3 0 -1 -2 8 10 2 4 -20 -6 2 -20 -20 -20 -20 -19 5 -14 -20 -17 -20 -19 1 -1 12 7
-20 -20 -20 -20 -20 -20 -20 -20 -20 -20 -20 -20 -13 -6 -20 -1 -14 5 8 7 8 11 8 1 -20 -12 5 -20 -20 -20 -20 -14 -20 2 -20 -5 7 -5 -10 6 16 22 18
-20 -20 -20 -20 -20 -20 -20 -20 -20 -20 -20 -20 -20 -20 -3 -19 -6 6 9 10 11 13 10 7 12 13 7 -20 -20 -20 -20 -17 2 -17 1 -14 -3 -0 7 -5 -0 12 -7
-20 -20 -20 -20 -20 -20 -20 -17 -11 -20 -20 -20 -20 -20 -10 -9 -3 1 6 5 10 8 11 8 5 7 5 -20 -18 -1 0 -20 10 -18 -8 -3 7 8 -1 14 10 20 -3
-20 -20 -20 -20 -20 -20 -20 -20 -20 -10 -2 -13 -20 -20 -20 -20 -12 -1 1 -9 4 -16 -11 -16 -4 -1 3 -4 5 6 -2 7 -10 -1 -7 7 8 7 -2 17 25 19 12
-20 -20 -20 -20 -20 -20 -20 -20 -20 -20 -5 1 -4 -5 -20 -11 -2 -16 -20 -17 2 2 2 6 -0 3 7 1 7 7 -3 -2 -2 -7 -10 -17 -3 5 -7 14 19 7 5
-20 -20 -20 -20 -20 -20 -20 -20 -20 -3 2 -4 -7 -20 -1 -7 -3 -4 -1 -3 -5 7 4 5 -5 4 6 7 6 7 2 1 0 8 0 -8 10 -2 3 11 3 4 11
-20 -20 -20 -20 -20 -20 -20 -15 -16 -14 -20 -9 -20 -20 -7 -10 -4 -2 -11 -14 -20 -20 -9 0 -3 -3 -2 -17 -5 -10 -20 -10 7 6 3 4 -1 -10 0 7 -1 7 10
-20 -20 -20 -20 -20 -20 -19 -20 -20 -20 -20 -13 -20 -12 -16 -10 -8 -20 -20 -20 -20 -20 -20 -2 -2 -10 -1 -2 1 1 4 -15 -18 3 3 2 2 -16 1 -2 10 1 -12
-20 -20 -20 -20 -20 -20 -9 -19 -20 -18 -4 -20 -20 -20 -20 -20 -20 -20 -20 -20 -20 -20 -20 -20 -20 -20 -20 -18 -6 -5 -4 -3 3 -14 -17 -3 -6 -18 -4 -2 -7 -4 1
-20 -20 -20 -20 -20 -20 -20 -20 -20 -20 -20 -20 -20 -20 -20 -9 -20 -20 -20 -20 -20 -20 -20 -20 -20 -20 -20 -20 -20 -14 -20 -14 -8 -20 -20 -2 -1 7 11 1 -19 -19 -18
-20 -20 -20 -20 -20 -20 -20 -20 -20 -20 -14 -14 -20 -20 -18 -20 -20 -20 -20 -20 -20 -20 -20 -20 -20 -20 -20 -20 -20 -20 -3 1 3 9 7 -1 -5 3 9 7 5 2 9

GFSGL_prec_radar_114.txt.gz
Reflectivity
11 10 -2 5 0 -15 -20 -20 -20 -20 -20 -20 -20 -17 -1 -4 11 11 9 3 10 11 4 9 -17 20 1 25 20 30 23 5 13 7 -10 20 23 16 20 28 19 12 24
-18 -19 -4 4 -5 -13 -12 -20 -20 -20 -20 -20 -20 -20 -20 -19 -20 -19 -19 -11 11 -4 11 8 19 4 -3 15 9 11 7 19 18 9 -14 13 23 24 16 19 18 26 27
-20 -20 -20 -20 -19 -19 -20 -20 -20 -20 -6 -4 -14 -20 -20 -20 -20 -20 -20 -13 -9 -20 -19 10 28 29 28 23 11 23 22 6 27 18 12 28 29 25 36 33 34 31 29
-20 -20 -20 -20 -20 -20 -20 -20 -20 -20 -20 -20 -20 -20 -20 -17 -17 -7 -1 13 13 -3 -14 -9 3 -7 -18 5 15 -4 -5 2 5 5 8 19 32 32 36 33 27 27 23
-20 -20 -20 -20 -20 -20 -20 -20 -20 -19 -20 -20 -20 5 11 13 -3 7 1 -10 -13 -7 -16 -6 0 -3 -20 -20 -20 -20 -16 -15 9 -7 1 -7 -6 1 26 31 16 12 -8
-20 -20 -20 -20 -20 -20 -20 -20 -20 -20 -20 -20 -20 -20 -20 -20 -20 -20 -20 -20 -13 -20 -12 -20 -20 -20 -20 -20 -20 -20 -20 -20 -20 -5 5 10 10 11 8 5 6 8 -11
-20 -20 -20 -20 -20 -20 -20 -20 -20 -20 -20 -20 -20 -20 -20 -20 -20 -20 -20 -20 -20 -20 -20 -20 -20 -20 -20 -20 -20 -20 -20 -20 -20 -20 -20 -18 -0 1 -11 2 3 -3 9
-20 -20 -20 -20 -20 -20 -20 -20 -20 -20 -20 -20 -20 -20 -20 -20 -20 -20 -20 -20 -20 -20 -20 -20 -20 -20 -20 -20 -20 -20 -20 -20 -20 -20 -20 -20 -20 -20 -20 -15 1 -19 -3
-19 -15 -19 -20 -18 -20 -20 -20 -20 -20 -20 -20 -20 -20 -20 -20 -20 -20 -20 -20 -20 -20 -20 -20 -20 -20 -20 -20 -20 -20 -20 -20 -20 -20 -20 -20 -20 -20 -20 -20 -20 -1 -5
-20 -20 -20 -20 -20 -20 -20 -20 -20 -20 -20 -20 -20 -20 -20 -20 -20 -20 -20 -6 -7 -15 -20 -20 -20 -20 -20 -6 2 -3 -18 -20 -20 -20 -20 -20 -20 -20 -20 -20 -6 8 5
-20 -20 -20 -20 -20 -20 -20 -20 -20 -20 -20 -20 -20 -20 -20 -20 -20 -20 -20 -20 -14 -20 -20 -20 -20 -20 -20 2 7 9 7 6 -13 -20 -20 -20 -20 -20 -20 -20 -17 -20 -8
-20 -20 -20 -20 -20 -20 -20 -20 -20 -20 -20 -20 -20 -20 -20 -20 -20 -20 -20 -20 -8 -13 -20 -20 -20 -20 7 10 6 -20 -0 11 -20 -20 -20 -20 -20 -20 -20 -20 -20 -20 -17
-20 -20 -20 -20 -20 -20 -20 -20 -20 -20 -20 -20 -20 -20 -20 -20 -20 -20 -20 -20 -18 -20 -3 0 9 11 11 2 -20 -20 9 -20 -20 -20 -20 -20 -20 -20 -20 -20 -20 -20 -20
-20 -20 -20 -20 -20 -20 -20 -20 -20 -20 -20 -20 -20 -20 -20 -20 -20 -20 -20 -20 -20 -20 -20 -20 10 5 2 -20 -20 -20 -20 -20 -20 -20 -20 -20 -20 -20 -20 -17 -8 -12 -8
-20 -20 -20 -20 -20 -20 -20 -20 -20 -20 -20 -20 -20 -20 -20 -20 -20 -2 -14 -17 -11 -15 1 -15 -20 -20 -20 -20 -20 -20 -20 -20 -20 -20 -20 -20 -20 -20 -20 -20 3 -10 -7
-20 -20 -20 -20 -20 -20 -20 -20 -20 -20 -20 -20 -20 -9 -20 -3 -11 4 6 7 4 -1 -5 -17 -18 -20 -20 -16 5 -18 -20 -20 -20 -20 -20 -20 -18 -20 -20 -16 8 5 -4
-20 -20 -20 -20 -20 -20 -20 -20 -20 -20 -20 -20 -20 -20 -16 -2 4 2 5 6 9 9 -18 3 -4 -8 -5 4 8 -16 -20 -20 -20 -20 -20 -8 -20 -20 5 -14 -20 -2 2
-20 -20 -20 -20 -20 -20 -20 -20 -20 -20 -20 -20 -20 -20 -10 -1 -15 -13 4 0 -20 -20 -20 -20 -20 -20 -20 -13 -20 -20 -20 -20 -20 -20 -20 -15 3 2 -11 4 1 -14 3
-20 -20 -20 -20 -20 -20 -20 -20 -20 -20 -20 -20 -20 -20 -20 -20 -4 2 1 -20 -20 -20 -14 -20 -20 -20 -20 -20 -20 -17 -12 -9 -12 -1 -1 0 -1 -9 -20 -17 -5 1 18
-20 -20 -20 -20 -20 -20 -20 -20 -20 -20 -20 -20 -20 -20 -20 -20 -20 -20 -20 -20 -20 -20 -20 -3 4 3 -4 -8 -4 -3 5 -3 -7 -20 -9 -12 0 -20 -16 -5 -20 -0 9
-20 -20 -20 -20 -20 -20 -20 -20 -20 -20 -20 -20 -20 -20 -0 -3 -20 -20 -20 -20 -20 -20 -20 -20 -20 -20 -20 -20 -20 -20 -20 -20 -20 -20 -20 -17 -20 -5 -2 -20 -18 5 3
-20 -20 -20 -20 -20 -20 -20 -20 -18 -20 -20 -20 -20 -20 -20 -20 -20 -20 -20 -20 -20 -20 -20 -20 -20 -20 -20 -20 -20 -18 -8 -20 -20 -20 -13 -20 -0 -20 -19 -17 8 2 9
-20 -20 -20 -20 -20 -20 -20 -20 -20 -20 -20 -20 -20 -20 -20 -20 -20 -20 -20 -20 -20 -20 -20 -20 -20 -20 -20 -20 -20 -20 -19 -20 -20 -20 -17 -16 -9 -20 -20 -11 3 1 -13
-20 -20 -20 -20 -20 -20 -20 -20 -20 -20 -20 -20 -20 -20 -20 -20 -20 -20 -20 -20 -20 -20 -20 -20 -20 -20 -20 -20 -20 -20 -20 -20 -20 -20 -7 -19 -20 -20 -20 -14 1 10 11
-20 -20 -20 -20 -20 -20 -20 -20 -20 -20 -20 -20 -20 -20 -20 -20 -20 -20 -20 -20 -20 -20 -20 -20 -20 -20 -20 -20 -20 -20 -20 -15 -5 -16 -17 -19 -20 -20 -20 -19 -17 7 12
-20 -20 -20 -20 -20 -20 -20 -20 -20 -20 -20 -20 -20 -20 -20 -20 -20 -20 -20 -20 -17 -16 -19 -20 -20 -20 -20 -20 -20 -20 -15 -2 -3 3 1 4 2 -10 -11 -15 -4 -3 -2

GFSGL_prec_radar_120.txt.gz
Reflectivity
-20 -20 -20 -20 -20 -20 -20 -20 -20 -20 -20 -20 -20 -20 -20 -18 -19 -18 -6 -15 -15 -18 -20 -20 -20 -20 -20 -20 -13 -19 -20 -4 10 -15 1 -8 -20 -4 -19 -6 -17 5 -19
-20 -20 -20 -20 -20 -20 -20 -20 -20 -20 -20 -20 -20 -20 -20 -20 -20 -20 -20 -20 -20 -20 -20 -20 -20 -20 -19 -20 -20 -10 -4 -20 -19 9 -0 -9 22 2 9 15 13 -20 -17
-20 -20 -20 -20 -20 -20 -20 -20 -20 -20 -20 -20 -20 -20 -20 -20 -20 -20 -20 -20 -20 -20 -20 -20 -20 -20 -20 -20 -20 -20 -20 -20 -5 -18 -20 -20 2 9 -19 2 9 -19 -18
-20 -20 -20 -20 -20 -20 -20 -20 -20 -20 -20 -20 -20 -20 -20 -20 -20 -20 -20 -20 -20 -20 -20 -20 -20 -20 -20 -20 -20 -20 -20 -20 -20 -19 -12 -16 -16 7 3 -20 -16 -6 -8
-20 -20 -20 -20 -20 -20 -20 -20 -20 -20 -20 -20 -20 -20 -20 -20 -20 -20 -20 -20 -20 -20 -20 -20 -20 -20 -20 -20 -15 -3 -18 -9 -11 -13 -17 -11 -20 -20 -8 5 2 -16 8
-20 -20 -20 -20 -20 -20 -20 -20 -20 -20 -20 -20 -20 -20 -20 -20 -20 -20 -20 -20 -20 -20 -20 -20 -20 -20 -20 -20 -20 -20 -20 -19 -11 -12 -20 -20 -20 -14 -10 -20 -9 10 -0
-20 -20 -20 -20 -20 -20 -20 -20 -20 -20 -20 -20 -20 -20 -20 -20 -20 -20 -20 -20 -20 -20 -20 -20 -20 -20 -20 -20 -20 -20 -20 -20 -20 -20 -20 -12 -5 -19 -19 1 -17 -20 -19
-20 -20 -20 -20 -20 -20 -20 -20 -20 -20 -20 -20 -20 -20 -20 -20 -20 -20 -20 -20 -20 -20 -20 -20 -20 -20 -20 -20 -20 -20 -20 -20 -20 -20 -20 -20 -20 -12 -20 -20 -20 -20 -20
-20 -20 -20 -20 -20 -20 -20 -20 -20 -20 -20 -20 -20 -20 -20 -20 -20 -20 -20 -20 -20 -20 -20 -20 -20 -20 -20 -20 -20 -20 -20 -20 -20 -20 -20 -20 -20 -20 -20 -20 -20 -20 -20
-20 -20 -20 -20 -20 -20 -20 -20 -20 -20 -20 -20 -20 -20 -20 -20 -20 -20 -20 -20 -20 -20 -20 -20 -20 -20 -7 -5 3 -7 -17 -20 -20 -20 -20 -20 -20 -20 -20 -20 -20 -3 -3
-20 -20 -20 -20 -20 -20 -20 -20 -20 -20 -20 -20 -20 -20 -20 -20 -20 -20 -20 -20 -20 -20 -20 -20 -20 -20 -16 -3 4 7 12 11 1 -18 -20 -20 -20 -20 -20 -20 -20 -20 -20
-20 -20 -20 -20 -20 -20 -20 -20 -20 -20 -20 -20 -20 -20 -20 -20 -20 -20 -20 -20 -13 -20 -20 -20 -20 -11 6 -6 7 11 8 0 -20 -20 -20 -20 -20 -20 -20 -20 -20 -20 -20
-20 -20 -20 -20 -20 -20 -20 -20 -20 -20 -20 -20 -20 -20 -20 -20 -20 -20 -20 -20 3 2 -19 -20 6 6 7 8 1 -1 5 -20 -20 -20 -20 -20 -20 -20 -20 -20 -20 -20 -20
-20 -20 -20 -20 -20 -20 -20 -20 -20 -20 -20 -20 -20 -20 -20 -20 -20 -20 -20 -20 -20 -20 -20 -20 6 4 -1 -20 -20 -20 -20 -20 -20 -15 10 -18 -20 -20 -20 -20 -20 -20 -20
-20 -20 -20 -20 -20 -20 -20 -20 -20 -20 -20 -20 -20 -20 -20 -20 -20 1 1 5 -11 -20 -2 -20 -20 -20 -20 -20 -20 -20 -20 -20 -20 -20 -20 -20 -20 -20 -20 -20 -20 -20 -20
-20 -20 -20 -20 -20 -20 -20 -20 -20 -20 -20 -20 -20 -20 -20 -20 -9 -2 -0 -3 -12 6 -13 -20 -20 -20 -19 -20 -20 -20 -20 -20 -20 -20 -20 -20 -20 -20 -20 -20 -20 -20 -20
-20 -20 -20 -20 -20 -20 -20 -20 -20 -20 -20 -20 -20 -20 -20 -8 -17 -9 -16 1 1 -14 -20 -20 -20 -20 -20 -6 -20 -20 -20 -20 -20 -20 -20 -20 -20 -20 -19 -20 -20 -20 -20
-20 -20 -20 -20 -20 -20 -20 -20 -20 -20 -20 -20 -20 -20 -20 -20 -20 -5 -2 -6 -20 -20 -20 -20 -20 -20 -20 -20 -20 0 -4 -13 -16 -20 -20 -20 -20 -20 -20 -20 -20 -20 -20
-20 -20 -20 -20 -20 -20 -20 -20 -20 -20 -20 -20 -20 -20 -20 -20 -20 -9 -12 -20 -20 -20 -20 -20 -20 -20 -20 -20 -20 -20 -20 -20 -20 -14 -20 -20 -20 -20 -20 -20 -20 3 6
-20 -20 -20 -20 -20 -20 -20 -20 -20 -20 -20 -20 -20 -20 -20 -20 -20 -20 -20 -20 -20 -20 -20 -20 -20 -20 -20 -20 -20 -20 -20 -20 -20 -20 -20 -20 -20 -20 -20 -20 -20 -4 -2
-20 -20 -20 -20 -20 -20 -20 -20 -20 -20 -20 -20 -20 -20 -3 -19 -20 -20 -20 -20 -20 -20 -20 -20 -20 -20 -20 -20 -20 -20 -20 -20 -20 -20 -20 -20 -20 -20 -20 -20 -20 -20 -20
-20 -20 -20 -20 -20 -20 -20 -20 -20 -20 -20 -20 -20 -20 -20 -20 -20 -20 -20 -20 -20 -20 -20 -20 -20 -20 -20 -20 -20 -20 -20 -20 -20 -20 -20 -20 -20 -20 -20 -20 -20 -20 -20
-20 -20 -20 -20 -20 -20 -20 -20 -20 -20 -20 -20 -20 -20 -20 -20 -20 -20 -20 -20 -20 -20 -20 -20 -20 -20 -20 -20 -20 -20 -20 -20 -20 -20 -18 -19 -19 -20 -20 -20 -20 -20 -20
-20 -20 -20 -20 -20 -20 -20 -20 -20 -20 -20 -20 -20 -20 -20 -20 -20 -20 -20 -20 -20 -20 -20 -20 -20 -17 -15 -17 -10 -3 -12 -20 -20 -19 -13 -14 -19 -20 -20 -20 -20 -20 -19
-20 -20 -20 -20 -20 -20 -20 -20 -20 -20 -20 -20 -20 -20 -20 -20 -20 -20 -20 -20 -20 -20 -20 -20 -20 -20 -18 -14 -5 -1 3 -1 1 -16 -16 -20 -20 -20 -19 -20 -20 -20 -20
-20 -20 -20 -20 -20 -20 -20 -20 -20 -20 -20 -20 -20 -20 -20 -20 -20 -20 -20 -20 -20 -20 -20 -20 -20 -18 -15 -15 3 18 15 8 9 2 6 -4 -18 -20 -20 -20 -20 -20 -20

GFSGL_prec_radar_123.txt.gz
Reflectivity
-20 -20 -20 -20 -20 -20 -20 -20 -20 -20 -20 -20 -20 -20 -20 -20 -20 -20 -20 6 -5 -1 10 19 11 13 4 -5 -1 -18 -20 -20 -20 -20 -20 -20 -20 -0 -12 -3 -6 -20 -15
-20 -20 -20 -20 -20 -20 -20 -20 -20 -20 -20 -20 -20 -20 -20 -20 -20 -20 -20 -20 -20 -20 -19 -20 -20 -20 -20 -19 -20 -20 -19 -20 -16 -20 -20 -20 -20 -20 -20 -17 -20 -20 1
-20 -20 -20 -20 -20 -20 -20 -20 -20 -20 -20 -20 -20 -20 -20 -20 -20 -20 -20 -20 -20 -20 -20 -20 -20 -20 -20 -20 -20 -20 -20 -20 -20 -20 -20 -20 -20 -20 -20 -20 -20 -20 -1
-20 -20 -20 -20 -20 -20 -20 -20 -20 -20 -20 -20 -20 -20 -20 -20 -20 -20 -20 -20 -20 -20 -20 -20 -20 -20 -20 -20 -20 -20 -20 -20 -20 -20 -20 -20 -20 -20 -20 -20 -20 -20 -20
-20 -20 -20 -20 -20 -20 -20 -20 -20 -20 -20 -20 -20 -20 -20 -20 -20 -20 -20 -20 -20 -20 -20 -20 -20 -20 -20 -20 -20 -20 -20 -20 -20 -20 -20 -20 -20 -20 -20 -20 -20 -20 -20
-20 -20 -20 -20 -20 -20 -20 -20 -20 -20 -20 -20 -20 -20 -20 -20 -20 -20 -20 -20 -20 -20 -20 -20 -20 -20 -20 -20 -20 -20 -20 -20 -20 -20 -20 -20 -20 -20 -20 -20 -20 -15 -6
-20 -20 -20 -20 -20 -20 -20 -20 -20 -20 -20 -20 -20 -20 -20 -20 -20 -20 -20 -20 -20 -20 -20 -20 -20 -20 -20 -20 -20 -20 -20 -20 -20 -20 -20 -20 -20 -20 -20 -20 -20 -20 -20
-20 -20 -20 -20 -20 -20 -20 -20 -20 -20 -20 -20 -20 -20 -20 -20 -20 -20 -20 -20 -20 -20 -20 -20 -20 -20 -20 -20 -20 -20 -20 -20 -20 -20 -20 -20 -20 -20 -20 -20 -20 -20 -20
-20 -20 -20 -20 -20 -20 -20 -20 -20 -20 -20 -20 -20 -20 -20 -20 -20 -20 -20 -20 -20 -20 -20 -20 -20 -20 -20 -20 -20 -20 -20 -20 -20 -20 -19 -20 -17 6 -20 -20 -20 -20 -20
-20 -20 -20 -20 -20 -20 -20 -20 -20 -20 -20 -20 -20 -20 -20 -20 -20 -20 -20 -20 -20 -20 -20 -20 -20 -20 -20 -19 -4 -20 -19 -20 -20 -20 -20 -20 -20 -20 -20 -20 -20 -20 -20
-20 -20 -20 -20 -20 -20 -20 -20 -20 -20 -20 -20 -20 -20 -20 -20 -20 -20 -20 -20 -20 -20 -20 -20 -20 -20 -14 1 7 1 -2 6 7 -20 -20 -20 -20 -20 -20 -20 -20 -20 -20
-20 -20 -20 -20 -20 -20 -20 -20 -20 -20 -20 -20 -20 -20 -20 -20 -20 -20 -20 -11 -13 -17 -20 -20 -20 -20 6 2 -0 3 5 4 -20 -20 -20 -20 -20 -20 -20 -20 -20 -20 -20
-20 -20 -20 -20 -20 -20 -20 -20 -20 -20 -20 -20 -20 -20 -20 -20 -20 -20 -20 -20 0 -0 -17 -20 2 3 6 7 -20 -6 -1 -20 -20 -20 -20 -20 -20 -20 -20 -20 -20 -20 -20
-14 -20 -20 -20 -20 -20 -20 -20 -20 -20 -20 -20 -20 -20 -20 -20 -20 -20 -20 -20 -20 -13 -20 -20 5 1 -20 -20 -20 -20 -20 -20 -20 -20 -20 -20 -20 -20 -20 -20 -20 -20 -20
-4 5 2 -20 -20 -20 -20 -20 -20 -20 -20 -20 -20 -20 -20 -20 -20 -13 -1 -14 -16 -12 4 -20 -20 -20 -20 -20 -20 -20 -20 -20 -20 -20 -20 -20 -20 -20 -20 -20 -20 -20 -20
-19 6 4 -20 -20 -20 -20 -20 -20 -20 -20 -20 -20 -20 -20 -20 -20 -11 6 4 2 7 -13 -20 -20 -20 -20 -20 -20 -20 -20 -20 -20 -20 -20 -20 -20 -20 -20 -20 -20 -12 -20
-11 11 3 6 -20 -20 -20 -20 -20 -20 -20 -20 -20 -20 -20 -20 -11 -20 -18 4 2 -13 -20 -20 -20 -20 -20 -20 -20 -20 -20 -20 -20 -20 -20 -20 -20 -20 -20 -20 -20 -20 -20
5 9 -2 9 -6 -20 -20 -20 -20 -20 -20 -20 -20 -20 -20 -20 -20 -11 -14 -18 -20 -20 -20 -20 -20 -20 -20 -20 -20 -20 -20 -20 -20 -20 -20 -20 -20 -20 -20 -20 -20 -20 -20
10 -5 0 9 4 -20 -20 -20 -20 -20 -20 -20 -20 -20 -20 -20 -20 -5 -10 -20 -20 -20 -20 -20 -20 -20 -20 -20 -20 -20 -20 -20 -20 -20 -20 -20 -20 -20 -20 -20 -20 -2 -8
-14 -3 -0 8 0 -20 -20 -20 -20 -20 -20 -20 -20 -20 -20 -20 -20 -20 -20 -20 -20 -20 -20 -20 -20 -20 -20 -20 -20 -20 -20 -20 -20 -20 -20 -20 -20 -20 -20 -20 -20 -20 -20
9 5 -3 5 -8 -20 -20 -20 -20 -20 -20 -20 -20 -20 -20 -8 -20 -20 -20 -20 -20 -20 -20 -20 -20 -20 -20 -20 -20 -20 -20 -20 -20 -20 -20 -20 -20 -20 -20 -20 -20 -20 -20
1 0 -18 -5 1 -18 -20 -20 -20 -20 -20 -20 -20 -20 -20 -20 -20 -20 -20 -20 -20 -20 -20 -20 -20 -20 -20 -19 -19 -18 -17 -18 -20 -18 -19 -20 -20 -20 -20 -20 -20 -20 -20
-6 4 -9 -8 -7 -8 -20 -20 -20 -20 -20 -20 -20 -20 -20 -20 -20 -20 -20 -20 -20 -20 -20 -20 -20 -20 -20 -18 -15 -3 2 -18 -13 2 -3 -20 -20 -20 -20 -20 -20 -20 -20
-19 -19 -16 -7 -1 -5 -18 -20 -20 -20 -20 -20 -20 -20 -20 -20 -20 -20 -20 -20 -20 -20 -20 -20 -20 -20 -17 -18 -15 -15 -7 -2 -1 8 12 6 -19 -20 -20 -20 -20 -20 -20
-7 -17 -20 -8 1 -2 -19 -20 -20 -20 -20 -20 -20 -20 -20 -20 -20 -20 -20 -20 -20 -20 -20 -20 -20 -20 -20 -17 -14 -10 -0 21 26 21 11 1 -1 -20 -18 -12 -20 -17 -20
-9 -20 -20 -7 -2 -5 -20 -20 -20 -20 -20 -20 -20 -20 -20 -20 -20 -20 -20 -20 -20 -20 -20 -20 -20 -20 -20 -20 -20 -15 16 17 21 25 24 4 -20 -20 -20 -20 -20 -20 -20